[[{"header":{"parameterUnit":"m.s-1","parameterCategory":1,"la1":30.6,"la2":29.2853,"lo1":-89.7004,"lo2":-87.6739,"dy":0.0162,"dx":0.0183,"nx":112,"ny":82,"refTime":"2024-08-07T18:00:00:Z","depth":0,"parameterNumber":2,"parameterNumberName":"U-component_of_WINDS"},"data":[0.0,0.0,0.0,0.0,0.0,0.0,0.0,0.0,0.0,0.0,0.0,0.0,0.0,0.0,0.0,0.0,0.0,0.0,0.0,0.0,0.0,0.0,0.0,0.0,0.0,0.0,0.0,0.0,0.0,0.0,0.0,0.0,0.0,0.0,0.0,0.0,0.0,0.0,0.0,0.0,0.0,0.0,0.0,0.0,0.0,0.0,0.0,0.0,0.0,0.0,0.0,0.0,0.0,0.0,0.0,0.0,0.0,0.0,0.0,0.0,0.0,0.0,0.0,0.0,0.0,0.0,0.0,0.0,0.0,0.0,0.0,0.0,0.0,0.0,0.0,0.0,0.0,0.0,0.0,0.0,0.0,0.0,0.0,0.0,0.0,0.0,0.0,0.0,0.0,0.0,2.7778,3.0313,3.3827,3.6345,3.7223,3.5584,3.3144,2.9982,0.0,0.0,0.0,0.0,0.0,0.0,0.0,0.0,0.0,0.0,0.0,0.0,0.0,0.0,0.0,0.0,0.0,0.0,0.0,0.0,0.0,0.0,0.0,0.0,0.0,0.0,0.0,0.0,0.0,0.0,0.0,0.0,0.0,0.0,0.0,0.0,0.0,0.0,0.0,0.0,0.0,0.0,0.0,0.0,0.0,0.0,0.0,0.0,0.0,0.0,0.0,0.0,0.0,0.0,0.0,0.0,0.0,0.0,0.0,0.0,0.0,0.0,0.0,0.0,0.0,0.0,0.0,0.0,0.0,0.0,0.0,0.0,0.0,0.0,0.0,0.0,0.0,0.0,0.0,0.0,0.0,0.0,0.0,0.0,0.0,0.0,0.0,0.0,0.0,0.0,0.0,0.0,0.0,0.0,0.0,0.0,0.0,0.0,0.0,0.0,0.0,0.0,0.0,0.0,2.8244,3.4374,3.5603,3.6345,3.7223,3.5018,3.2734,3.0743,0.0,0.0,0.0,0.0,0.0,0.0,0.0,0.0,0.0,0.0,0.0,0.0,0.0,0.0,0.0,0.0,0.0,0.0,0.0,0.0,0.0,0.0,0.0,0.0,0.0,0.0,0.0,0.0,0.0,0.0,0.0,0.0,0.0,0.0,0.0,0.0,0.0,0.0,0.0,0.0,0.0,0.0,0.0,0.0,0.0,0.0,0.0,0.0,0.0,0.0,0.0,0.0,0.0,0.0,0.0,0.0,0.0,0.0,0.0,0.0,0.0,0.0,0.0,0.0,0.0,0.0,0.0,0.0,0.0,0.0,0.0,0.0,0.0,0.0,0.0,0.0,0.0,0.0,0.0,0.0,0.0,0.0,0.0,0.0,0.0,0.0,0.0,0.0,0.0,0.0,0.0,0.0,0.0,0.0,0.0,0.0,0.0,0.0,0.0,0.0,0.0,0.0,0.0,2.7347,3.0099,3.6072,3.6286,3.6345,3.7223,3.4901,3.248,3.0294,2.6097,0.0,0.0,0.0,0.0,0.0,0.0,0.0,0.0,0.0,0.0,0.0,0.0,0.0,0.0,0.0,0.0,0.0,0.0,0.0,0.0,0.0,0.0,0.0,0.0,0.0,0.0,0.0,0.0,0.0,0.0,0.0,0.0,0.0,0.0,0.0,0.0,0.0,0.0,0.0,0.0,0.0,0.0,0.0,0.0,0.0,0.0,0.0,0.0,0.0,0.0,0.0,0.0,0.0,0.0,0.0,0.0,0.0,0.0,0.0,0.0,0.0,0.0,0.0,0.0,0.0,0.0,0.0,0.0,0.0,0.0,0.0,0.0,0.0,0.0,0.0,0.0,0.0,0.0,0.0,0.0,0.0,0.0,0.0,0.0,0.0,0.0,0.0,0.0,0.0,0.0,0.0,0.0,0.0,0.0,0.0,0.0,0.0,0.0,0.0,0.0,0.0,0.0,3.0372,3.2168,3.6521,3.6404,3.6267,3.6931,3.4413,3.1875,2.9728,2.5141,0.0,0.0,0.0,0.0,0.0,0.0,0.0,0.0,0.0,0.0,0.0,0.0,0.0,0.0,0.0,0.0,0.0,0.0,0.0,0.0,0.0,0.0,0.0,0.0,0.0,0.0,0.0,0.0,0.0,0.0,0.0,0.0,0.0,0.0,0.0,0.0,0.0,0.0,0.0,0.0,0.0,0.0,0.0,0.0,0.0,0.0,0.0,0.0,0.0,0.0,0.0,0.0,0.0,0.0,0.0,0.0,0.0,0.0,0.0,0.0,0.0,0.0,0.0,0.0,0.0,0.0,0.0,0.0,0.0,0.0,0.0,0.0,0.0,0.0,0.0,0.0,0.0,0.0,0.0,0.0,0.0,0.0,0.0,0.0,0.0,0.0,0.0,0.0,0.0,0.0,0.0,0.0,0.0,0.0,0.0,0.0,0.0,0.0,0.0,0.0,0.0,0.0,3.1192,3.3886,3.5876,3.603,3.601,3.6088,3.2949,3.0587,2.965,2.4048,0.0,0.0,0.0,0.0,0.0,0.0,0.0,0.0,0.0,0.0,0.0,0.0,0.0,0.0,0.0,0.0,0.0,0.0,0.0,0.0,0.0,0.0,0.0,0.0,0.0,0.0,0.0,0.0,0.0,0.0,0.0,0.0,0.0,0.0,0.0,0.0,0.0,0.0,0.0,0.0,0.0,0.0,0.0,0.0,0.0,0.0,0.0,0.0,0.0,0.0,0.0,0.0,0.0,0.0,0.0,0.0,0.0,0.0,0.0,0.0,0.0,0.0,0.0,0.0,0.0,0.0,0.0,0.0,0.0,0.0,0.0,0.0,0.0,0.0,0.0,0.0,0.0,0.0,0.0,0.0,0.0,0.0,0.0,0.0,0.0,0.0,0.0,0.0,0.0,0.0,0.0,0.0,0.0,0.0,0.0,0.0,0.0,0.0,0.0,0.0,0.0,0.0,3.0333,3.2871,3.5698,3.5991,3.5991,3.5991,3.3807,3.1387,2.8947,0.0,0.0,0.0,0.0,0.0,0.0,0.0,0.0,0.0,0.0,0.0,0.0,0.0,0.0,0.0,0.0,0.0,0.0,0.0,0.0,0.0,0.0,0.0,0.0,0.0,0.0,0.0,0.0,0.0,0.0,0.0,0.0,0.0,0.0,0.0,0.0,0.0,0.0,0.0,0.0,0.0,0.0,0.0,0.0,0.0,0.0,0.0,0.0,0.0,0.0,0.0,0.0,0.0,0.0,0.0,0.0,0.0,0.0,0.0,0.0,0.0,0.0,0.0,0.0,0.0,0.0,0.0,0.0,0.0,0.0,0.0,0.0,0.0,0.0,0.0,0.0,0.0,0.0,0.0,0.0,0.0,0.0,0.0,0.0,0.0,0.0,0.0,0.0,0.0,0.0,0.0,0.0,0.0,0.0,0.0,0.0,0.0,0.0,0.0,0.0,0.0,0.0,2.7698,3.0255,3.2753,3.5698,3.5991,3.5991,3.5991,3.3651,3.1075,2.8459,0.0,0.0,0.0,0.0,0.0,0.0,0.0,0.0,0.0,0.0,0.0,0.0,0.0,0.0,0.0,0.0,0.0,0.0,0.0,0.0,0.0,0.0,0.0,0.0,0.0,0.0,0.0,0.0,0.0,0.0,0.0,0.0,0.0,0.0,0.0,0.0,0.0,0.0,0.0,0.0,0.0,0.0,0.0,0.0,0.0,0.0,0.0,0.0,0.0,0.0,0.0,0.0,0.0,0.0,0.0,0.0,0.0,0.0,0.0,0.0,0.0,0.0,0.0,0.0,0.0,0.0,0.0,0.0,0.0,0.0,0.0,0.0,0.0,0.0,0.0,0.0,0.0,0.0,0.0,0.0,0.0,0.0,0.0,0.0,0.0,0.0,0.0,0.0,0.0,0.0,0.0,0.0,0.0,0.0,0.0,0.0,0.0,0.0,0.0,0.0,0.0,0.0,2.7854,3.1289,3.4081,3.5815,3.5991,3.5991,3.5991,3.207,2.924,0.0,0.0,0.0,0.0,0.0,0.0,0.0,0.0,0.0,0.0,0.0,0.0,0.0,0.0,0.0,0.0,0.0,0.0,0.0,0.0,0.0,0.0,0.0,0.0,0.0,0.0,0.0,0.0,0.0,0.0,0.0,0.0,0.0,0.0,0.0,0.0,0.0,0.0,0.0,0.0,0.0,0.0,0.0,0.0,0.0,0.0,0.0,0.0,0.0,0.0,0.0,0.0,0.0,0.0,0.0,0.0,0.0,0.0,0.0,0.0,0.0,0.0,0.0,0.0,0.0,0.0,0.0,0.0,0.0,0.0,0.0,0.0,0.0,0.0,0.0,0.0,0.0,0.0,0.0,0.0,0.0,0.0,0.0,0.0,0.0,0.0,0.0,0.0,0.0,0.0,0.0,0.0,0.0,0.0,0.0,0.0,0.0,0.0,0.0,0.0,0.0,0.0,0.0,2.7854,3.1289,3.4081,3.5815,3.5991,3.5991,3.5991,3.3144,3.0489,2.844,0.0,0.0,0.0,0.0,0.0,0.0,0.0,0.0,0.0,0.0,0.0,0.0,0.0,0.0,0.0,0.0,0.0,0.0,0.0,0.0,0.0,0.0,0.0,0.0,0.0,0.0,0.0,0.0,0.0,0.0,0.0,0.0,0.0,0.0,0.0,0.0,0.0,0.0,0.0,0.0,0.0,0.0,0.0,0.0,0.0,0.0,0.0,0.0,0.0,0.0,0.0,0.0,0.0,0.0,0.0,0.0,0.0,0.0,0.0,0.0,0.0,0.0,0.0,0.0,0.0,0.0,0.0,0.0,0.0,0.0,0.0,0.0,0.0,0.0,0.0,0.0,0.0,0.0,0.0,0.0,0.0,0.0,0.0,0.0,0.0,0.0,0.0,0.0,0.0,0.0,0.0,0.0,0.0,0.0,0.0,0.0,0.0,0.0,0.0,0.0,0.0,0.0,2.7854,3.1289,3.4081,3.5815,3.5991,3.5991,3.5991,3.3593,3.1153,2.8967,0.0,0.0,0.0,0.0,0.0,0.0,0.0,0.0,0.0,0.0,0.0,0.0,0.0,0.0,0.0,0.0,0.0,0.0,0.0,0.0,0.0,0.0,0.0,0.0,0.0,0.0,0.0,0.0,0.0,0.0,0.0,0.0,0.0,0.0,0.0,0.0,0.0,0.0,0.0,0.0,0.0,0.0,0.0,0.0,0.0,0.0,0.0,0.0,0.0,0.0,0.0,0.0,0.0,0.0,0.0,0.0,0.0,0.0,0.0,0.0,0.0,0.0,0.0,0.0,0.0,0.0,0.0,0.0,0.0,0.0,0.0,0.0,0.0,0.0,0.0,0.0,0.0,0.0,0.0,0.0,0.0,0.0,0.0,0.0,0.0,0.0,0.0,0.0,0.0,0.0,0.0,0.0,0.0,0.0,0.0,0.0,0.0,0.0,0.0,0.0,0.0,0.0,2.7952,3.1348,3.4081,3.5815,3.5991,3.5991,3.5991,3.3593,3.1426,2.9806,0.0,0.0,0.0,0.0,0.0,0.0,0.0,0.0,0.0,0.0,0.0,0.0,0.0,0.0,0.0,0.0,0.0,0.0,0.0,0.0,0.0,0.0,0.0,0.0,0.0,0.0,0.0,0.0,0.0,0.0,0.0,0.0,0.0,0.0,0.0,0.0,0.0,0.0,0.0,0.0,0.0,0.0,0.0,0.0,0.0,0.0,0.0,0.0,0.0,0.0,0.0,0.0,0.0,0.0,0.0,0.0,0.0,0.0,0.0,0.0,2.7429,2.5172,0.0,0.0,0.0,0.0,0.0,0.0,0.0,0.0,0.0,0.0,0.0,0.0,0.0,0.0,0.0,0.0,0.0,0.0,0.0,0.0,0.0,0.0,0.0,0.0,0.0,0.0,0.0,0.0,0.0,0.0,0.0,0.0,0.0,0.0,0.0,0.0,0.0,0.0,0.0,0.0,2.8791,3.1719,3.4081,3.5815,3.5991,3.5991,3.5991,3.3593,3.1641,3.0606,2.5512,0.0,0.0,0.0,0.0,0.0,0.0,0.0,0.0,0.0,0.0,0.0,0.0,0.0,0.0,0.0,0.0,0.0,0.0,0.0,0.0,0.0,0.0,0.0,0.0,0.0,0.0,0.0,0.0,0.0,0.0,0.0,0.0,0.0,0.0,0.0,0.0,0.0,0.0,0.0,0.0,0.0,0.0,0.0,0.0,0.0,0.0,0.0,0.0,0.0,0.0,0.0,0.0,0.0,0.0,0.0,0.0,0.0,0.0,0.0,3.1994,3.019,0.0,0.0,0.0,0.0,0.0,0.0,0.0,0.0,0.0,0.0,0.0,0.0,0.0,0.0,0.0,0.0,0.0,0.0,0.0,0.0,0.0,0.0,0.0,0.0,0.0,0.0,0.0,0.0,0.0,0.0,0.0,0.0,0.0,0.0,0.0,0.0,0.0,0.0,0.0,0.0,2.9065,3.2154,3.4521,3.5854,3.5965,3.5965,3.5991,3.4374,3.2792,3.1504,2.7756,0.0,0.0,0.0,0.0,0.0,0.0,0.0,0.0,0.0,0.0,0.0,0.0,0.0,0.0,0.0,0.0,0.0,0.0,0.0,0.0,0.0,0.0,0.0,0.0,0.0,0.0,0.0,0.0,0.0,0.0,0.0,0.0,0.0,0.0,0.0,0.0,0.0,0.0,0.0,0.0,0.0,0.0,0.0,0.0,0.0,0.0,0.0,0.0,0.0,0.0,0.0,0.0,0.0,3.7168,3.7315,3.7063,3.7956,3.8743,3.9277,3.6514,3.5694,3.6075,3.2427,0.0,0.0,0.0,0.0,0.0,0.0,0.0,0.0,0.0,0.0,0.0,0.0,0.0,0.0,0.0,0.0,0.0,0.0,0.0,0.0,0.0,0.0,0.0,0.0,3.416,3.3862,2.8721,0.0,0.0,0.0,0.0,0.0,0.0,0.0,0.0,0.0,0.0,0.0,2.9537,3.2693,3.501,3.5884,3.5935,3.5912,3.5988,3.5191,3.4081,3.2636,3.014,2.7433,0.0,0.0,0.0,0.0,0.0,0.0,0.0,0.0,0.0,0.0,0.0,0.0,0.0,0.0,0.0,0.0,0.0,0.0,0.0,0.0,0.0,0.0,0.0,0.0,0.0,0.0,0.0,0.0,0.0,0.0,0.0,0.0,2.4533,2.5608,0.0,0.0,0.0,0.0,0.0,0.0,0.0,0.0,0.0,0.0,0.0,0.0,0.0,3.5229,3.6017,3.8541,3.9778,3.9815,4.3027,4.3756,4.2323,4.3313,4.3841,4.3925,4.3486,0.0,3.8052,3.6746,0.0,0.0,0.0,0.0,0.0,0.0,0.0,0.0,0.0,0.0,0.0,0.0,0.0,0.0,0.0,0.0,0.0,0.0,0.0,0.0,0.0,0.0,3.7323,3.6679,3.7265,3.7558,0.0,3.2877,2.9985,2.8657,2.6615,0.0,0.0,0.0,0.0,0.0,0.0,0.0,3.1305,3.3414,3.4959,3.5821,3.5919,3.5908,3.5912,3.5165,3.4608,3.4374,3.1906,3.0252,2.9803,2.621,0.0,0.0,0.0,0.0,0.0,0.0,0.0,0.0,0.0,0.0,0.0,0.0,0.0,0.0,0.0,0.0,0.0,0.0,0.0,0.0,0.0,0.0,0.0,0.0,0.0,0.0,0.0,0.0,0.0,2.4486,2.7347,2.7186,2.7975,2.7791,0.0,0.0,0.0,0.0,0.0,0.0,0.0,0.0,0.0,3.6255,3.8104,3.9697,4.0931,4.2725,4.3613,4.3563,4.5168,4.5553,4.4827,4.5267,4.5473,4.5473,4.5473,4.4478,4.265,4.0349,3.796,3.5623,0.0,0.0,0.0,0.0,3.4491,3.4739,3.7084,3.7312,3.6485,3.5895,0.0,0.0,0.0,0.0,0.0,0.0,0.0,3.3957,0.0,0.0,3.9994,4.0092,4.0756,4.1128,4.0254,3.8174,3.5658,0.0,3.1417,2.966,2.6519,0.0,0.0,0.0,0.0,3.1212,3.318,3.4951,3.6177,3.659,3.6192,3.5895,3.5908,3.5614,3.5218,3.4739,3.316,3.1816,3.0834,2.8528,2.6008,0.0,0.0,0.0,0.0,0.0,0.0,0.0,0.0,0.0,0.0,0.0,0.0,0.0,0.0,0.0,0.0,0.0,0.0,0.0,0.0,0.0,0.0,0.0,0.0,0.0,0.0,0.0,0.0,2.7604,3.0194,2.9454,3.1252,3.1463,0.0,0.0,0.0,0.0,0.0,0.0,3.5694,3.7513,3.9095,4.0341,4.2044,4.3598,4.5025,4.5861,4.6391,4.6604,4.6604,4.6519,4.6327,4.6327,4.621,4.5997,4.5997,4.6075,4.5988,4.322,4.1222,3.9741,3.8238,3.7491,3.748,3.8965,3.9097,3.8938,4.1744,4.2144,4.1256,4.0377,3.9088,3.7405,3.4633,0.0,0.0,0.0,0.0,3.7353,3.909,4.0622,4.1844,4.2493,4.3158,4.3442,4.2789,4.214,4.0545,0.0,3.5534,3.4146,3.0728,0.0,0.0,0.0,3.1735,3.4237,3.5061,3.6484,3.7369,3.7183,3.6592,3.6123,3.5914,3.5946,3.5691,3.5077,3.4004,3.2829,3.1516,3.0194,2.8201,2.5434,0.0,0.0,0.0,0.0,0.0,0.0,0.0,0.0,0.0,0.0,0.0,0.0,0.0,0.0,0.0,0.0,0.0,0.0,0.0,0.0,0.0,0.0,0.0,0.0,0.0,0.0,0.0,0.0,0.0,3.3608,3.665,0.0,0.0,0.0,0.0,3.6443,3.8054,3.9374,4.0229,4.2633,4.4045,4.4122,4.5162,4.6051,4.6761,4.6941,4.7456,4.8269,4.8269,4.7915,4.724,4.724,4.6773,4.5997,4.5997,4.6075,4.6118,4.5124,4.4206,4.3352,4.2435,4.157,4.0957,4.1871,4.2187,4.2275,4.3208,4.2961,4.248,4.3918,4.259,4.0217,3.9219,3.7816,0.0,0.0,3.9638,4.0752,4.2499,4.3114,4.3287,4.3335,4.3539,4.3669,4.3569,4.3554,4.275,0.0,3.8116,3.6642,3.5604,0.0,3.4183,3.4204,3.5038,3.5993,3.6867,3.7761,3.8022,3.7186,3.7063,3.6729,3.5967,3.5907,3.5911,3.5936,3.4347,3.3353,3.3272,3.0845,2.9024,2.8031,2.5558,0.0,0.0,0.0,0.0,0.0,0.0,0.0,0.0,0.0,0.0,0.0,0.0,0.0,0.0,0.0,0.0,0.0,0.0,0.0,0.0,0.0,0.0,0.0,0.0,0.0,0.0,0.0,0.0,3.6689,3.921,0.0,3.6916,3.7525,3.8473,3.9348,4.1473,4.3124,4.3976,4.5819,4.6854,4.6854,4.7284,4.7622,4.785,4.7999,4.8223,4.8534,4.8534,4.839,4.8133,4.8133,4.7978,4.7667,4.7667,4.7709,4.7735,4.6863,4.6059,4.5343,4.5031,4.4681,4.4411,4.4721,4.4852,4.489,4.517,4.5066,4.4771,4.4614,4.3471,4.2079,4.1675,4.1125,4.0895,4.2007,4.2648,4.3258,4.4496,4.4936,4.5094,4.5173,4.5261,4.5163,4.4621,4.4485,4.4043,4.2552,4.0823,3.8987,3.6969,3.6837,3.6642,3.5543,3.7042,3.8421,3.8732,3.9043,3.911,3.8813,3.7819,3.7044,3.6762,3.6259,3.5742,3.5206,3.4042,3.3149,3.258,3.0598,2.9093,2.8225,2.6248,2.379,0.0,0.0,0.0,0.0,0.0,0.0,0.0,0.0,0.0,0.0,0.0,0.0,0.0,0.0,0.0,0.0,0.0,0.0,0.0,0.0,0.0,0.0,0.0,0.0,0.0,3.6682,3.9731,3.9039,4.1525,4.228,3.9663,4.1059,4.2373,4.2951,4.482,4.6196,4.6778,4.7791,4.8329,4.8329,4.8418,4.8613,4.8904,4.8984,4.9318,4.9881,4.9609,4.9473,4.9473,4.9163,4.8871,4.8599,4.8599,4.8632,4.8662,4.8082,4.7384,4.6674,4.6407,4.6268,4.6204,4.6198,4.6206,4.6196,4.6196,4.6127,4.5911,4.5151,4.4395,4.3751,4.3675,4.3634,4.3749,4.4284,4.4537,4.4783,4.5468,4.5764,4.5936,4.6107,4.6164,4.6055,4.5558,4.5392,4.5114,4.4277,4.2895,4.1231,3.9194,3.9334,3.9221,3.7741,3.9004,4.0111,4.0111,4.0127,4.0023,3.9726,3.8711,3.7815,3.7257,3.6443,3.5721,3.5145,3.3757,3.283,3.2543,3.0589,2.9221,2.8656,2.6646,2.4598,2.2562,0.0,0.0,0.0,0.0,0.0,0.0,0.0,0.0,0.0,0.0,0.0,0.0,0.0,0.0,0.0,0.0,0.0,0.0,0.0,0.0,0.0,0.0,0.0,3.5781,3.8733,4.0887,4.0781,4.3833,4.495,4.2415,4.5292,4.735,4.733,4.8161,4.8638,4.8638,4.8677,4.8677,4.8677,4.8677,4.9085,4.992,4.994,5.0755,5.2348,5.1571,5.1202,5.1202,5.0328,4.9493,4.8716,4.8696,4.8729,4.8778,4.8752,4.8273,4.7503,4.6656,4.6289,4.6202,4.6199,4.6201,4.6196,4.6196,4.5978,4.5703,4.5703,4.5524,4.5297,4.5297,4.5297,4.5297,4.5297,4.5317,4.5339,4.5473,4.5619,4.5757,4.5959,4.6111,4.6211,4.6284,4.6292,4.6036,4.5116,4.4254,4.3391,4.2499,4.2331,4.2013,4.109,4.0936,0.0,4.0917,4.0948,4.0686,3.9831,3.9719,3.9059,3.742,3.6465,3.5914,3.5864,3.3519,3.2514,3.3322,3.0901,2.9533,2.9494,2.6845,2.5039,2.4171,0.0,0.0,0.0,0.0,0.0,0.0,0.0,0.0,0.0,0.0,0.0,0.0,0.0,0.0,0.0,0.0,0.0,0.0,0.0,0.0,0.0,3.6358,3.9518,3.9395,4.1795,4.3789,4.4363,4.586,4.6584,4.5905,4.7255,4.8179,4.8239,4.9046,4.9532,4.9532,5.0134,5.0484,5.0484,5.0484,5.06,5.0833,5.0833,5.1066,5.1532,5.1319,5.1513,5.2037,5.1222,5.1027,5.1319,5.0736,5.0495,5.0478,4.9878,4.9508,4.9165,4.7727,4.6775,4.6199,4.6191,4.6201,4.6196,4.6196,4.5978,4.5703,4.5703,4.5524,4.5297,4.5297,4.5297,4.5297,4.5297,4.538,4.5473,4.56,4.5777,4.5947,4.6115,4.6164,4.6211,4.6284,4.6292,4.6225,4.598,4.5712,4.5058,4.3512,4.3248,4.2951,4.2056,4.1915,0.0,4.1052,4.0996,4.0902,4.0677,4.0129,3.9584,3.9121,3.7714,3.6296,3.5032,3.3745,3.2864,3.2465,3.1154,3.0122,2.9434,2.797,2.6783,0.0,0.0,0.0,0.0,0.0,0.0,0.0,0.0,0.0,0.0,0.0,0.0,0.0,0.0,0.0,0.0,0.0,0.0,0.0,0.0,0.0,0.0,3.9656,4.2316,4.2928,4.4277,4.5492,4.6338,4.6867,4.7326,4.7766,4.8561,4.9071,4.9101,4.994,5.0445,5.0445,5.0911,5.1202,5.1202,5.1202,5.1202,5.1202,5.1202,5.1377,5.1707,5.1358,5.163,5.2368,5.1571,5.1455,5.1863,5.1396,5.1186,5.1162,5.0738,5.0332,4.9836,0.0,0.0,0.0,0.0,4.6203,4.6196,4.6196,4.5978,4.5703,4.5703,4.5524,4.5297,4.5297,4.5339,4.5381,4.5381,4.5491,4.5634,4.5783,4.5906,4.6027,4.6177,4.6226,4.6255,4.6284,4.6292,4.63,4.63,4.63,0.0,4.4902,4.4393,4.3722,4.25,4.2301,4.1989,4.1114,4.1009,4.0992,4.1004,4.0605,4.0209,3.9832,3.8207,0.0,0.0,0.0,3.2971,3.2052,3.152,0.0,0.0,0.0,0.0,0.0,0.0,0.0,0.0,2.8123,2.8365,0.0,0.0,0.0,0.0,0.0,0.0,0.0,0.0,0.0,0.0,0.0,0.0,0.0,0.0,0.0,0.0,4.2767,4.4556,4.6052,4.6286,4.653,4.7119,4.7318,4.771,4.8565,4.9439,4.9951,4.9962,5.0724,5.1202,5.1202,5.1202,0.0,0.0,0.0,5.1202,5.1202,5.1202,5.1552,5.2251,5.1532,5.163,5.2368,5.1564,5.1245,5.1342,5.1256,5.122,5.1218,5.1277,5.081,4.9832,4.8154,4.7435,4.727,4.6489,4.6196,4.6196,4.6196,0.0,0.0,4.5703,4.5524,4.5297,4.5297,4.54,4.549,4.549,4.5619,4.577,4.5949,4.6008,4.6044,4.6176,4.6255,4.6303,4.6308,4.6296,4.63,4.63,4.63,4.63,4.63,4.5616,4.4492,4.2841,4.2527,4.2136,4.1261,4.1074,4.1006,4.1009,0.0,0.0,3.9994,3.8428,3.7444,3.735,3.5115,3.3414,3.2509,3.2535,3.2445,3.2193,3.2167,3.2847,3.4273,3.4999,3.53,3.5114,3.2027,3.1825,0.0,0.0,0.0,0.0,0.0,0.0,0.0,0.0,0.0,0.0,0.0,0.0,0.0,0.0,0.0,4.1815,4.4685,4.6853,4.7171,4.7819,4.8,4.727,4.8372,4.9292,4.9536,5.0344,5.0875,5.0938,5.1105,5.1202,5.1202,5.1202,5.1202,5.1202,5.1202,5.1202,5.1202,5.1202,5.128,5.1435,5.128,0.0,5.2368,5.157,5.1587,5.2211,5.1557,5.1274,5.1288,5.1357,5.0876,4.9908,4.8178,4.7073,4.6424,4.6261,4.6196,4.6196,4.6196,4.5978,4.5703,4.5703,4.5524,4.5297,4.5297,4.54,0.0,4.549,4.5713,4.5956,4.5988,4.608,4.6177,4.6255,4.6284,4.6308,4.6296,4.63,4.63,4.63,4.63,4.63,4.63,4.615,4.5687,4.4635,4.3872,4.3108,4.2249,4.1523,4.1055,4.1008,4.1065,4.1016,4.0795,3.9852,3.8994,3.8285,3.7026,3.6223,3.6024,3.6482,3.6419,3.5724,3.5611,3.5703,3.6031,3.6184,3.6692,3.7521,3.6164,3.532,0.0,0.0,0.0,0.0,0.0,0.0,0.0,0.0,0.0,0.0,0.0,3.8249,3.999,0.0,4.4398,4.5301,4.6922,4.8055,4.8108,4.882,4.9157,4.8609,4.9296,4.9974,5.0464,5.0886,5.1161,5.1211,5.1211,5.12,5.1202,5.1202,5.1202,5.1202,5.1202,5.1202,5.1202,5.12,5.1211,5.1211,5.1237,5.1456,5.1846,5.1434,5.1492,5.1882,5.1464,5.1327,5.1342,5.1381,5.0883,5.0017,4.9094,4.7969,4.6839,4.6839,4.6566,4.6196,4.6111,4.5917,4.5689,4.5615,4.5455,4.5297,4.5297,4.54,4.5526,4.5543,4.5769,4.6008,4.6046,4.6157,4.625,4.6288,4.6292,4.6296,4.63,4.63,4.63,4.63,4.63,4.63,4.63,4.63,4.6007,4.5129,4.4633,4.3884,4.2572,4.2027,4.1574,4.109,4.1076,4.1091,4.1042,4.0277,3.9408,3.8466,3.7933,3.7589,3.7472,3.7737,3.7679,3.7214,3.7132,3.7258,3.7547,3.7547,3.7932,3.8644,3.8182,3.7588,0.0,0.0,0.0,0.0,0.0,0.0,0.0,0.0,3.5794,3.8488,4.0829,4.2795,4.4197,4.6138,4.7753,4.8445,4.8732,4.8857,4.8915,4.9639,5.009,4.9943,5.0067,5.0425,5.112,5.1211,5.1199,5.1225,5.1225,5.1215,5.122,5.1385,5.1463,5.1463,5.1463,5.1463,5.1463,5.1292,5.1225,5.1225,5.1279,5.1297,5.1297,5.1304,5.1327,5.1327,5.1313,5.1344,5.1404,5.1406,5.0998,5.0355,5.0275,4.9305,4.7907,4.7611,4.6929,4.6146,4.6027,4.5847,4.5645,4.5541,4.5419,4.5297,4.5297,4.54,4.5507,4.558,4.5769,4.5959,4.6026,4.613,4.622,4.6245,4.624,4.624,4.6296,4.6277,4.6273,4.63,4.63,4.63,4.63,4.63,4.6066,4.5363,4.5098,4.446,4.3071,4.2738,4.2292,4.1422,4.1325,4.126,4.1091,4.0429,3.9653,3.8821,3.8733,3.8636,3.8411,3.8385,3.8326,3.8209,3.8154,3.8366,3.8847,3.8785,3.8874,3.9101,3.925,3.9124,2.9612,3.1391,3.332,3.5117,3.4938,3.6145,0.0,0.0,4.2135,4.5407,4.6917,4.7695,4.7816,4.8077,4.8329,4.8488,4.9156,4.9688,4.9761,5.052,5.0791,5.0076,5.0617,5.1084,5.1186,5.1201,5.1221,5.1288,5.1288,5.1288,5.1279,5.2025,5.244,5.244,5.244,5.244,5.244,5.1679,5.1288,5.1288,5.1293,5.1297,5.1297,5.1363,5.1386,5.1386,5.1398,5.1385,5.1398,5.1411,5.1336,5.1252,5.1179,5.049,4.9379,4.8015,4.687,4.6017,4.6007,4.5783,4.5524,4.5507,4.5419,4.5297,4.5297,4.54,4.549,4.5526,4.5669,4.5815,4.5832,4.5886,4.5969,4.6091,4.6041,4.6005,4.6245,4.6211,4.617,4.6273,4.63,4.63,4.63,4.63,4.6261,4.6163,4.5445,4.4846,4.4651,4.3941,4.3137,4.226,4.2182,4.1824,4.0993,4.0829,4.0684,4.0447,4.0312,4.0246,4.02,4.0091,4.0023,4.0024,3.9792,3.9707,3.974,3.9519,3.9308,3.912,3.9825,4.0004,3.5673,3.6841,3.755,0.0,4.0824,4.2117,4.5311,4.5544,4.5645,4.7506,4.8604,4.9204,4.9165,4.9552,4.9861,0.0,5.021,5.048,5.0581,5.048,5.0262,4.9973,4.9783,4.9915,5.0506,5.1015,5.1328,5.1363,5.1361,5.1552,5.2023,5.2394,5.2823,5.3331,5.335,5.335,5.335,5.249,5.2064,5.2045,5.1582,5.1366,5.1366,5.14,5.1396,5.1394,5.1402,5.1406,5.1391,5.14,5.1335,5.123,5.1181,5.0561,4.9497,4.8457,4.7453,4.6487,4.5916,4.5623,4.5491,4.5419,4.536,4.5297,4.5297,4.5339,4.5381,4.5438,4.556,4.5694,4.5736,4.5828,4.5919,4.5978,4.594,4.594,4.6144,4.6084,4.6013,4.617,4.6112,4.6064,4.6064,4.6068,4.606,4.606,4.5826,4.5454,4.4857,4.4467,4.3685,4.2218,4.2082,4.1712,4.0854,4.0776,4.0718,4.0588,4.0534,4.0389,4.0158,4.0099,3.9996,3.9848,3.9717,3.9599,3.9452,3.9791,3.9816,3.9582,4.0382,4.0964,3.903,0.0,0.0,4.3325,4.4958,4.623,4.6839,4.7453,4.8033,4.8643,4.9262,4.9707,4.9707,4.9977,5.0287,5.0538,5.0577,5.0693,5.1003,5.0306,4.9702,4.9543,4.8955,4.8779,4.9295,5.0321,5.1069,5.1335,5.1525,5.2021,5.289,5.3339,5.3984,5.4883,5.4687,5.4589,5.4644,5.3535,5.2869,5.2615,5.2033,5.1629,5.1394,5.1394,5.1386,5.1338,5.1338,5.131,5.1281,5.1273,5.1172,5.1017,5.1017,5.0516,4.9721,4.8991,4.7956,4.6851,4.6119,4.5685,4.5438,4.5339,4.5297,4.5297,4.5317,4.5317,4.5317,4.5379,4.5475,4.5558,4.5591,4.5728,4.5828,4.5863,4.5852,4.5863,4.6005,4.5949,4.5908,4.6013,4.5978,4.5899,4.5899,4.5897,4.5894,4.5883,4.5998,4.5827,4.5094,4.478,4.4122,4.2763,4.2402,4.2021,4.1382,4.1112,4.0921,4.0787,4.0578,4.0288,3.9914,3.9914,3.9762,3.9526,3.9652,3.9634,3.9435,4.0166,4.0413,4.0249,4.1056,4.1754,0.0,0.0,4.351,4.45,4.5379,4.6656,4.9115,4.9653,4.9629,4.9668,4.9687,4.9707,4.9707,4.903,4.8759,4.961,4.9745,5.0016,5.0809,5.021,4.9417,4.8638,4.8522,4.8227,4.7542,4.8914,5.0228,5.1145,5.1881,5.2716,5.3708,5.5178,5.645,5.7457,5.6678,5.6308,5.6513,5.481,5.3526,5.2706,5.2663,5.2214,5.1394,5.1394,5.1327,5.1203,5.1203,5.1123,5.1011,5.0953,5.0874,5.0811,5.082,5.0711,5.0471,4.9586,4.8239,4.6797,4.6778,4.611,4.5317,4.5297,4.5297,4.5317,4.5378,4.5338,4.5317,4.5379,4.54,4.5419,4.5419,4.5513,4.5635,4.5771,4.5696,4.5665,4.5856,4.5847,4.5815,4.5889,4.5899,4.5899,4.5899,4.5897,4.5883,4.582,4.5815,4.579,4.577,4.5034,4.4485,4.4427,4.3659,4.3086,4.2931,4.2162,4.1615,4.1476,4.0731,4.0176,3.9914,3.9914,3.9762,3.9526,4.001,4.0271,4.0271,4.0812,4.1075,4.1093,4.1901,4.2286,4.0662,0.0,4.507,4.5385,4.687,4.848,4.9329,4.9449,4.9566,5.0235,4.8948,4.791,4.8574,4.7925,4.7527,4.8374,4.899,4.9644,5.0452,4.9875,4.9048,4.8182,4.8084,4.795,4.7568,4.8418,4.9372,5.0265,5.1014,5.2352,5.4419,5.5527,5.6796,5.8285,5.8052,5.792,5.7984,5.626,5.5249,5.4937,5.3234,5.1969,5.1141,5.1141,5.1123,5.1063,5.1061,5.1016,5.094,5.086,5.0755,5.0678,5.068,5.0567,5.0358,4.9811,4.8938,4.7857,4.6925,4.6392,4.6003,4.5468,4.5297,4.5297,4.5317,4.5317,4.5297,4.5317,4.5379,4.54,4.54,4.5476,4.5568,4.5635,4.5601,4.5582,4.5789,4.5703,4.5645,4.5802,4.5761,4.5688,4.5638,4.5591,4.556,4.5473,4.5541,4.5607,4.5607,4.5278,4.4823,4.4229,4.3903,4.3501,4.291,4.2391,4.2098,4.2031,4.1604,4.1237,4.0959,4.0959,4.084,4.0559,4.0745,4.083,4.083,4.153,4.1901,4.1919,4.2708,4.3094,4.3308,4.5143,4.6349,4.7243,4.8603,4.976,4.9798,4.9489,4.9295,4.9625,4.7626,4.6186,4.7432,4.6052,4.5438,4.7547,4.8024,4.8673,5.0193,4.9652,4.8903,4.8429,4.8477,4.856,4.8491,4.8817,4.932,5.0028,5.1421,5.3126,5.5137,5.6575,5.7993,5.9471,5.9219,5.9095,5.9152,5.7735,5.657,5.5637,5.3385,5.1831,5.1008,5.1008,5.0972,5.094,5.0932,5.079,5.0546,5.049,5.0333,5.0145,5.0145,5.0068,4.9929,4.9702,4.9278,4.8644,4.7163,4.6434,4.6055,4.5242,4.4976,4.4976,4.5,4.5,4.4976,4.5,4.5065,4.5068,4.5074,4.5118,4.5182,4.5243,4.5222,4.5204,4.5342,4.5285,4.5223,4.5361,4.5304,4.5243,4.5201,4.5118,4.5052,4.5,4.5055,4.5185,4.54,4.5361,4.5086,4.4532,4.4353,4.4081,4.3566,4.2943,4.2586,4.2586,4.2145,4.18,4.1505,4.1505,4.1373,4.1111,4.1387,4.1534,4.1534,4.2134,4.2448,4.2466,4.2741,4.2885,4.5484,4.6342,4.749,4.9812,5.0363,5.0344,5.0404,4.9676,4.8736,4.7854,4.5669,4.4365,4.5917,4.3385,4.2502,4.6872,4.68,4.7152,4.9934,4.9557,4.9095,0.0,0.0,0.0,0.0,0.0,5.0203,5.0584,5.295,5.4861,5.5902,5.8173,5.9906,6.0906,6.0133,5.98,5.9983,5.909,5.7383,5.4879,5.3133,5.1852,5.0998,5.0959,5.0845,5.0733,5.0733,5.041,4.9865,4.9865,4.9655,4.9283,4.9283,4.9283,4.9302,4.9283,4.9252,4.9027,4.7414,4.6325,4.5519,4.4684,4.4383,4.4411,4.4465,4.4438,4.4411,4.4465,4.4493,4.4493,4.4493,4.4546,4.4599,4.458,4.4599,4.4599,4.458,4.458,4.458,4.4606,4.4624,4.4606,4.458,4.4527,4.4465,4.4411,4.4383,4.4617,4.5173,4.5256,4.5256,4.5256,4.4957,4.4776,4.4776,4.3759,4.3146,4.3146,4.2406,4.1857,4.1605,4.1605,4.1471,4.1207,4.1941,4.2326,4.2292,4.2539,4.2655,4.2655,4.208,4.181,4.6008,4.7601,4.8932,5.0097,4.9835,4.9285,4.9308,4.759,4.5745,4.4874,4.212,3.9813,3.9513,3.9548,4.0408,4.2731,4.4936,0.0,4.8808,5.0134,0.0,4.994,0.0,5.286,5.2175,5.2824,0.0,5.3301,5.2968,5.3998,5.6793,5.8101,5.9177,6.0084,5.9893,5.9789,5.9854,5.8383,5.6683,5.4728,5.2978,5.1738,5.0918,5.0201,4.986,4.9841,4.977,4.9654,4.9522,4.9464,4.9375,4.9283,4.9283,4.9283,4.9252,4.9015,4.8934,4.8658,4.6789,4.635,4.6336,4.4871,4.4383,4.4383,4.4411,4.4411,4.4383,4.4411,4.443,4.4438,4.4493,4.4519,4.4546,4.4599,4.4553,4.4546,4.458,4.4599,4.4599,4.465,4.4676,4.465,4.4599,4.4546,4.4465,4.4411,4.4383,4.4457,4.4617,4.4617,4.4617,4.4617,4.4546,4.4493,4.4493,4.4044,4.3774,4.3774,4.3341,4.3037,4.299,4.299,4.2821,4.2432,4.2632,4.2519,4.2078,4.2154,4.2121,4.2038,4.1853,4.181,4.7319,4.8987,5.0237,5.0178,4.9758,4.8726,4.6453,4.4757,4.2994,4.0585,3.8216,3.6452,3.5953,3.664,3.8118,0.0,0.0,0.0,4.7805,4.986,5.1009,0.0,5.2919,0.0,5.401,5.4443,5.5057,5.5699,5.4894,5.5231,5.7137,5.8407,5.9298,5.9772,5.9791,5.9791,5.9791,5.8072,5.6336,5.4652,5.2878,5.1431,5.0279,4.973,4.9475,4.9445,4.9435,4.9314,4.9126,4.9113,4.8982,4.8847,4.8637,4.8547,4.8512,4.8121,4.7983,4.7706,4.5903,4.5533,4.5655,4.44,4.3881,4.3735,4.3735,4.3601,4.3431,4.3431,4.3431,4.3431,4.348,4.348,4.3513,4.3527,4.3513,4.3513,4.3527,4.3545,4.3578,4.3592,4.3592,4.3592,4.3545,4.3513,4.348,4.3431,4.3431,4.3431,4.3431,4.4009,4.4308,4.4119,4.399,4.3819,4.3638,4.3348,4.3212,4.3212,4.3014,4.2921,4.2921,4.2921,4.2808,4.2595,4.2537,4.2342,4.1979,4.1664,4.149,4.1402,4.115,4.1076,4.8914,5.0159,5.1021,5.0201,4.9654,4.8075,4.3163,4.1675,4.0159,3.5912,0.0,3.358,3.3473,3.4016,3.5634,3.9219,0.0,4.4046,4.6744,4.9136,5.0732,5.0977,5.3548,5.5386,5.566,5.5542,5.6022,5.7492,5.7393,5.7261,5.7261,5.8691,5.9518,5.9571,5.9499,5.9465,5.9518,5.7567,5.586,5.4378,5.2451,5.0735,4.9346,4.9202,4.9115,4.907,4.907,4.8859,4.8531,4.8531,4.8384,4.8075,4.7692,4.7506,4.7464,4.7044,4.6837,4.6534,4.5017,4.4428,4.4235,4.356,4.3105,4.2806,4.2806,4.2498,4.2198,4.2198,4.2198,4.2198,4.2198,4.2198,4.2198,4.2198,4.2198,4.2198,4.2198,4.2198,4.2239,4.2239,4.2239,4.2239,4.2239,4.2198,4.2198,4.2198,4.2198,4.2198,4.2198,4.333,4.3942,4.355,4.3293,4.2996,4.2591,4.2329,4.2198,4.2198,4.2198,4.2198,4.2157,4.2157,4.2157,4.2074,4.1955,4.1853,4.1768,4.115,4.078,4.0668,4.0286,4.007,4.958,5.0111,5.0274,5.0512,4.8464,4.5585,4.2408,3.9544,0.0,0.0,3.0941,2.9614,2.8694,3.0257,3.2803,3.6197,3.9121,4.2062,4.5272,4.8312,5.0707,0.0,5.4565,5.6434,5.7156,5.7163,5.7291,5.7583,5.7574,5.7528,5.7528,5.7849,5.8113,5.8375,5.7877,5.7721,5.8076,5.524,5.3654,5.3299,5.0341,4.8792,4.8484,4.7723,4.7349,4.7349,4.7349,4.7281,4.723,4.723,4.7204,4.7115,4.7026,4.7044,4.6981,4.6954,4.648,4.5766,4.4821,4.4071,4.3435,4.2705,4.2378,4.2338,4.2338,4.2239,4.2198,4.2198,4.2198,4.2198,4.2198,4.2198,4.2198,4.2198,4.2198,4.2198,4.2198,4.2262,4.2324,4.2404,4.2462,4.2404,4.2306,4.2266,4.2244,4.2198,4.2198,4.2198,4.2198,4.2404,4.2544,4.2447,4.2444,4.2382,4.2284,4.2221,4.2198,4.2198,4.2198,4.2139,4.2038,4.2038,4.181,4.1303,4.1258,4.1047,4.0597,4.0468,4.0087,3.9489,3.9901,3.985,4.8249,4.8636,4.8732,4.8509,4.6931,4.4162,3.9286,0.0,0.0,0.0,2.7483,2.6765,2.5227,2.7736,0.0,3.2755,3.5794,3.9185,4.2917,4.5975,4.8631,5.0838,5.3282,5.5058,5.5857,5.5928,5.6057,5.6438,5.6438,5.6775,5.7534,5.7601,5.7565,5.7558,5.7449,5.7401,5.7413,5.4641,5.3039,5.2606,4.9636,4.7974,4.7581,4.7132,4.6908,4.6908,4.6908,4.6908,4.6908,4.6908,4.6908,4.6863,4.6631,4.6554,4.6489,4.6217,4.5611,4.4869,4.4097,4.3325,4.2552,4.1797,4.1666,4.1821,4.1821,4.1709,4.1507,4.1507,4.1507,4.1507,4.1507,4.1507,4.1507,4.1507,4.1356,4.1139,4.092,4.0886,4.0897,4.1007,4.1007,4.0961,4.0915,4.0897,4.0868,4.0856,4.0856,4.0856,4.0856,4.0856,4.1087,4.176,4.1821,4.1735,4.1552,4.1507,4.1445,4.1202,4.1202,4.1157,4.103,4.0716,4.046,4.0317,3.9935,3.9595,3.9348,3.9295,3.9065,3.8739,3.9011,3.9011,4.6649,4.7074,4.7248,4.6479,4.5296,4.2643,3.6245,3.4095,0.0,0.0,2.4653,2.4584,2.3284,2.5762,2.8511,0.0,3.2949,3.6369,4.0508,4.3498,4.6395,0.0,5.1501,0.0,5.4287,5.4391,5.4641,5.5147,5.5207,5.583,5.7289,5.7338,5.727,5.7083,5.7152,5.7011,5.6642,5.4062,5.2315,5.1428,4.8781,4.7216,4.6584,4.6584,4.6584,4.6584,4.6584,4.6584,4.6584,4.6472,4.6406,4.6358,4.5885,4.5751,4.5683,4.5094,4.4403,4.3631,4.2962,4.214,4.1386,4.0803,4.0913,4.1265,4.1265,4.096,4.0614,4.0614,4.0614,4.0614,4.0614,4.0614,4.0614,4.0614,4.037,4.007,3.9662,3.961,3.961,3.961,3.961,3.961,3.961,3.961,3.9542,3.942,3.9368,3.9299,3.9176,3.9299,3.9681,4.0487,4.0903,4.0926,4.0566,4.0517,4.0353,4.0003,3.9952,3.9901,3.9747,3.9295,3.9135,3.9332,3.8723,3.8446,3.8446,3.8334,3.8222,3.8124,3.8222,3.8238,4.5955,4.6452,4.6438,4.6024,4.3689,4.0198,3.5285,0.0,0.0,2.475,2.3415,2.3128,2.3684,2.4164,2.5715,0.0,0.0,3.4423,3.878,4.2072,4.5204,4.8598,0.0,0.0,5.4184,5.4391,5.4454,5.4516,5.4516,5.5069,5.6437,5.6492,5.6635,5.6984,5.6402,5.5753,5.5134,5.2179,5.014,4.908,4.6757,4.5632,4.5511,4.5511,4.5511,4.5511,4.5511,4.5511,4.5511,4.5089,4.491,4.4855,4.4412,4.4186,4.4102,4.3446,4.2723,4.1913,4.1261,4.0505,3.9798,3.9731,4.0037,4.0436,4.0436,4.0104,3.9714,3.9714,3.9714,3.9714,3.9714,3.9714,3.9714,3.9714,3.9714,3.9662,3.961,3.961,3.961,3.961,3.961,3.961,3.961,3.961,3.9404,3.8788,3.8679,3.8443,3.7719,3.8261,3.8411,3.7591,3.8846,3.9645,3.9365,3.9365,3.9226,3.8854,3.8854,3.8816,3.8668,3.8613,3.8502,3.8446,3.8334,3.8334,3.8334,3.8294,3.801,3.7519,3.8067,3.801,4.3183,4.3869,4.4071,4.3958,4.2066,3.9032,3.4278,0.0,2.8056,2.3755,2.2627,2.247,2.2609,2.3147,2.4428,0.0,2.8186,3.035,3.5009,3.7279,4.0255,4.5122,4.7376,4.9573,5.2253,5.2943,5.3382,5.3764,5.42,5.4579,5.4991,5.5129,5.5112,5.4939,5.4443,5.3653,5.2675,5.0135,4.8442,4.7592,4.5518,4.4558,4.4558,4.4558,4.4558,4.4558,4.4558,4.4558,4.4558,4.4373,4.4259,4.4243,4.4071,4.403,4.3946,4.3266,4.2512,4.1686,4.1037,4.0247,3.961,3.961,3.9575,3.9556,3.9799,3.9782,3.961,3.961,3.961,3.961,3.961,3.961,3.9558,3.9312,3.9259,3.9044,3.8407,3.8294,3.8092,3.7626,3.7494,3.7435,3.7345,3.7286,3.7227,3.6974,3.6914,3.6794,3.6491,3.6734,3.6779,3.6338,3.785,3.8625,3.8004,3.8205,3.8109,3.7404,3.7684,3.7626,3.72,3.6812,3.6691,3.6796,3.6446,3.6276,3.6276,3.6276,3.6104,3.5897,3.6166,3.6104,3.9932,4.1245,4.202,4.1769,4.0199,3.7458,0.0,2.9817,2.6893,2.2718,2.189,2.1878,2.1811,2.2375,2.3399,0.0,2.6099,2.8115,3.2428,3.4397,3.7153,4.2014,0.0,4.6761,4.9681,5.1158,5.2252,5.2939,5.3432,5.3364,5.2758,5.2876,5.3092,5.3307,5.2877,5.1959,5.0566,4.8531,4.7115,4.6287,4.4733,4.403,4.403,4.403,4.3898,4.3689,4.3898,4.3898,4.3689,4.3781,4.3781,4.3798,4.3621,4.3562,4.3505,4.256,4.192,4.1282,4.0425,3.9582,3.8941,3.8941,3.8613,3.8294,3.858,3.8941,3.9259,3.9259,3.9119,3.8941,3.8941,3.8816,3.858,3.8222,3.8181,3.801,3.7115,3.6951,3.6814,3.6151,3.6026,3.5948,3.5806,3.5806,3.5743,3.5582,3.5518,3.5454,3.5195,3.5389,3.5389,3.5065,3.6369,3.7062,3.6611,3.6943,3.6854,3.609,3.6369,3.6384,3.5932,3.5484,3.5305,3.5518,3.5124,3.4876,3.4876,3.4876,3.4876,3.4876,3.481,3.4595,3.652,3.8925,4.0618,3.9838,3.7925,3.51,3.0738,2.736,2.4365,2.1681,2.1102,2.1228,2.1721,2.1738,2.2403,2.456,2.6432,2.8707,3.1933,3.4755,3.7434,0.0,4.1633,4.3657,4.6488,4.9199,5.1194,5.203,5.1941,5.1141,4.962,4.9588,5.0517,5.2665,5.2027,5.0827,4.904,4.753,4.627,4.5228,4.4398,4.403,4.403,4.403,4.3614,4.2916,4.3672,4.3614,4.2933,4.3213,4.3306,4.3246,4.2805,4.2634,4.2456,4.1031,4.0496,4.0286,3.8893,3.7976,3.7401,3.7401,3.6966,3.6446,3.643,3.7385,3.8391,3.8391,3.7902,3.7401,3.7401,3.6951,3.6368,3.6166,3.6291,3.6306,3.5885,3.5948,3.6026,3.5806,3.5806,3.5806,3.5806,3.5806,3.5567,3.5008,3.4876,3.4624,3.373,3.437,3.4491,3.3452,3.407,3.4861,3.5385,3.54,3.527,3.4942,3.4942,3.4942,3.4942,3.4876,3.4876,3.4876,3.4876,3.4876,3.4876,3.4876,3.4876,3.4876,3.4514,3.3837,3.1475,3.3225,3.4391,3.3699,3.231,3.032,2.7549,2.5419,2.3487,2.1439,2.1023,2.1086,2.1229,2.1245,2.2264,2.54,0.0,0.0,3.1798,3.3909,0.0,3.823,4.2349,4.5707,4.7545,4.889,4.9568,4.9435,4.9419,4.8871,4.776,4.7305,4.7399,4.8111,4.7435,4.625,4.4649,4.3655,4.2776,4.191,4.1688,4.1512,4.1512,4.1512,4.1446,4.1233,4.1446,4.1446,4.1166,4.1264,4.133,4.1264,4.1013,4.0732,4.0297,3.9085,3.8463,3.8107,3.6971,3.6461,3.6338,3.6338,3.6136,3.6011,3.6011,3.6477,3.7011,3.6859,3.6676,3.6492,3.6338,3.6151,3.5948,3.5885,3.5948,3.5837,3.529,3.4787,3.4292,3.3628,3.3045,3.2609,3.2467,3.2467,3.2409,3.2164,3.2177,3.2046,3.1796,3.1974,3.2046,3.1723,3.1901,3.2393,3.3115,3.3973,3.3822,3.2249,3.3031,3.3394,3.2989,3.2989,3.3227,3.377,3.377,3.3687,3.3381,3.3381,3.3241,3.2946,3.2889,3.2533,0.0,2.9191,3.0393,2.9669,2.8679,2.7243,2.507,2.3481,2.2121,2.0811,2.0516,2.055,2.0764,2.0764,2.165,2.4426,2.5274,0.0,0.0,0.0,0.0,3.7417,4.1454,4.4642,4.6062,4.7183,4.7769,4.7731,4.7419,4.6764,4.5679,4.5003,4.4266,4.3472,4.3802,4.3406,4.2237,4.1472,4.0832,4.0416,4.0416,4.0416,4.0416,4.0416,4.0209,3.9914,4.0193,4.0054,0.0,4.0054,4.0193,4.0124,4.0039,3.9711,3.9189,3.8187,3.7466,3.6957,3.6113,3.5631,3.5454,3.5454,3.505,3.464,3.464,3.5374,3.6166,3.6026,3.5837,3.5597,3.5469,3.505,3.464,3.4559,3.433,3.4062,3.3504,3.3087,3.2579,3.1974,3.1402,3.1031,3.0895,3.0895,3.0895,3.0895,3.0895,3.0895,3.0895,3.0895,3.0895,3.0895,3.0895,3.097,3.1193,3.2263,3.2335,3.0957,3.1669,3.1974,3.1636,3.1636,3.1869,3.2259,3.2273,3.2101,3.1783,3.1783,3.1576,3.122,3.122,3.0996,0.0,2.6221,2.7802,2.7058,2.6389,2.5368,2.3136,2.1519,0.0,1.9888,1.9666,1.9818,2.0497,2.0469,2.0864,2.2562,2.3825,0.0,0.0,3.1382,3.3964,3.7403,3.9458,4.118,4.272,4.4386,4.5703,4.6391,4.5773,4.4771,4.3259,4.2506,4.1288,3.9233,4.1158,4.193,4.13,4.06,4.0209,4.0209,4.0209,4.0209,4.0209,4.0209,3.9718,3.8928,3.9617,3.9418,3.8649,3.9346,3.9632,3.9632,3.9617,3.9264,3.8553,3.7835,3.7141,3.6446,3.5683,3.505,3.4595,3.4595,3.3713,3.2547,3.2547,3.3916,3.5473,3.5473,3.5065,3.4662,3.4595,3.3575,3.2547,3.2376,3.1842,3.1315,3.0957,3.1031,3.1031,3.082,3.0745,3.0745,3.0745,3.0745,3.0745,3.0745,3.0745,3.0745,3.0745,3.0745,3.067,3.067,3.067,3.0367,2.9626,3.0367,3.082,3.0745,3.0745,3.0807,3.0807,3.082,3.0745,3.0607,3.0532,3.0443,3.0279,3.0203,3.0063,2.9626,2.9626,2.9471,1.7921,0.0,2.0961,2.0876,2.1114,2.107,0.0,1.986,1.9909,0.0,0.0,1.9975,2.165,2.1135,2.1949,2.6468,2.7452,2.8799,3.2013,3.4121,3.6186,3.859,3.9648,4.0573,4.1469,4.2401,4.2775,4.2474,4.2311,4.1783,4.0885,4.0271,3.9726,3.9218,3.8553,3.8507,3.8988,3.8841,3.8694,3.8694,3.8546,3.8486,3.8486,3.8323,3.8098,3.7962,3.8098,3.8023,3.7901,3.8037,3.8098,3.8098,3.7947,3.7329,3.6302,3.5317,3.4251,3.334,3.2393,3.1933,3.1815,3.1815,3.1623,3.1341,3.1341,3.1874,3.2481,3.2338,3.215,3.2033,3.1888,3.1609,3.1341,3.1254,3.1106,3.1031,3.0895,3.0443,3.0075,2.9999,2.9484,2.9028,2.9028,2.9028,2.9028,2.9028,2.9028,2.9028,2.8858,2.8858,2.8779,2.8645,2.8645,2.8498,2.8339,2.9922,3.0367,2.9106,2.9459,2.9743,2.9743,2.9601,2.9756,3.0355,3.0075,2.9858,2.9845,2.9537,2.9303,2.9238,2.9238,2.916,1.5101,1.6995,1.8765,1.8976,1.9456,1.9809,1.962,0.0,0.0,0.0,0.0,1.9508,2.1006,2.0849,2.1902,0.0,2.6934,2.8426,3.2599,3.4927,3.6846,3.8507,3.9305,3.9828,4.0191,4.08,4.1033,4.067,4.0379,3.9809,3.8916,3.8332,3.777,3.727,3.646,3.6517,3.7567,3.7155,3.6908,3.683,3.6702,3.6545,3.6545,3.6466,3.6373,3.6201,3.6201,3.6201,3.6122,3.6122,3.6122,3.6042,3.5963,3.5223,3.4231,3.3557,3.2653,3.1623,3.1106,3.0895,3.0895,3.0895,3.067,3.0367,3.0367,3.0215,3.0291,3.0882,3.1031,3.1031,3.097,3.0594,3.0367,3.0367,3.0075,2.9781,2.9781,2.9394,2.9015,2.9015,2.8566,2.8203,2.8203,2.8203,2.8203,2.8203,2.8203,2.8203,2.8111,2.803,2.803,2.7893,2.7893,2.7893,2.7893,2.8505,2.873,2.8271,2.8566,2.87,2.87,2.8633,2.87,2.8978,2.8688,2.8542,2.8542,2.8315,2.8235,2.8235,2.7971,2.7891,1.4085,1.6546,1.8818,1.8975,1.9544,2.0138,2.0302,0.0,0.0,0.0,0.0,0.0,0.0,2.0757,0.0,0.0,0.0,2.7581,3.2288,3.4723,3.6415,3.7577,3.8299,3.8644,3.8644,3.9089,3.9377,3.9298,3.8839,3.8132,3.7174,3.6636,3.5963,3.5061,3.4897,3.5305,3.636,3.5628,3.5224,3.5224,3.5061,3.4979,3.4979,3.4897,3.4802,3.4541,3.4541,0.0,3.4306,3.4306,3.4306,3.4306,3.4306,3.36,3.2594,3.2436,3.172,3.067,3.0594,3.0519,3.0519,3.0519,3.0075,2.9561,2.9561,2.9028,2.8724,3.0063,3.0519,3.0519,3.0519,2.9999,2.9471,2.9394,2.887,2.8431,2.8431,2.8271,2.8179,2.8179,2.803,2.7893,2.7893,2.78,2.7708,2.7708,2.7534,2.7452,2.7452,2.7452,2.7371,2.7371,2.7383,2.7383,2.7383,2.667,2.6494,2.729,2.7371,2.7371,2.7371,2.7383,2.7278,2.701,2.6869,2.6798,2.6798,2.6715,2.6798,2.6891,2.6445,2.6268,1.4912,1.6771,1.81,1.7716,1.9363,2.0806,0.0,0.0,0.0,0.0,0.0,0.0,0.0,2.33,2.4531,0.0,0.0,3.1083,3.2939,3.3981,3.4906,3.5614,3.6031,3.6086,3.5925,3.6007,3.5981,3.5818,3.5737,3.5602,3.5358,3.5277,3.5142,3.4992,3.4236,3.3998,3.4152,3.4733,3.5061,3.5061,3.4802,3.4624,3.4624,3.4472,3.4376,3.4389,3.4389,3.4306,3.4306,3.4306,3.4306,3.4306,3.4306,3.36,3.2528,3.1809,3.0871,2.9781,2.9106,2.8882,2.8882,2.8882,2.8803,2.8657,2.8657,2.8498,2.8339,2.8554,2.8724,2.8803,2.8633,2.8554,2.8407,2.8191,2.8122,2.7962,2.7962,2.7962,2.7962,2.7962,2.7881,2.7893,2.7893,2.7267,2.6741,2.6741,2.6058,2.5473,2.5305,2.5305,2.5221,2.4999,2.4999,2.4999,2.4999,2.4914,2.4829,2.5009,2.5147,2.5231,2.5009,2.4999,2.4999,2.4999,2.4914,2.4925,2.4925,2.4648,2.4914,2.5538,2.5231,2.5411,1.3123,1.5121,1.6916,1.669,1.9278,2.1756,2.1439,0.0,0.0,0.0,0.0,0.0,0.0,0.0,2.5575,2.7571,0.0,3.1963,3.2345,3.3384,3.438,3.5075,3.5224,3.5224,3.5142,3.5142,3.5061,3.4979,3.4979,3.4733,3.4139,3.4056,3.3817,3.325,3.2834,3.2587,3.2587,3.3006,3.325,3.3348,3.3152,3.3066,3.3066,3.2895,3.2907,3.2907,0.0,3.2907,3.2907,3.2907,3.2821,3.2611,3.2411,3.1717,3.077,2.9809,2.9137,2.8645,2.8271,2.8203,2.8203,2.8203,2.8203,2.8203,2.8203,2.8111,2.803,2.803,2.8111,2.8111,2.803,2.803,2.8042,2.7881,2.7893,2.78,2.7267,2.7033,2.6857,2.6329,2.6174,2.6019,2.6019,2.5673,2.5411,2.5411,2.5062,2.4723,2.4638,2.4648,2.4563,2.4498,2.4498,2.4498,2.4498,2.4059,2.3973,2.4498,2.4563,2.4563,2.4498,2.4498,2.4498,2.4498,2.4498,2.4413,2.4317,2.4135,2.4211,2.4467,2.4039,2.4039,1.1921,1.387,1.5816,1.6357,0.0,2.1898,2.2716,0.0,0.0,0.0,0.0,0.0,0.0,2.5427,0.0,2.8237,3.0305,3.1669,3.1329,3.2525,3.3571,3.4254,3.4332,3.4332,3.4332,3.4332,3.4249,3.4236,3.4236,3.3817,3.298,3.2895,3.2575,3.1749,3.1661,3.1661,3.1572,3.1383,3.1472,3.195,3.1749,3.1661,3.1572,3.1572,3.1584,3.1584,3.1584,3.1412,3.138,3.138,3.1133,3.0814,3.0423,2.9863,2.9115,2.8222,2.7893,2.7893,2.7893,2.7893,2.7893,2.7893,2.7893,2.7893,2.7893,2.7881,2.78,2.7545,2.7464,2.7452,2.7708,2.7626,2.7464,2.7452,2.729,2.6951,2.6163,2.5913,2.5589,2.4893,2.4648,2.4498,2.4498,2.4317,2.4145,2.4145,2.3983,2.381,2.381,2.381,2.381,2.381,2.381,2.3714,2.3714,2.3008,2.2921,2.3617,2.3714,2.38,2.38,2.3714,2.3704,2.3704,2.3704,2.3617,2.3347,2.3347,2.3347,2.3327,2.2911,2.2746,1.3337,1.4283,1.5221,1.712,0.0,0.0,2.2232,0.0,0.0,0.0,0.0,0.0,0.0,2.6974,2.8739,3.0394,3.0663,3.0561,3.024,3.0943,3.1639,3.2127,3.2463,3.2463,3.2288,3.2201,3.2101,3.1913,3.1913,3.1913,3.1837,3.1837,3.1749,3.1661,3.1661,3.1572,3.1306,3.0374,3.0554,3.1749,3.1673,3.1572,3.1306,3.1306,3.1229,3.1074,3.1074,3.0779,3.0307,3.0307,3.0024,2.9503,2.9468,2.915,2.8645,2.8092,2.7893,2.7893,2.7893,2.7893,2.7893,2.7893,2.7893,2.7893,2.7893,2.7708,2.7348,2.6528,2.6174,2.6163,2.7267,2.694,2.6268,2.5997,2.5326,2.4754,2.4659,2.4659,2.4573,2.4488,2.4498,2.4498,2.4498,2.379,2.3183,2.3183,2.2422,2.1909,2.1909,2.1909,2.1909,2.1909,2.1741,2.1553,2.1257,2.1168,2.1168,2.1257,2.1463,2.1651,2.1651,2.1356,2.1257,2.1257,2.1257,2.1257,2.1257,2.1006,2.1266,2.1872,2.1615,2.1882,1.1699,1.3258,1.4903,1.5687,0.0,0.0,0.0,0.0,0.0,0.0,0.0,0.0,0.0,0.0,2.8437,2.991,2.9945,2.976,2.9651,3.0133,3.0628,3.0748,3.0943,3.0955,3.0858,3.0858,3.0772,3.0687,3.0687,3.0687,3.0687,3.0687,3.0687,3.0527,2.9961,2.9514,2.9351,2.8333,2.8132,2.8588,2.888,2.878,2.8411,2.8411,2.8411,2.8333,2.8333,2.8221,2.8043,2.8043,2.7844,2.7393,2.7009,2.6529,2.6103,2.5833,2.5768,2.5768,2.5768,2.5768,2.5768,2.5768,2.5768,2.5768,2.5768,2.5673,2.5589,2.5253,2.5084,2.5084,2.5505,2.5421,2.5094,2.4999,2.4744,2.4317,2.3521,2.3347,2.3183,2.2482,2.2306,2.2306,2.2306,2.2041,2.1784,2.1784,2.1526,2.1275,2.1275,2.1275,2.1275,2.1275,2.1186,2.1096,2.0997,2.0997,2.0997,2.0997,2.1096,2.1186,2.1186,2.1087,2.0997,2.0997,2.0997,2.0907,2.0826,2.0744,2.0736,2.0817,2.0736,2.0727,1.1004,1.2629,1.4376,0.0,0.0,0.0,0.0,0.0,0.0,0.0,2.8285,0.0,0.0,0.0,0.0,2.9514,2.9334,2.9112,2.928,2.9605,2.9893,3.0062,3.0086,3.0086,3.0086,3.0086,3.0086,3.0013,3.0013,3.0001,2.9917,2.9652,2.9397,2.9238,2.8309,2.7776,2.7536,2.6608,2.5988,2.5774,2.5715,2.6038,2.6598,2.6598,2.6519,2.6519,2.6519,2.6345,2.6207,2.6207,2.6045,2.5721,2.5145,2.4757,2.4498,2.4498,2.4498,2.4498,2.4402,2.4402,2.4317,2.4307,2.4307,2.4307,2.4307,2.4307,2.4221,2.3887,2.38,2.38,2.3444,2.3704,2.3887,2.3887,2.3617,2.3183,2.2306,2.2129,2.1952,2.1168,2.0997,2.0997,2.0997,2.0997,2.0997,2.0997,2.0997,2.0997,2.0997,2.0997,2.0997,2.0907,2.0727,2.0727,2.0727,2.0456,2.0365,2.0546,2.0365,2.0456,2.0907,2.0817,2.0826,2.0826,2.0826,2.0736,2.0564,2.0374,2.0292,2.0102,1.9928,1.9646,1.1885,1.265,1.3693,0.0,0.0,0.0,0.0,0.0,0.0,0.0,0.0,2.8886,2.9324,2.9234,0.0,2.9592,2.9028,2.8691,2.922,2.9292,2.9484,3.0013,3.0074,3.0074,3.0074,3.0074,2.999,2.976,2.9772,2.9664,2.9374,2.8505,2.806,2.806,2.714,2.6509,2.6251,2.525,2.4505,2.3859,2.2775,2.3683,2.6251,2.6251,2.6162,2.5982,2.5982,2.5633,2.514,2.514,2.4881,2.4498,2.4498,2.4498,2.4498,2.4498,2.4498,2.4413,2.4135,2.4049,2.4039,2.3846,2.375,2.375,2.375,2.375,2.3587,2.2648,2.2394,2.2129,2.1257,2.1863,2.2648,2.2394,2.1695,2.0997,2.0997,2.0997,2.0997,2.0988,2.0997,2.0997,2.0988,2.0997,2.0997,2.0997,2.0997,2.0997,2.0997,2.0997,2.0907,2.0736,2.0201,2.0019,2.0292,1.9371,1.9012,1.9546,1.9096,1.9371,2.0654,2.0473,2.0292,2.0292,2.0292,2.0292,2.0292,1.9828,1.9546,1.9546,1.9012,1.8827,1.154,1.3207,0.0,0.0,0.0,0.0,0.0,0.0,0.0,0.0,2.8692,2.8984,2.8905,2.8578,0.0,2.9188,2.8566,2.8089,2.8255,2.836,2.8407,2.8561,2.8585,2.8585,2.8585,2.8585,2.8234,2.7527,2.7444,2.7182,2.6392,2.6149,2.5894,2.5808,2.485,2.4152,2.3801,2.2862,2.2187,2.1887,2.1527,2.1951,2.3041,2.3041,2.3041,2.2961,2.2792,2.2636,2.2523,2.2316,2.2152,2.205,2.205,2.205,2.205,2.205,2.205,2.2041,2.1952,2.1952,2.1952,2.1863,2.1863,2.1863,2.1863,2.1863,2.1774,2.1516,2.1436,2.1347,2.0916,2.0727,2.0808,2.1347,2.1168,2.0997,2.0826,2.0826,2.0736,2.0555,2.0283,2.0093,2.0464,1.992,1.9546,2.0002,1.9729,1.9455,1.9455,1.9455,1.9463,1.9371,1.9196,1.9196,1.9196,1.9012,1.8827,1.9012,1.892,1.9012,1.9379,1.9288,1.9279,1.9279,1.9279,1.9279,1.9279,1.9104,1.9004,1.9004,1.8827,1.8643,1.2493,0.0,0.0,0.0,0.0,0.0,2.4301,0.0,0.0,0.0,2.8294,2.8499,2.8311,2.8124,2.8155,2.8518,2.8191,2.7893,2.7893,2.7893,2.7893,2.7893,2.7893,2.7893,2.7893,2.7534,2.7103,2.6412,2.6069,2.5557,2.4882,2.4447,2.4094,2.3932,2.2989,2.2296,2.2041,2.1544,2.1195,2.0997,2.0997,2.1177,2.1454,2.1454,2.1454,2.1454,2.1284,2.1203,2.1195,2.1087,2.0997,2.0997,2.0997,2.0907,2.0736,2.0907,2.0718,2.0447,2.0546,2.0456,2.0275,2.0184,2.0093,2.0093,2.0093,2.0093,2.0093,2.0093,2.0093,2.0093,2.0011,1.9745,1.9654,2.0275,2.0275,2.0093,2.0011,1.9928,1.992,1.9745,1.9471,1.9371,1.9654,1.9196,1.892,1.9188,1.9012,1.8827,1.8827,1.8827,1.8827,1.8827,1.8643,1.8643,1.8735,1.8164,1.7885,1.8064,1.7885,1.7792,1.7792,1.845,1.8827,1.8827,1.8827,1.8827,1.8827,1.8643,1.855,1.855,1.8265,1.8079,1.4073,0.0,0.0,0.0,0.0,0.0,2.652,2.7185,2.7149,2.7231,0.0,2.7615,2.751,2.7739,2.7975,2.7879,2.7812,2.7812,2.7812,2.78,2.7719,2.7812,2.7719,2.7626,2.7708,2.6846,2.6235,2.5924,2.5052,2.4457,2.4231,2.3173,2.2561,2.2561,2.1516,2.0997,2.0997,2.0997,2.0898,2.0808,2.0808,2.0718,2.0709,2.0898,2.0997,2.0997,2.0907,2.0907,2.0907,2.0817,2.0817,2.0817,2.0817,2.0555,2.0201,2.0637,2.0266,1.9446,1.9745,1.9563,1.9096,1.892,1.8827,1.8827,1.8827,1.8827,1.8827,1.8827,1.8827,1.8827,1.8827,1.8735,1.8827,1.9371,1.9096,1.8827,1.8827,1.8827,1.8827,1.8827,1.8735,1.8735,1.8827,1.8735,1.8635,1.8635,1.8635,1.8635,1.8635,1.8643,1.8542,1.8542,1.8172,1.8079,1.845,1.7037,1.6379,1.6648,1.6278,1.6096,1.5994,1.7692,1.8635,1.8635,1.8635,1.8635,1.8643,1.8179,1.7994,1.7994,1.7426,1.7239,0.0,1.4944,0.0,0.0,0.0,2.3816,2.5308,2.5968,2.655,2.7777,2.7337,2.6885,2.7196,2.7371,2.7406,2.7383,2.7313,2.7313,2.7313,2.6693,2.6517,2.7219,2.6113,2.5505,2.6174,2.5411,2.4563,2.3511,2.325,2.2726,2.1784,2.1516,2.1338,2.1338,2.1168,2.0907,2.0744,2.0736,2.0275,1.9247,1.9247,1.8872,1.8126,2.0068,2.0907,2.0736,2.0292,2.0011,1.9911,1.9463,1.9279,1.9279,1.9279,1.9188,1.9096,1.9279,1.9096,1.9004,1.9012,1.9012,1.892,1.8827,1.8827,1.8827,1.8827,1.8827,1.8827,1.8827,1.8827,1.8827,1.8827,1.855,1.8272,1.8357,1.8643,1.8827,1.8827,1.8827,1.8827,1.8827,1.8458,1.8365,1.8735,1.8172,1.7606,1.7606,1.7606,1.7606,1.7606,1.7131,1.6756,1.6756,1.6662,1.6379,1.59,1.6096,1.5805,1.4937,1.514,1.514,1.4752,1.656,1.7606,1.7606,1.7606,1.7606,1.7606,1.734,1.7254,1.7254,1.6871,1.677,0.0,0.0,0.0,0.0,0.0,2.3745,2.47,2.5041,2.5549,2.6869,2.6633,2.6302,2.6561,2.6561,2.6561,2.6561,2.6561,2.6467,2.6102,2.5652,2.5389,2.5568,2.4723,2.4372,2.4787,2.4029,2.327,2.2561,2.2129,2.1606,2.0988,2.0907,2.0826,2.0826,2.0546,2.0085,1.9613,1.9347,1.8703,1.7662,1.7662,1.7382,1.7008,1.8395,1.8948,1.8864,1.8411,1.8234,1.8041,1.777,1.7684,1.7684,1.7684,1.7591,1.7404,1.7591,1.7404,1.7037,1.7311,1.7217,1.7037,1.7037,1.7037,1.7037,1.7037,1.7037,1.7037,1.7037,1.7037,1.7037,1.7037,1.7044,1.6857,1.6365,1.7217,1.8079,1.8079,1.8079,1.8079,1.8079,1.7893,1.78,1.8079,1.7326,1.6857,1.7232,1.6669,1.6379,1.6763,1.59,1.5324,1.5324,1.5032,1.474,1.4364,1.4358,1.407,1.3397,1.3596,1.3596,1.3397,1.4734,1.5596,1.5893,1.5596,1.5501,1.5501,1.5412,1.5324,1.5324,1.571,1.5812,0.0,0.0,0.0,0.0,2.208,0.0,2.4008,2.4252,2.4416,2.5357,2.5673,2.5812,2.5906,2.5895,2.5895,2.5717,2.5717,2.5443,2.4702,2.4532,2.4276,2.3836,2.3491,2.3414,2.3577,2.2736,2.2129,2.2138,2.1436,2.0907,2.0727,2.0645,2.0374,2.0184,1.9637,1.8888,1.8118,1.7677,1.7117,1.6257,1.6069,1.5981,1.5974,1.6062,1.6337,1.6807,1.6539,1.6351,1.6351,1.6257,1.6257,1.6257,1.6257,1.5981,1.5704,1.6075,1.5798,1.5146,1.5419,1.533,1.4956,1.4854,1.4854,1.4854,1.4854,1.4854,1.4854,1.4854,1.4854,1.4854,1.4854,1.5146,1.5146,1.4364,1.5412,1.6655,1.6655,1.6655,1.6655,1.6655,1.6655,1.6655,1.6655,1.6177,1.5893,1.656,1.5609,1.5045,1.5615,1.4651,1.3974,1.3974,1.3584,1.3199,1.3102,1.2624,1.2242,1.1955,1.2052,1.2052,1.195,1.2624,1.3199,1.3596,1.3584,1.3482,1.3482,1.3488,1.3392,1.3488,1.4268,1.4561,0.0,0.0,0.0,0.0,2.0485,2.1233,0.0,0.0,2.3267,0.0,2.4766,2.538,2.5812,2.5895,2.5717,2.5062,2.4967,2.4713,2.4008,2.325,2.2999,2.3664,2.2375,2.1686,2.2473,2.1784,2.1078,2.0916,2.0826,2.0464,1.982,1.9729,1.9271,1.8149,1.7971,1.7584,1.672,1.6727,1.617,1.5229,1.4292,1.3913,1.3919,1.3232,1.4268,1.6532,1.6075,1.5886,1.5886,1.5425,1.5337,1.5337,1.5337,1.5242,1.5242,1.5242,1.5242,1.5051,1.4657,1.4459,1.4364,1.3872,1.368,1.368,1.368,1.368,1.368,1.368,1.368,1.368,1.368,1.3776,1.3776,1.3674,1.3771,1.3962,1.3962,1.3962,1.3962,1.3962,1.3962,1.3962,1.3962,1.3968,1.3866,1.3962,1.3872,1.3776,1.3872,1.3102,1.2533,1.2533,1.2533,1.2242,1.1575,1.1955,1.1858,1.0699,1.1091,1.1096,1.0703,1.0797,1.0895,1.0895,1.2624,1.3482,1.3482,1.3307,1.3119,1.3119,1.3022,1.3017,1.1429,0.0,0.0,0.0,1.8574,1.9531,2.0878,2.1202,2.1428,2.2296,2.233,2.2764,2.4255,2.4251,2.379,2.3511,2.3424,2.325,2.2561,2.2129,2.1872,2.1854,2.1078,2.0727,2.1168,2.0628,2.0184,2.0102,1.9446,1.8896,1.8527,1.8141,1.7576,1.7023,1.6741,1.6264,1.5406,1.4835,1.3974,1.2829,1.2457,1.2175,1.217,1.1883,1.2646,1.4172,1.3794,1.3505,1.321,1.3318,1.3227,1.2931,1.2931,1.2931,1.2931,1.2931,1.2931,1.2834,1.264,1.2538,1.2538,1.2247,1.2247,1.2247,1.2247,1.2247,1.2247,1.2247,1.2247,1.2247,1.2247,1.2436,1.2528,1.1955,1.1945,1.2037,1.1463,1.2425,1.3482,1.3482,1.3482,1.3482,1.3482,1.3102,1.3006,1.3386,1.2721,1.2339,1.2813,1.1853,1.1282,1.1282,1.0984,1.0699,1.031,1.06,1.0596,1.0019,1.0216,1.0216,0.992,0.992,0.992,0.992,1.0886,1.1268,1.1268,1.1179,1.1184,1.1184,1.1663,1.1853,0.0,0.0,1.3535,1.508,1.6351,1.748,0.0,0.0,1.9531,2.0475,1.9994,2.0063,2.1987,2.2176,2.2007,2.1845,2.1863,2.1695,2.0808,2.0727,2.0546,2.0011,1.9928,1.9928,1.9928,1.9455,1.908,1.908,1.8056,1.7304,1.7217,1.664,1.6163,1.588,1.5507,1.4943,1.4178,1.3221,1.2355,1.1389,1.1292,1.1194,1.1194,1.11,1.1292,1.1883,1.178,1.159,1.1194,1.1585,1.1585,1.1194,1.1194,1.1194,1.1194,1.1194,1.1194,1.1194,1.0998,1.0998,1.0998,1.0801,1.0801,1.0801,1.0801,1.0801,1.0801,1.0801,1.0801,1.0801,1.0801,1.1086,1.1179,1.0408,1.0502,1.0596,0.9723,1.1175,1.2522,1.2522,1.2522,1.2522,1.2522,1.2042,1.1853,1.2431,1.157,1.0993,1.1565,1.0797,1.0216,1.0216,0.9821,0.9628,0.9628,0.9628,0.9628,0.9628,0.9628,0.9529,0.9529,0.9529,0.943,0.9426,0.9426,0.9426,0.9628,0.9426,0.943,0.9529,1.0301,1.0583,0.0,0.9081,0.0,1.2093,1.3421,0.0,0.0,0.0,1.7691,1.8744,1.8455,1.8213,1.8998,2.0336,2.0974,2.0198,2.0439,2.0275,1.9096,1.892,1.892,1.892,1.892,1.892,1.892,1.8257,1.7785,1.7785,1.7016,1.6351,1.5886,1.5893,1.5324,1.4094,1.3998,1.3619,1.2856,1.237,1.1975,1.198,1.1487,1.1194,1.1194,1.0703,1.0507,1.0511,1.0998,1.1194,1.1194,1.1194,1.1194,1.1194,1.1194,1.1194,1.1194,1.1194,1.1194,1.1096,1.0609,1.0413,1.0314,0.9826,0.9727,0.9727,0.9727,0.9727,0.9727,0.9727,0.9727,0.9727,0.9727,0.9723,0.9727,0.9628,0.9628,0.9628,0.9628,0.9727,0.9821,0.9821,0.9821,0.9821,0.9821,0.9723,0.9723,0.9821,0.9723,0.9723,0.9723,0.9727,0.9628,0.9628,0.9628,0.9628,0.9628,0.9628,0.9628,0.9628,0.9628,0.9529,0.9236,0.9232,0.913,0.8825,0.8825,0.9126,0.9628,0.9126,0.8928,0.9232,0.9027,0.892,0.0,0.0,0.0,1.0265,1.1441,1.2652,1.3827,1.4673,1.5465,1.6669,1.6428,1.6247,1.7273,1.8321,1.8958,1.8652,1.8764,1.8684,1.8249,1.8351,1.8297,1.7834,1.7934,1.7878,1.7397,1.6835,1.6459,1.6459,1.5419,1.4752,1.4567,1.4094,1.3715,1.3238,1.3147,1.2754,1.178,1.1585,1.1096,1.0413,1.0216,1.0216,1.0216,1.0019,0.9821,0.9628,1.0019,1.0216,1.0216,1.0507,1.0511,1.0216,1.0216,1.0216,1.0216,1.0216,1.0216,1.0117,0.992,0.992,0.9826,0.9628,0.9628,0.9628,0.9628,0.9628,0.9628,0.9628,0.943,0.943,0.9529,0.9327,0.9126,0.9126,0.9126,0.9126,0.9126,0.9229,0.9331,0.9126,0.9126,0.9126,0.9126,0.9126,0.9126,0.9126,0.9126,0.9126,0.9126,0.9229,0.9331,0.9331,0.9529,0.9529,0.9331,0.9331,0.9229,0.9126,0.9126,0.9027,0.8928,0.8928,0.8928,0.8825,0.8627,0.873,0.9126,0.8924,0.8825,0.8928,0.8825,0.8825,0.6877,0.0,0.0,0.0,0.0,1.0675,1.1779,1.2669,1.3531,1.4602,1.4697,1.4866,1.5741,1.6354,1.69,1.736,1.7517,1.7517,1.7072,1.7174,1.7034,1.6299,1.6394,1.6331,1.5769,1.5311,1.5094,1.5094,1.4136,1.3522,1.3522,1.305,1.2764,1.2764,1.2764,1.237,1.1487,1.1292,1.0703,0.9821,0.9727,0.9628,0.9628,0.9628,0.9529,0.9335,0.943,0.9426,0.9327,0.9821,0.9723,0.9327,0.9327,0.9327,0.9327,0.9327,0.9327,0.9327,0.943,0.943,0.943,0.943,0.9529,0.9628,0.9529,0.943,0.943,0.943,0.9232,0.913,0.9327,0.9027,0.8825,0.8825,0.8825,0.8726,0.8726,0.8829,0.9031,0.8825,0.8825,0.8825,0.8825,0.8825,0.8825,0.8825,0.8825,0.8825,0.8825,0.8928,0.9031,0.9031,0.9229,0.9229,0.9034,0.9031,0.9031,0.8825,0.8825,0.8726,0.8627,0.8627,0.8627,0.8531,0.8333,0.8333,0.8531,0.8531,0.8531,0.8627,0.8531,0.8531,0.0,0.0,0.0,0.0,0.0,0.0,1.035,1.1146,1.1794,1.2698,1.3404,1.4026,1.4377,1.4443,1.486,1.6096,1.666,1.6587,1.5541,1.5377,1.5102,1.4366,1.4283,1.4289,1.4199,1.3823,1.352,1.352,1.3087,1.2743,1.2743,1.2748,1.2759,1.2764,1.2764,1.2467,1.198,1.1487,1.09,1.0413,0.9826,0.9628,0.9628,0.9628,0.9628,0.9529,0.9331,0.9031,0.8825,0.9031,0.9031,0.8825,0.8825,0.8825,0.8825,0.8825,0.8825,0.8825,0.9133,0.9236,0.9236,0.9236,0.9331,0.9529,0.9232,0.9236,0.9236,0.9236,0.9031,0.8825,0.8825,0.8825,0.8825,0.8825,0.8825,0.8726,0.8432,0.8627,0.8825,0.8825,0.8825,0.8825,0.8825,0.8825,0.8825,0.8825,0.8825,0.8825,0.8825,0.8825,0.8825,0.8825,0.8825,0.8825,0.8825,0.8825,0.8825,0.8825,0.8825,0.8627,0.8432,0.8432,0.8233,0.8038,0.7939,0.7939,0.7939,0.8038,0.8137,0.8432,0.8137,0.8038,0.6048,0.0,0.0,0.0,0.0,0.0,0.8883,0.9681,1.0383,1.0786,1.127,1.169,1.2168,1.24,1.2733,1.33,1.4192,1.4559,1.4025,1.4148,1.4007,1.3194,1.3369,1.3308,1.2768,1.2562,1.2514,1.2514,1.239,1.2248,1.2248,1.2414,1.2395,1.2268,1.2175,1.1785,1.0806,1.0708,1.0314,0.9826,0.9628,0.9628,0.9628,0.9628,0.9529,0.9331,0.9236,0.8935,0.8531,0.8829,0.8825,0.8825,0.8825,0.8825,0.8825,0.8825,0.8825,0.8825,0.8928,0.8928,0.8928,0.8928,0.8928,0.9027,0.8928,0.8928,0.8928,0.8928,0.8726,0.8432,0.8233,0.8333,0.8432,0.8233,0.8233,0.8237,0.8137,0.8137,0.8233,0.8233,0.8233,0.8233,0.8233,0.8233,0.8233,0.8233,0.8233,0.8233,0.8233,0.8432,0.8528,0.8528,0.8726,0.8726,0.8531,0.8528,0.8432,0.8233,0.8233,0.8137,0.7842,0.8038,0.7939,0.7743,0.7743,0.7743,0.7743,0.7942,0.8038,0.8137,0.8038,0.7942,0.0,0.0,0.0,0.0,0.0,0.0,0.8317,0.8709,0.9105,0.9379,0.9775,1.0217,1.0528,1.0861,1.1052,1.1061,1.1676,1.2246,1.2649,1.2771,1.2679,1.2077,1.2212,1.2193,1.1568,1.1573,1.1535,1.1348,1.1441,1.1497,1.1497,1.1626,1.1611,1.1535,1.1545,1.1201,1.0408,1.0413,1.0117,0.9628,0.9628,0.9628,0.9628,0.9628,0.943,0.9236,0.9034,0.8832,0.8432,0.8432,0.8432,0.8432,0.8432,0.8432,0.8432,0.8432,0.8432,0.8531,0.8627,0.8627,0.8627,0.8627,0.8726,0.8825,0.8627,0.8627,0.8627,0.8627,0.8432,0.8237,0.8038,0.8137,0.8237,0.8038,0.8038,0.8038,0.8038,0.8038,0.8038,0.8038,0.8038,0.8038,0.8038,0.8038,0.8038,0.8038,0.8038,0.8038,0.8038,0.8137,0.8233,0.8233,0.8333,0.8432,0.8237,0.8137,0.8038,0.7842,0.7739,0.764,0.7444,0.754,0.764,0.7444,0.7444,0.7444,0.7444,0.764,0.764,0.764,0.764,0.754,0.0,0.7436,0.0,0.0,0.7896,0.0,0.8271,0.8189,0.7972,0.8113,0.8616,0.9053,0.9027,0.9379,0.9589,0.9205,0.9301,0.9905,1.1261,1.1286,1.1095,1.0861,1.0969,1.093,1.0514,1.0705,1.0652,1.0305,1.0491,1.061,1.0634,1.0634,1.0724,1.0834,1.0744,1.0656,1.028,1.028,1.0096,0.9628,0.9628,0.9628,0.9628,0.9529,0.943,0.9137,0.8928,0.8627,0.8333,0.8137,0.8038,0.8038,0.8038,0.8038,0.8038,0.8038,0.8038,0.8038,0.8233,0.8333,0.8333,0.8333,0.8531,0.8627,0.8432,0.8333,0.8333,0.8333,0.8137,0.8038,0.8038,0.8038,0.8038,0.8038,0.8038,0.8038,0.8038,0.7942,0.7939,0.7939,0.7942,0.8038,0.8038,0.8038,0.8038,0.8038,0.7942,0.7939,0.7939,0.7939,0.7939,0.7939,0.7939,0.7939,0.7939,0.7643,0.7547,0.7547,0.7341,0.7138,0.7138,0.7138,0.7138,0.7138,0.7138,0.7138,0.7138,0.7135,0.7238,0.7238,0.7238,0.7138,0.7913,0.8099,0.8464,0.811,0.8417,0.0,0.7423,0.7749,0.7879,0.639,0.6467,0.678,0.6602,0.6934,0.7282,0.7437,0.7664,0.8274,0.9677,0.9851,0.9799,0.9717,0.9756,0.9771,0.9861,0.9918,1.001,1.0086,1.0138,1.0233,1.0395,1.0405,1.0323,1.0072,1.0081,0.9888,0.9598,0.9598,0.9579,0.9628,0.9628,0.9628,0.9628,0.9335,0.9236,0.9133,0.8733,0.8432,0.8333,0.8137,0.8038,0.8038,0.8038,0.8038,0.8038,0.8038,0.8038,0.8038,0.8038,0.8038,0.8038,0.8038,0.8137,0.8137,0.8137,0.8038,0.8038,0.8038,0.8038,0.8038,0.8038,0.8038,0.8038,0.8038,0.8038,0.8038,0.8038,0.7842,0.7646,0.7646,0.7842,0.8038,0.8038,0.8038,0.8038,0.8038,0.7842,0.7646,0.7646,0.7646,0.7643,0.7338,0.7543,0.7543,0.7338,0.7338,0.7238,0.7238,0.7238,0.7138,0.6842,0.7039,0.7138,0.6842,0.6842,0.6739,0.6537,0.7039,0.7238,0.7238,0.7238,0.7039,0.7973,0.7942,0.8109,0.7836,0.783,0.0,0.0,0.6954,0.6808,0.5765,0.5733,0.5817,0.5742,0.5949,0.62,0.6391,0.6624,0.7009,0.7801,0.8367,0.8709,0.8937,0.9118,0.9214,0.9078,0.9183,0.9117,0.9039,0.9055,0.9238,0.9331,0.9433,0.94,0.9317,0.9325,0.9322,0.9222,0.9311,0.9401,0.9494,0.9583,0.9529,0.943,0.9232,0.9034,0.8832,0.8535,0.8333,0.8237,0.8038,0.8038,0.8038,0.8038,0.8038,0.8038,0.8038,0.8038,0.8038,0.8038,0.8038,0.8038,0.8038,0.8038,0.8038,0.8038,0.8038,0.8038,0.8038,0.8038,0.8038,0.8038,0.8038,0.8038,0.8038,0.8038,0.8038,0.8038,0.7743,0.7646,0.7646,0.764,0.764,0.7743,0.7842,0.7842,0.7842,0.7646,0.7547,0.7441,0.7441,0.7341,0.7238,0.7341,0.7341,0.7238,0.7039,0.7042,0.7042,0.6839,0.6736,0.6639,0.6739,0.6739,0.6639,0.6639,0.6539,0.6437,0.6637,0.6836,0.6836,0.6836,0.6739,0.8066,0.7842,0.7813,0.7597,0.7367,0.7049,0.0,0.0,0.0,0.5528,0.5494,0.5479,0.5456,0.5593,0.5661,0.5698,0.5884,0.6083,0.6197,0.6954,0.7584,0.805,0.8389,0.8553,0.8216,0.8286,0.8277,0.8004,0.8057,0.8146,0.8284,0.8434,0.8593,0.8767,0.8587,0.8675,0.8858,0.8898,0.8901,0.8972,0.9112,0.8996,0.863,0.863,0.8329,0.7829,0.773,0.7733,0.7739,0.7739,0.7839,0.8038,0.8038,0.8038,0.8038,0.8038,0.8038,0.8038,0.8038,0.8038,0.8038,0.8038,0.8038,0.8038,0.8038,0.8038,0.8038,0.8038,0.8038,0.8038,0.8038,0.8038,0.7939,0.7942,0.7942,0.7942,0.7839,0.7643,0.7447,0.7447,0.7241,0.7138,0.7444,0.7543,0.7543,0.7543,0.7444,0.7344,0.7138,0.7138,0.7138,0.7039,0.7138,0.7138,0.7039,0.6842,0.6742,0.6742,0.6539,0.6437,0.6437,0.6437,0.6437,0.6442,0.6442,0.6442,0.6445,0.6445,0.6442,0.6437,0.6437,0.6437,0.8486,0.8685,0.8889,0.7665,0.8287,0.8622,0.6465,0.0,0.6858,0.5238,0.0,0.5385,0.4985,0.0,0.0,0.4946,0.5344,0.5624,0.5438,0.5661,0.6031,0.6581,0.6813,0.6999,0.7169,0.7207,0.7409,0.7967,0.7598,0.7622,0.8256,0.8308,0.8406,0.8593,0.7963,0.7771,0.7938,0.7315,0.7082,0.7324,0.734,0.7113,0.6722,0.6429,0.6029,0.5529,0.5325,0.5729,0.6537,0.6537,0.7138,0.8038,0.8038,0.8038,0.8038,0.8038,0.8038,0.8038,0.8038,0.8038,0.8038,0.8038,0.8038,0.8038,0.8038,0.8038,0.8038,0.8038,0.8038,0.8038,0.8038,0.8038,0.7939,0.7743,0.7646,0.7543,0.7338,0.7042,0.6845,0.6845,0.6639,0.6637,0.7138,0.7238,0.7238,0.7238,0.7042,0.6845,0.6845,0.6842,0.6742,0.6537,0.6739,0.6742,0.6537,0.6437,0.6437,0.6437,0.6437,0.6437,0.6437,0.6437,0.6445,0.6358,0.6361,0.6364,0.6372,0.6372,0.6358,0.6437,0.6437,0.6437,0.804,0.7915,0.7907,0.7133,0.7183,0.7154,0.6111,0.6066,0.6032,0.5404,0.0,0.0,0.0,0.0,0.0,0.0,0.5016,0.5015,0.4992,0.4996,0.5219,0.5906,0.6109,0.6331,0.6615,0.6571,0.6692,0.7066,0.6909,0.6915,0.7163,0.7386,0.7451,0.7267,0.7004,0.69,0.6962,0.65,0.6314,0.642,0.6496,0.6269,0.564,0.5899,0.5635,0.4948,0.4802,0.5024,0.5429,0.5429,0.5727,0.6126,0.6126,0.693,0.7939,0.7338,0.7437,0.8038,0.8038,0.8038,0.7942,0.7842,0.7743,0.7743,0.754,0.764,0.7743,0.754,0.764,0.7743,0.754,0.7537,0.754,0.7441,0.7341,0.7341,0.7238,0.6942,0.6845,0.6845,0.6539,0.6437,0.6736,0.6839,0.6942,0.6942,0.6842,0.6742,0.6539,0.6539,0.6539,0.6437,0.6537,0.6542,0.645,0.6353,0.6353,0.6358,0.6358,0.6358,0.6358,0.6358,0.6364,0.6372,0.5146,0.4537,0.4541,0.4541,0.4537,0.4528,0.5847,0.6358,0.7714,0.7502,0.7352,0.6746,0.645,0.6168,0.5834,0.5616,0.545,0.5535,0.5413,0.0,0.0,0.0,0.0,0.0,0.0,0.4665,0.4713,0.4522,0.4664,0.5415,0.5632,0.5831,0.6181,0.5974,0.5895,0.6133,0.6029,0.597,0.6067,0.6407,0.6548,0.6303,0.615,0.6128,0.6166,0.5623,0.5314,0.5346,0.5332,0.5005,0.4371,0.4747,0.4594,0.3915,0.3892,0.4124,0.4323,0.4323,0.4524,0.4724,0.4524,0.5527,0.7033,0.6232,0.6434,0.7132,0.7132,0.7335,0.7537,0.7241,0.7341,0.7547,0.7238,0.7341,0.7444,0.7238,0.7341,0.7444,0.7238,0.7238,0.7138,0.7138,0.7138,0.7039,0.7039,0.6842,0.6648,0.6648,0.6548,0.6448,0.6448,0.6545,0.6642,0.6642,0.6642,0.6642,0.6442,0.6442,0.6442,0.6442,0.6445,0.635,0.6361,0.5854,0.5553,0.5557,0.5557,0.5557,0.5557,0.5557,0.5763,0.638,0.4849,0.3328,0.1914,0.1914,0.1914,0.2116,0.4137,0.505,0.7789,0.8103,0.8206,0.6798,0.6814,0.6932,0.5603,0.5628,0.5774,0.5378,0.5628,0.5762,0.5369,0.0,0.0,0.0,0.0,0.0,0.0,0.4282,0.4409,0.4848,0.5075,0.5348,0.5679,0.5133,0.4975,0.5491,0.4939,0.488,0.5596,0.5657,0.5839,0.6294,0.5631,0.5259,0.546,0.4304,0.3718,0.3793,0.333,0.2897,0.2382,0.2429,0.2256,0.1671,0.1703,0.2321,0.3224,0.3224,0.3825,0.4724,0.3624,0.3924,0.4924,0.4824,0.4824,0.4924,0.4924,0.5629,0.6434,0.6132,0.6736,0.7547,0.7238,0.7238,0.7238,0.7238,0.7238,0.7238,0.7238,0.7238,0.7138,0.6842,0.6845,0.6742,0.6437,0.645,0.6461,0.6461,0.6369,0.6374,0.6374,0.6453,0.6437,0.6437,0.6437,0.6442,0.6361,0.6361,0.6361,0.6361,0.6369,0.6372,0.6364,0.4535,0.3324,0.3324,0.3324,0.3324,0.3324,0.3324,0.4239,0.639,0.629,0.374,-0.1414,-0.1414,-0.1212,-0.0606,0.1007,0.1711,0.7944,0.7985,0.7833,0.7288,0.7049,0.6822,0.5996,0.6006,0.6024,0.5429,0.5636,0.5778,0.5365,0.0,0.0,0.0,0.0,0.0,0.0,0.4207,0.4113,0.4271,0.4628,0.0,0.4895,0.4606,0.4501,0.4656,0.4324,0.4249,0.4395,0.4651,0.466,0.422,0.4102,0.3946,0.376,0.3048,0.27,0.2721,0.2539,0.2183,0.1741,0.2059,0.1997,0.1543,0.1573,0.1797,0.212,0.212,0.2321,0.2622,0.2321,0.2321,0.2722,0.3525,0.4225,0.4824,0.4824,0.5027,0.5327,0.5029,0.5536,0.6044,0.5744,0.6147,0.6656,0.6656,0.6962,0.7163,0.6742,0.6645,0.6656,0.6556,0.6556,0.6559,0.6464,0.6366,0.5964,0.4537,0.4234,0.4236,0.4236,0.4331,0.4734,0.6158,0.6364,0.6364,0.6372,0.5148,0.4234,0.4234,0.5557,0.6377,0.638,0.3128,0.111,0.111,0.111,0.0807,0.0101,-0.0,0.0504,0.1615,0.1616,0.0707,-0.1111,-0.1415,-0.1516,-0.1314,-0.0807,-0.0504,0.7848,0.7479,0.7086,0.7369,0.7043,0.6567,0.6134,0.6203,0.6092,0.515,0.5428,0.5611,0.4733,0.0,0.0,0.0,0.0,0.0,0.0,0.4044,0.3969,0.3866,0.0,0.0,0.0,0.3946,0.3718,0.35,0.332,0.322,0.0,0.3477,0.3458,0.2997,0.3117,0.3135,0.2867,0.2422,0.2243,0.2154,0.1974,0.1705,0.1436,0.1742,0.1772,0.1512,0.1553,0.1583,0.1601,0.1612,0.1617,0.1617,0.1617,0.1617,0.1718,0.2422,0.3024,0.3624,0.3624,0.3621,0.362,0.3422,0.423,0.5039,0.4437,0.474,0.5247,0.5247,0.6062,0.6673,0.5539,0.5849,0.6369,0.6369,0.5856,0.5247,0.5251,0.5866,0.5972,0.4645,0.3126,0.2319,0.3026,0.3229,0.3632,0.505,0.5253,0.556,0.6279,0.5155,0.3732,0.2216,0.4647,0.5773,0.4248,0.1616,-0.0202,-0.0505,-0.0606,-0.0808,-0.1313,-0.1516,-0.1415,-0.1111,-0.1111,-0.1111,-0.1111,-0.1415,-0.1617,-0.1617,-0.1617,-0.1617]},{"header":{"parameterUnit":"m.s-1","parameterCategory":1,"la1":30.6,"la2":29.2853,"lo1":-89.7004,"lo2":-87.6739,"dy":0.0162,"dx":0.0183,"nx":112,"ny":82,"refTime":"2024-08-07T18:00:00:Z","depth":0,"parameterNumber":3,"parameterNumberName":"V-component_of_WINDS"},"data":[0.0,0.0,0.0,0.0,0.0,0.0,0.0,0.0,0.0,0.0,0.0,0.0,0.0,0.0,0.0,0.0,0.0,0.0,0.0,0.0,0.0,0.0,0.0,0.0,0.0,0.0,0.0,0.0,0.0,0.0,0.0,0.0,0.0,0.0,0.0,0.0,0.0,0.0,0.0,0.0,0.0,0.0,0.0,0.0,0.0,0.0,0.0,0.0,0.0,0.0,0.0,0.0,0.0,0.0,0.0,0.0,0.0,0.0,0.0,0.0,0.0,0.0,0.0,0.0,0.0,0.0,0.0,0.0,0.0,0.0,0.0,0.0,0.0,0.0,0.0,0.0,0.0,0.0,0.0,0.0,0.0,0.0,0.0,0.0,0.0,0.0,0.0,0.0,0.0,0.0,0.0909,0.1059,0.1181,0.1269,0.13,0.1243,0.1157,0.1047,0.0,0.0,0.0,0.0,0.0,0.0,0.0,0.0,0.0,0.0,0.0,0.0,0.0,0.0,0.0,0.0,0.0,0.0,0.0,0.0,0.0,0.0,0.0,0.0,0.0,0.0,0.0,0.0,0.0,0.0,0.0,0.0,0.0,0.0,0.0,0.0,0.0,0.0,0.0,0.0,0.0,0.0,0.0,0.0,0.0,0.0,0.0,0.0,0.0,0.0,0.0,0.0,0.0,0.0,0.0,0.0,0.0,0.0,0.0,0.0,0.0,0.0,0.0,0.0,0.0,0.0,0.0,0.0,0.0,0.0,0.0,0.0,0.0,0.0,0.0,0.0,0.0,0.0,0.0,0.0,0.0,0.0,0.0,0.0,0.0,0.0,0.0,0.0,0.0,0.0,0.0,0.0,0.0,0.0,0.0,0.0,0.0,0.0,0.0,0.0,0.0,0.0,0.0,0.0,0.0986,0.12,0.1243,0.1269,0.13,0.1223,0.1143,0.1074,0.0,0.0,0.0,0.0,0.0,0.0,0.0,0.0,0.0,0.0,0.0,0.0,0.0,0.0,0.0,0.0,0.0,0.0,0.0,0.0,0.0,0.0,0.0,0.0,0.0,0.0,0.0,0.0,0.0,0.0,0.0,0.0,0.0,0.0,0.0,0.0,0.0,0.0,0.0,0.0,0.0,0.0,0.0,0.0,0.0,0.0,0.0,0.0,0.0,0.0,0.0,0.0,0.0,0.0,0.0,0.0,0.0,0.0,0.0,0.0,0.0,0.0,0.0,0.0,0.0,0.0,0.0,0.0,0.0,0.0,0.0,0.0,0.0,0.0,0.0,0.0,0.0,0.0,0.0,0.0,0.0,0.0,0.0,0.0,0.0,0.0,0.0,0.0,0.0,0.0,0.0,0.0,0.0,0.0,0.0,0.0,0.0,0.0,0.0,0.0,0.0,0.0,0.0,0.0955,0.1051,0.126,0.1267,0.1269,0.13,0.1219,0.1134,0.1058,0.0911,0.0,0.0,0.0,0.0,0.0,0.0,0.0,0.0,0.0,0.0,0.0,0.0,0.0,0.0,0.0,0.0,0.0,0.0,0.0,0.0,0.0,0.0,0.0,0.0,0.0,0.0,0.0,0.0,0.0,0.0,0.0,0.0,0.0,0.0,0.0,0.0,0.0,0.0,0.0,0.0,0.0,0.0,0.0,0.0,0.0,0.0,0.0,0.0,0.0,0.0,0.0,0.0,0.0,0.0,0.0,0.0,0.0,0.0,0.0,0.0,0.0,0.0,0.0,0.0,0.0,0.0,0.0,0.0,0.0,0.0,0.0,0.0,0.0,0.0,0.0,0.0,0.0,0.0,0.0,0.0,0.0,0.0,0.0,0.0,0.0,0.0,0.0,0.0,0.0,0.0,0.0,0.0,0.0,0.0,0.0,0.0,0.0,0.0,0.0,0.0,0.0,0.0,0.1061,0.1123,0.1275,0.1271,0.1266,0.129,0.1202,0.1113,0.1038,0.0878,0.0,0.0,0.0,0.0,0.0,0.0,0.0,0.0,0.0,0.0,0.0,0.0,0.0,0.0,0.0,0.0,0.0,0.0,0.0,0.0,0.0,0.0,0.0,0.0,0.0,0.0,0.0,0.0,0.0,0.0,0.0,0.0,0.0,0.0,0.0,0.0,0.0,0.0,0.0,0.0,0.0,0.0,0.0,0.0,0.0,0.0,0.0,0.0,0.0,0.0,0.0,0.0,0.0,0.0,0.0,0.0,0.0,0.0,0.0,0.0,0.0,0.0,0.0,0.0,0.0,0.0,0.0,0.0,0.0,0.0,0.0,0.0,0.0,0.0,0.0,0.0,0.0,0.0,0.0,0.0,0.0,0.0,0.0,0.0,0.0,0.0,0.0,0.0,0.0,0.0,0.0,0.0,0.0,0.0,0.0,0.0,0.0,0.0,0.0,0.0,0.0,0.0,0.1089,0.1183,0.1253,0.1337,0.1336,0.1339,0.1151,0.1068,0.1035,0.084,0.0,0.0,0.0,0.0,0.0,0.0,0.0,0.0,0.0,0.0,0.0,0.0,0.0,0.0,0.0,0.0,0.0,0.0,0.0,0.0,0.0,0.0,0.0,0.0,0.0,0.0,0.0,0.0,0.0,0.0,0.0,0.0,0.0,0.0,0.0,0.0,0.0,0.0,0.0,0.0,0.0,0.0,0.0,0.0,0.0,0.0,0.0,0.0,0.0,0.0,0.0,0.0,0.0,0.0,0.0,0.0,0.0,0.0,0.0,0.0,0.0,0.0,0.0,0.0,0.0,0.0,0.0,0.0,0.0,0.0,0.0,0.0,0.0,0.0,0.0,0.0,0.0,0.0,0.0,0.0,0.0,0.0,0.0,0.0,0.0,0.0,0.0,0.0,0.0,0.0,0.0,0.0,0.0,0.0,0.0,0.0,0.0,0.0,0.0,0.0,0.0,0.0,0.1059,0.1148,0.1325,0.1335,0.1335,0.1335,0.1181,0.1096,0.1011,0.0,0.0,0.0,0.0,0.0,0.0,0.0,0.0,0.0,0.0,0.0,0.0,0.0,0.0,0.0,0.0,0.0,0.0,0.0,0.0,0.0,0.0,0.0,0.0,0.0,0.0,0.0,0.0,0.0,0.0,0.0,0.0,0.0,0.0,0.0,0.0,0.0,0.0,0.0,0.0,0.0,0.0,0.0,0.0,0.0,0.0,0.0,0.0,0.0,0.0,0.0,0.0,0.0,0.0,0.0,0.0,0.0,0.0,0.0,0.0,0.0,0.0,0.0,0.0,0.0,0.0,0.0,0.0,0.0,0.0,0.0,0.0,0.0,0.0,0.0,0.0,0.0,0.0,0.0,0.0,0.0,0.0,0.0,0.0,0.0,0.0,0.0,0.0,0.0,0.0,0.0,0.0,0.0,0.0,0.0,0.0,0.0,0.0,0.0,0.0,0.0,0.0,0.0967,0.1057,0.1144,0.1325,0.1335,0.1335,0.1335,0.1175,0.1085,0.0994,0.0,0.0,0.0,0.0,0.0,0.0,0.0,0.0,0.0,0.0,0.0,0.0,0.0,0.0,0.0,0.0,0.0,0.0,0.0,0.0,0.0,0.0,0.0,0.0,0.0,0.0,0.0,0.0,0.0,0.0,0.0,0.0,0.0,0.0,0.0,0.0,0.0,0.0,0.0,0.0,0.0,0.0,0.0,0.0,0.0,0.0,0.0,0.0,0.0,0.0,0.0,0.0,0.0,0.0,0.0,0.0,0.0,0.0,0.0,0.0,0.0,0.0,0.0,0.0,0.0,0.0,0.0,0.0,0.0,0.0,0.0,0.0,0.0,0.0,0.0,0.0,0.0,0.0,0.0,0.0,0.0,0.0,0.0,0.0,0.0,0.0,0.0,0.0,0.0,0.0,0.0,0.0,0.0,0.0,0.0,0.0,0.0,0.0,0.0,0.0,0.0,0.0,0.0973,0.1093,0.119,0.1329,0.1335,0.1335,0.1335,0.112,0.1021,0.0,0.0,0.0,0.0,0.0,0.0,0.0,0.0,0.0,0.0,0.0,0.0,0.0,0.0,0.0,0.0,0.0,0.0,0.0,0.0,0.0,0.0,0.0,0.0,0.0,0.0,0.0,0.0,0.0,0.0,0.0,0.0,0.0,0.0,0.0,0.0,0.0,0.0,0.0,0.0,0.0,0.0,0.0,0.0,0.0,0.0,0.0,0.0,0.0,0.0,0.0,0.0,0.0,0.0,0.0,0.0,0.0,0.0,0.0,0.0,0.0,0.0,0.0,0.0,0.0,0.0,0.0,0.0,0.0,0.0,0.0,0.0,0.0,0.0,0.0,0.0,0.0,0.0,0.0,0.0,0.0,0.0,0.0,0.0,0.0,0.0,0.0,0.0,0.0,0.0,0.0,0.0,0.0,0.0,0.0,0.0,0.0,0.0,0.0,0.0,0.0,0.0,0.0,0.0973,0.1093,0.119,0.1329,0.1335,0.1335,0.1335,0.1157,0.1065,0.0993,0.0,0.0,0.0,0.0,0.0,0.0,0.0,0.0,0.0,0.0,0.0,0.0,0.0,0.0,0.0,0.0,0.0,0.0,0.0,0.0,0.0,0.0,0.0,0.0,0.0,0.0,0.0,0.0,0.0,0.0,0.0,0.0,0.0,0.0,0.0,0.0,0.0,0.0,0.0,0.0,0.0,0.0,0.0,0.0,0.0,0.0,0.0,0.0,0.0,0.0,0.0,0.0,0.0,0.0,0.0,0.0,0.0,0.0,0.0,0.0,0.0,0.0,0.0,0.0,0.0,0.0,0.0,0.0,0.0,0.0,0.0,0.0,0.0,0.0,0.0,0.0,0.0,0.0,0.0,0.0,0.0,0.0,0.0,0.0,0.0,0.0,0.0,0.0,0.0,0.0,0.0,0.0,0.0,0.0,0.0,0.0,0.0,0.0,0.0,0.0,0.0,0.0,0.0973,0.1093,0.119,0.1329,0.1335,0.1335,0.1335,0.1173,0.1088,0.1012,0.0,0.0,0.0,0.0,0.0,0.0,0.0,0.0,0.0,0.0,0.0,0.0,0.0,0.0,0.0,0.0,0.0,0.0,0.0,0.0,0.0,0.0,0.0,0.0,0.0,0.0,0.0,0.0,0.0,0.0,0.0,0.0,0.0,0.0,0.0,0.0,0.0,0.0,0.0,0.0,0.0,0.0,0.0,0.0,0.0,0.0,0.0,0.0,0.0,0.0,0.0,0.0,0.0,0.0,0.0,0.0,0.0,0.0,0.0,0.0,0.0,0.0,0.0,0.0,0.0,0.0,0.0,0.0,0.0,0.0,0.0,0.0,0.0,0.0,0.0,0.0,0.0,0.0,0.0,0.0,0.0,0.0,0.0,0.0,0.0,0.0,0.0,0.0,0.0,0.0,0.0,0.0,0.0,0.0,0.0,0.0,0.0,0.0,0.0,0.0,0.0,0.0,0.0976,0.1095,0.119,0.1329,0.1335,0.1335,0.1335,0.1173,0.1097,0.1041,0.0,0.0,0.0,0.0,0.0,0.0,0.0,0.0,0.0,0.0,0.0,0.0,0.0,0.0,0.0,0.0,0.0,0.0,0.0,0.0,0.0,0.0,0.0,0.0,0.0,0.0,0.0,0.0,0.0,0.0,0.0,0.0,0.0,0.0,0.0,0.0,0.0,0.0,0.0,0.0,0.0,0.0,0.0,0.0,0.0,0.0,0.0,0.0,0.0,0.0,0.0,0.0,0.0,0.0,0.0,0.0,0.0,0.0,0.0,0.0,0.246,0.2036,0.0,0.0,0.0,0.0,0.0,0.0,0.0,0.0,0.0,0.0,0.0,0.0,0.0,0.0,0.0,0.0,0.0,0.0,0.0,0.0,0.0,0.0,0.0,0.0,0.0,0.0,0.0,0.0,0.0,0.0,0.0,0.0,0.0,0.0,0.0,0.0,0.0,0.0,0.0,0.0,0.1005,0.1108,0.119,0.1329,0.1335,0.1335,0.1335,0.1173,0.1105,0.1069,0.0891,0.0,0.0,0.0,0.0,0.0,0.0,0.0,0.0,0.0,0.0,0.0,0.0,0.0,0.0,0.0,0.0,0.0,0.0,0.0,0.0,0.0,0.0,0.0,0.0,0.0,0.0,0.0,0.0,0.0,0.0,0.0,0.0,0.0,0.0,0.0,0.0,0.0,0.0,0.0,0.0,0.0,0.0,0.0,0.0,0.0,0.0,0.0,0.0,0.0,0.0,0.0,0.0,0.0,0.0,0.0,0.0,0.0,0.0,0.0,0.294,0.2244,0.0,0.0,0.0,0.0,0.0,0.0,0.0,0.0,0.0,0.0,0.0,0.0,0.0,0.0,0.0,0.0,0.0,0.0,0.0,0.0,0.0,0.0,0.0,0.0,0.0,0.0,0.0,0.0,0.0,0.0,0.0,0.0,0.0,0.0,0.0,0.0,0.0,0.0,0.0,0.0,0.146,0.1474,0.1432,0.133,0.1492,0.1492,0.1335,0.12,0.1145,0.11,0.0969,0.0,0.0,0.0,0.0,0.0,0.0,0.0,0.0,0.0,0.0,0.0,0.0,0.0,0.0,0.0,0.0,0.0,0.0,0.0,0.0,0.0,0.0,0.0,0.0,0.0,0.0,0.0,0.0,0.0,0.0,0.0,0.0,0.0,0.0,0.0,0.0,0.0,0.0,0.0,0.0,0.0,0.0,0.0,0.0,0.0,0.0,0.0,0.0,0.0,0.0,0.0,0.0,0.0,0.4976,0.4913,0.4879,0.4829,0.4671,0.4302,0.3275,0.2496,0.2048,0.1487,0.0,0.0,0.0,0.0,0.0,0.0,0.0,0.0,0.0,0.0,0.0,0.0,0.0,0.0,0.0,0.0,0.0,0.0,0.0,0.0,0.0,0.0,0.0,0.0,-0.0149,0.0591,0.0752,0.0,0.0,0.0,0.0,0.0,0.0,0.0,0.0,0.0,0.0,0.0,0.2065,0.2,0.1835,0.1567,0.1726,0.1803,0.1414,0.1306,0.119,0.114,0.0987,0.0658,0.0,0.0,0.0,0.0,0.0,0.0,0.0,0.0,0.0,0.0,0.0,0.0,0.0,0.0,0.0,0.0,0.0,0.0,0.0,0.0,0.0,0.0,0.0,0.0,0.0,0.0,0.0,0.0,0.0,0.0,0.0,0.0,0.5103,0.521,0.0,0.0,0.0,0.0,0.0,0.0,0.0,0.0,0.0,0.0,0.0,0.0,0.0,0.6371,0.7246,0.6363,0.63,0.7021,0.6239,0.5663,0.5478,0.4935,0.4415,0.394,0.3805,0.0,0.2661,0.257,0.0,0.0,0.0,0.0,0.0,0.0,0.0,0.0,0.0,0.0,0.0,0.0,0.0,0.0,0.0,0.0,0.0,0.0,0.0,0.0,0.0,0.0,-0.2119,-0.2083,-0.122,-0.0164,0.0,0.1867,0.3019,0.2949,0.2563,0.0,0.0,0.0,0.0,0.0,0.0,0.0,0.2258,0.2337,0.2368,0.2348,0.204,0.1882,0.1803,0.1458,0.1209,0.12,0.0696,0.033,0.026,-0.0172,0.0,0.0,0.0,0.0,0.0,0.0,0.0,0.0,0.0,0.0,0.0,0.0,0.0,0.0,0.0,0.0,0.0,0.0,0.0,0.0,0.0,0.0,0.0,0.0,0.0,0.0,0.0,0.0,0.0,0.4428,0.5068,0.5285,0.5628,0.5844,0.0,0.0,0.0,0.0,0.0,0.0,0.0,0.0,0.0,0.7541,0.6719,0.6554,0.7217,0.6005,0.5548,0.5929,0.5546,0.5291,0.5107,0.4858,0.4579,0.4379,0.4379,0.3891,0.2982,0.2556,0.1906,0.1244,0.0,0.0,0.0,0.0,-0.0226,-0.0682,-0.1376,-0.1548,-0.1673,-0.2117,0.0,0.0,0.0,0.0,0.0,0.0,0.0,-0.2673,0.0,0.0,-0.2271,-0.2277,-0.1423,-0.0628,-0.0088,0.15,0.2963,0.0,0.3025,0.2725,0.2087,0.0,0.0,0.0,0.0,0.2456,0.3049,0.2981,0.2847,0.2559,0.2372,0.2117,0.1882,0.1477,0.1076,0.0682,0.0506,0.0069,-0.0605,-0.0622,-0.0624,0.0,0.0,0.0,0.0,0.0,0.0,0.0,0.0,0.0,0.0,0.0,0.0,0.0,0.0,0.0,0.0,0.0,0.0,0.0,0.0,0.0,0.0,0.0,0.0,0.0,0.0,0.0,0.0,0.4619,0.512,0.5592,0.5863,0.5902,0.0,0.0,0.0,0.0,0.0,0.0,0.6213,0.7122,0.7688,0.7933,0.6847,0.6516,0.7131,0.5834,0.5183,0.5207,0.5207,0.5095,0.4869,0.4869,0.4857,0.4834,0.4834,0.4234,0.3115,0.2643,0.198,0.1388,0.1335,0.0818,0.0,-0.0085,-0.0597,-0.1445,-0.2096,-0.2301,-0.2433,-0.3001,-0.385,-0.451,-0.4329,0.0,0.0,0.0,0.0,-0.3926,-0.4022,-0.3375,-0.2743,-0.2692,-0.1979,-0.1138,-0.056,0.0828,0.2214,0.0,0.3265,0.3213,0.2621,0.0,0.0,0.0,0.2986,0.3071,0.3685,0.3593,0.3352,0.3008,0.28,0.2526,0.2118,0.1491,0.0935,0.0306,0.0074,-0.043,-0.1307,-0.112,-0.1108,-0.1333,0.0,0.0,0.0,0.0,0.0,0.0,0.0,0.0,0.0,0.0,0.0,0.0,0.0,0.0,0.0,0.0,0.0,0.0,0.0,0.0,0.0,0.0,0.0,0.0,0.0,0.0,0.0,0.0,0.0,0.6838,0.6958,0.0,0.0,0.0,0.0,0.5365,0.5687,0.5972,0.6192,0.6752,0.7075,0.7087,0.6347,0.6472,0.7406,0.6597,0.6142,0.6248,0.6248,0.5777,0.4965,0.4965,0.4916,0.4834,0.4834,0.4234,0.3225,0.3155,0.251,0.1514,0.1482,0.0998,0.0089,-0.0548,-0.1289,-0.2031,-0.2832,-0.3004,-0.3157,-0.4229,-0.5229,-0.6011,-0.5949,-0.582,0.0,0.0,-0.5924,-0.6,-0.6067,-0.5294,-0.4454,-0.4173,-0.314,-0.1907,-0.0665,-0.019,0.056,0.0,0.3335,0.377,0.335,0.0,0.3442,0.3218,0.3528,0.3783,0.3875,0.3969,0.3912,0.3826,0.3487,0.3052,0.2515,0.1489,0.0705,0.0314,-0.0749,-0.131,-0.138,-0.1819,-0.1839,-0.1408,-0.1563,0.0,0.0,0.0,0.0,0.0,0.0,0.0,0.0,0.0,0.0,0.0,0.0,0.0,0.0,0.0,0.0,0.0,0.0,0.0,0.0,0.0,0.0,0.0,0.0,0.0,0.0,0.0,0.0,0.6304,0.6386,0.0,0.6012,0.5524,0.5236,0.518,0.5644,0.5965,0.6083,0.6848,0.7316,0.7316,0.654,0.6375,0.6725,0.5894,0.5494,0.553,0.553,0.5406,0.5059,0.5059,0.5043,0.501,0.501,0.4594,0.3862,0.3483,0.2615,0.1583,0.1573,0.078,-0.0484,-0.0683,-0.1664,-0.2844,-0.306,-0.3151,-0.3425,-0.5083,-0.6303,-0.723,-0.7818,-0.7994,-0.7949,-0.8165,-0.7712,-0.7045,-0.6452,-0.5517,-0.4441,-0.3555,-0.2867,-0.2169,-0.1558,-0.0776,0.0096,0.0743,0.2139,0.324,0.3641,0.379,0.377,0.3579,0.3893,0.4038,0.4071,0.4104,0.4024,0.3652,0.3142,0.2509,0.1605,0.087,0.0156,-0.0768,-0.1189,-0.152,-0.1921,-0.2006,-0.1971,-0.1788,-0.1778,-0.1664,0.0,0.0,0.0,0.0,0.0,0.0,0.0,0.0,0.0,0.0,0.0,0.0,0.0,0.0,0.0,0.0,0.0,0.0,0.0,0.0,0.0,0.0,0.0,0.0,0.0,0.5074,0.5407,0.6096,0.6113,0.5942,0.5751,0.5497,0.5391,0.5179,0.5503,0.5672,0.5744,0.6292,0.6685,0.6685,0.616,0.5861,0.5896,0.5365,0.5184,0.5243,0.5214,0.52,0.52,0.5167,0.5137,0.5108,0.5108,0.479,0.4257,0.3679,0.2691,0.1528,0.1317,0.0404,-0.0806,-0.1109,-0.2017,-0.323,-0.323,-0.363,-0.4522,-0.5844,-0.723,-0.8504,-0.9084,-0.9275,-0.9299,-0.9413,-0.896,-0.8199,-0.7201,-0.6126,-0.5031,-0.3629,-0.2823,-0.2313,-0.2089,-0.1288,-0.0492,-0.0193,0.1123,0.2522,0.3343,0.3528,0.369,0.3967,0.4099,0.4216,0.4216,0.3864,0.3502,0.3301,0.2452,0.1651,0.0813,0.0398,-0.0312,-0.1458,-0.1474,-0.1649,-0.2204,-0.2139,-0.2107,-0.2067,-0.2214,-0.2314,-0.2272,0.0,0.0,0.0,0.0,0.0,0.0,0.0,0.0,0.0,0.0,0.0,0.0,0.0,0.0,0.0,0.0,0.0,0.0,0.0,0.0,0.0,0.0,0.0,0.5029,0.5357,0.5746,0.6459,0.6258,0.6018,0.5961,0.5661,0.5395,0.5393,0.5168,0.5112,0.5112,0.5116,0.5116,0.5116,0.5116,0.5159,0.5247,0.5249,0.5335,0.5502,0.542,0.5382,0.5382,0.529,0.5202,0.512,0.5118,0.4799,0.4268,0.3623,0.253,0.1244,0.0611,-0.0101,-0.0907,-0.1714,-0.2522,-0.323,-0.323,-0.463,-0.6423,-0.6423,-0.7822,-0.9628,-0.9628,-0.9628,-0.9628,-0.9628,-0.9529,-0.9327,-0.8223,-0.7123,-0.6024,-0.4628,-0.3325,-0.2321,-0.2021,-0.1819,-0.1306,-0.0295,0.0579,0.1515,0.2599,0.2775,0.3122,0.4047,0.4212,0.0,0.421,0.3223,0.2488,0.2698,0.1474,0.0511,0.0327,0.008,-0.0549,-0.1566,-0.1537,-0.1704,-0.2257,-0.2161,-0.213,-0.2127,-0.2999,-0.3575,-0.3828,0.0,0.0,0.0,0.0,0.0,0.0,0.0,0.0,0.0,0.0,0.0,0.0,0.0,0.0,0.0,0.0,0.0,0.0,0.0,0.0,0.0,0.3261,0.4765,0.5274,0.5595,0.5862,0.6136,0.6139,0.603,0.5636,0.5698,0.5702,0.5177,0.5155,0.5206,0.5206,0.5269,0.5306,0.5306,0.5306,0.5318,0.5343,0.5343,0.5367,0.5416,0.5394,0.5414,0.5469,0.5384,0.5363,0.5394,0.5333,0.5196,0.4972,0.3488,0.2486,0.1824,0.0833,-0.0408,-0.1714,-0.1916,-0.2522,-0.323,-0.323,-0.463,-0.6423,-0.6423,-0.7822,-0.9628,-0.9628,-0.9628,-0.9628,-0.9628,-0.9027,-0.8223,-0.712,-0.6027,-0.4931,-0.3528,-0.2823,-0.2321,-0.2021,-0.1819,-0.1513,-0.1204,-0.0997,-0.0295,0.1424,0.1699,0.1781,0.2112,0.2197,0.0,0.2241,0.179,0.1696,0.231,0.1489,0.0691,0.0171,-0.0247,-0.095,-0.2143,-0.2064,-0.2082,-0.2199,-0.2179,-0.2371,-0.2834,-0.362,-0.4063,0.0,0.0,0.0,0.0,0.0,0.0,0.0,0.0,0.0,0.0,0.0,0.0,0.0,0.0,0.0,0.0,0.0,0.0,0.0,0.0,0.0,0.0,0.3208,0.4541,0.4512,0.5437,0.609,0.6101,0.6274,0.6231,0.5865,0.5963,0.5808,0.5377,0.5249,0.5302,0.5302,0.5351,0.5382,0.5382,0.5382,0.5382,0.5382,0.5382,0.54,0.5435,0.5398,0.5426,0.5504,0.542,0.5408,0.5451,0.5402,0.5154,0.4589,0.3214,0.1978,0.087,0.0,0.0,0.0,0.0,-0.2826,-0.323,-0.323,-0.463,-0.6423,-0.6423,-0.7822,-0.9628,-0.9628,-0.9327,-0.8924,-0.8924,-0.8124,-0.7024,-0.5824,-0.5129,-0.4331,-0.2925,-0.2423,-0.2222,-0.2021,-0.1819,-0.1617,-0.1617,-0.1617,0.0,-0.0098,0.0387,0.0859,0.1298,0.1385,0.1375,0.1256,0.0716,0.0537,0.0984,0.0,-0.0702,-0.0956,-0.1084,0.0,0.0,0.0,-0.2233,-0.2734,-0.2758,0.0,0.0,0.0,0.0,0.0,0.0,0.0,0.0,-0.7012,-0.7933,0.0,0.0,0.0,0.0,0.0,0.0,0.0,0.0,0.0,0.0,0.0,0.0,0.0,0.0,0.0,0.0,0.2991,0.3898,0.3321,0.5069,0.6436,0.6308,0.644,0.6599,0.6394,0.618,0.6023,0.5582,0.5443,0.5382,0.5382,0.5382,0.0,0.0,0.0,0.5382,0.5382,0.5382,0.5418,0.5492,0.5416,0.5426,0.5504,0.5306,0.516,0.517,0.5048,0.4369,0.3357,0.2687,0.0998,-0.1087,-0.1682,-0.2071,-0.2271,-0.2945,-0.323,-0.323,-0.323,0.0,0.0,-0.6423,-0.7822,-0.9628,-0.9628,-0.8825,-0.8021,-0.8021,-0.7123,-0.5924,-0.4728,-0.4329,-0.3927,-0.2622,-0.2222,-0.2022,-0.1921,-0.1718,-0.1617,-0.1617,-0.1617,-0.1617,-0.1617,-0.0896,0.0,0.0935,0.1021,0.1011,0.081,-0.0179,-0.0895,-0.0716,0.0,0.0,-0.2271,-0.193,-0.2044,-0.2612,-0.2071,-0.2337,-0.3489,-0.3779,-0.4488,-0.5821,-0.5962,-0.6459,-0.7285,-0.7439,-0.8069,-0.9081,-0.7985,-0.8976,0.0,0.0,0.0,0.0,0.0,0.0,0.0,0.0,0.0,0.0,0.0,0.0,0.0,0.0,0.0,-0.0274,0.0487,0.1431,0.2988,0.5237,0.6639,0.6643,0.6798,0.6708,0.6192,0.6182,0.6021,0.5466,0.5371,0.5382,0.5382,0.5382,0.5382,0.5382,0.5382,0.5382,0.5382,0.5382,0.539,0.5406,0.539,0.0,0.5504,0.4398,0.3947,0.3994,0.2928,0.2351,0.2015,0.1009,-0.0555,-0.2288,-0.2841,-0.2982,-0.3043,-0.3133,-0.323,-0.323,-0.323,-0.463,-0.6423,-0.6423,-0.7822,-0.9628,-0.9628,-0.8825,0.0,-0.8021,-0.6628,-0.5033,-0.4529,-0.3728,-0.2925,-0.2222,-0.2021,-0.1921,-0.1718,-0.1617,-0.1617,-0.1617,-0.1617,-0.1617,-0.1617,-0.141,-0.1196,-0.1071,-0.1149,-0.1223,-0.1199,-0.1813,-0.1792,-0.0805,-0.1524,-0.1791,-0.1425,-0.1566,-0.1958,-0.2677,-0.3239,-0.3647,-0.3866,-0.5371,-0.6258,-0.6379,-0.7083,-0.7508,-0.7659,-0.7691,-0.8724,-1.0582,-1.0284,-1.0798,0.0,0.0,0.0,0.0,0.0,0.0,0.0,0.0,0.0,0.0,0.0,-0.4358,-0.5087,0.0,-0.3689,-0.3665,-0.2562,-0.1049,0.126,0.2559,0.4193,0.6507,0.6818,0.6468,0.5304,0.5012,0.4814,0.448,0.448,0.4817,0.5382,0.5382,0.5382,0.5382,0.5382,0.5382,0.5382,0.4817,0.448,0.448,0.392,0.3598,0.3625,0.3033,0.2699,0.2719,0.2022,0.1456,0.0784,-0.0785,-0.1888,-0.284,-0.3218,-0.3354,-0.3275,-0.3275,-0.3256,-0.323,-0.3831,-0.5029,-0.6523,-0.7021,-0.8322,-0.9628,-0.9628,-0.8825,-0.7925,-0.7826,-0.6229,-0.4531,-0.413,-0.3228,-0.2323,-0.192,-0.1819,-0.1718,-0.1617,-0.1617,-0.1617,-0.1617,-0.1617,-0.1617,-0.1617,-0.1617,-0.1607,-0.1576,-0.1754,-0.1916,-0.1952,-0.2295,-0.2361,-0.1884,-0.2153,-0.2243,-0.2061,-0.2111,-0.2583,-0.3365,-0.382,-0.4449,-0.535,-0.6315,-0.6983,-0.7234,-0.7639,-0.8175,-0.8755,-0.8755,-0.981,-1.1815,-1.1856,-1.2304,0.0,0.0,0.0,0.0,0.0,0.0,0.0,0.0,-0.4157,-0.396,-0.4652,-0.5634,-0.6605,-0.5972,-0.5652,-0.6701,-0.5337,-0.3524,-0.1708,-0.0975,0.0874,0.5029,0.5704,0.53,0.3911,0.3469,0.3356,0.3245,0.3245,0.3694,0.4594,0.4722,0.4729,0.4729,0.4729,0.4729,0.4729,0.3699,0.3245,0.3245,0.2239,0.1791,0.1791,0.1567,0.1456,0.1456,0.1232,0.056,-0.0449,-0.202,-0.2784,-0.308,-0.3405,-0.3556,-0.3665,-0.3434,-0.3384,-0.3632,-0.4533,-0.5629,-0.6822,-0.7723,-0.8726,-0.9628,-0.9628,-0.8825,-0.7922,-0.773,-0.6229,-0.4628,-0.4128,-0.3327,-0.2523,-0.2019,-0.212,-0.212,-0.1718,-0.1717,-0.1818,-0.1617,-0.1617,-0.1617,-0.1617,-0.1617,-0.1609,-0.1584,-0.187,-0.2136,-0.2163,-0.252,-0.2772,-0.2897,-0.289,-0.2976,-0.3144,-0.3093,-0.3469,-0.4337,-0.4584,-0.5344,-0.6773,-0.7028,-0.745,-0.8122,-0.8284,-0.8857,-0.9776,-0.994,-1.0964,-1.2705,-1.2753,-1.3376,-0.4294,-0.2884,-0.0,-0.0077,-0.2903,-0.5887,0.0,0.0,-0.6391,-0.6281,-0.6489,-0.6703,-0.6826,-0.665,-0.6685,-0.6815,-0.669,-0.6542,-0.6441,-0.4531,-0.2218,0.0437,0.1657,0.223,0.2123,0.2235,0.2236,0.2015,0.2015,0.2015,0.2239,0.2158,0.206,0.206,0.206,0.206,0.206,0.203,0.2015,0.2015,0.1903,0.1791,0.1791,0.0672,0.0224,0.0112,-0.0897,-0.1458,-0.1683,-0.2357,-0.269,-0.2798,-0.3354,-0.4195,-0.4972,-0.3779,-0.3895,-0.4634,-0.4734,-0.6129,-0.7822,-0.7922,-0.8726,-0.9628,-0.9628,-0.8825,-0.8021,-0.7925,-0.6927,-0.5727,-0.5425,-0.5127,-0.4528,-0.3324,-0.3725,-0.3924,-0.2019,-0.2321,-0.2723,-0.1818,-0.1617,-0.1617,-0.1617,-0.1617,-0.1615,-0.1612,-0.1984,-0.2252,-0.2242,-0.2688,-0.3016,-0.2955,-0.295,-0.3292,-0.4037,-0.4111,-0.4545,-0.5505,-0.6295,-0.6825,-0.7088,-0.7884,-0.8416,-0.8507,-0.9278,-0.9716,-0.9908,-1.0682,-1.1643,-1.2711,-1.294,-1.358,-0.5093,-0.4116,-0.1886,0.0,-0.3303,-0.5078,-0.6267,-0.6705,-0.6822,-0.6782,-0.6831,-0.6915,-0.691,-0.6964,-0.7008,0.0,-0.7056,-0.7095,-0.7221,-0.6198,-0.5172,-0.4043,-0.2827,-0.1634,-0.0441,-0.0223,0.0112,0.0672,0.0784,0.1012,0.1703,0.1715,0.1729,0.1746,0.1747,0.1747,0.1747,0.1031,0.0795,0.0795,0.0,-0.0336,-0.0336,-0.0785,-0.1009,-0.1121,-0.157,-0.202,-0.2356,-0.2581,-0.3365,-0.4257,-0.459,-0.5314,-0.6187,-0.4773,-0.4988,-0.6017,-0.6453,-0.7226,-0.8124,-0.8726,-0.9229,-0.9628,-0.9628,-0.9327,-0.8924,-0.873,-0.7726,-0.6625,-0.6326,-0.5627,-0.4826,-0.4225,-0.4423,-0.4423,-0.2822,-0.3425,-0.3823,-0.2723,-0.3022,-0.3423,-0.3423,-0.3626,-0.3726,-0.3726,-0.2903,-0.2581,-0.3333,-0.3793,-0.4206,-0.4717,-0.4702,-0.4845,-0.5107,-0.5097,-0.5542,-0.6428,-0.6874,-0.7577,-0.8719,-0.9165,-0.9602,-1.012,-1.0549,-1.0982,-1.1499,-1.2071,-1.2841,-1.3726,-1.4102,-1.4506,-0.5485,0.0,0.0,-0.4267,-0.4428,-0.4859,-0.6479,-0.688,-0.6964,-0.6836,-0.6923,-0.6986,-0.6986,-0.7024,-0.7067,-0.7103,-0.7108,-0.7124,-0.7168,-0.707,-0.6875,-0.6743,-0.5794,-0.4482,-0.2799,-0.2637,-0.2118,-0.112,-0.1349,-0.1022,0.0115,-0.0233,-0.0236,0.012,0.0119,0.0238,0.0715,-0.0117,-0.0461,-0.0459,-0.1363,-0.1803,-0.1795,-0.1795,-0.2019,-0.2241,-0.2241,-0.2801,-0.3586,-0.3698,-0.4477,-0.5813,-0.5813,-0.6538,-0.7431,-0.645,-0.6527,-0.7211,-0.7821,-0.8261,-0.8524,-0.9327,-0.9628,-0.9628,-0.9529,-0.9529,-0.9529,-0.9232,-0.8428,-0.7624,-0.7425,-0.6528,-0.5627,-0.5327,-0.5427,-0.5327,-0.3924,-0.4526,-0.4926,-0.3823,-0.4225,-0.4824,-0.4824,-0.5027,-0.5229,-0.5329,-0.4227,-0.3707,-0.464,-0.5003,-0.5417,-0.601,-0.6054,-0.6093,-0.6277,-0.6236,-0.6573,-0.7467,-0.7521,-0.8197,-0.9859,-0.9859,-1.0376,-1.1241,-1.1651,-1.2117,-1.2813,-1.3342,-1.4014,-1.4649,-1.4943,-1.5197,0.0,0.0,-0.6309,-0.6949,-0.6883,-0.6661,-0.7121,-0.7089,-0.6975,-0.698,-0.6983,-0.6986,-0.6986,-0.6891,-0.6853,-0.6972,-0.6991,-0.7029,-0.7141,-0.7056,-0.6945,-0.6728,-0.5958,-0.5282,-0.4892,-0.471,-0.4284,-0.3576,-0.4653,-0.496,-0.3873,-0.507,-0.5311,-0.4018,-0.3963,-0.3321,-0.185,-0.1914,-0.1752,-0.1725,-0.1839,-0.1823,-0.1795,-0.1795,-0.2465,-0.358,-0.358,-0.436,-0.5699,-0.6031,-0.6359,-0.6689,-0.6916,-0.7805,-0.8786,-0.8632,-0.8397,-0.8252,-0.8248,-0.8858,-0.9529,-0.9628,-0.9628,-0.9529,-0.9335,-0.943,-0.9529,-0.9232,-0.9031,-0.8726,-0.8726,-0.8333,-0.7637,-0.6637,-0.7135,-0.7335,-0.5225,-0.5629,-0.6032,-0.4924,-0.4824,-0.4824,-0.4824,-0.5027,-0.5329,-0.5525,-0.5727,-0.5927,-0.5924,-0.6129,-0.6252,-0.6244,-0.6233,-0.6632,-0.757,-0.7434,-0.7713,-0.8721,-0.8658,-0.8999,-0.9859,-0.9859,-1.0376,-1.1241,-1.2423,-1.3085,-1.3085,-1.4352,-1.495,-1.4957,-1.5251,-1.5391,-0.6077,0.0,-0.6435,-0.658,-0.7214,-0.7787,-0.7923,-0.8275,-0.8517,-0.8069,-0.8191,-0.8125,-0.7693,-0.7913,-0.8273,-0.8421,-0.8528,-0.8754,-0.8896,-0.8794,-0.8648,-0.8496,-0.8262,-0.8239,-0.8602,-0.616,-0.4428,-0.4066,-0.4912,-0.5272,-0.5,-0.5714,-0.597,-0.5612,-0.559,-0.5322,-0.4818,-0.4798,-0.4712,-0.4686,-0.4423,-0.4318,-0.4137,-0.4137,-0.436,-0.4804,-0.5029,-0.5475,-0.6142,-0.647,-0.7246,-0.814,-0.8254,-0.903,-1.0131,-1.0929,-1.1074,-1.0719,-0.976,-0.9544,-0.9778,-0.9665,-0.9628,-0.9628,-0.9529,-0.9529,-0.9628,-0.9529,-0.9232,-0.9031,-0.8825,-0.8531,-0.8137,-0.7637,-0.7836,-0.7832,-0.6232,-0.683,-0.7332,-0.6132,-0.6431,-0.693,-0.7126,-0.7425,-0.7726,-0.8223,-0.7723,-0.7325,-0.7325,-0.7984,-0.8409,-0.8397,-0.8335,-0.8357,-0.8633,-0.9204,-0.9622,-0.9994,-1.0663,-1.1436,-1.2327,-1.2327,-1.2779,-1.3768,-1.4129,-1.4359,-1.4359,-1.5013,-1.5251,-1.5257,-1.5545,-1.5685,-0.6472,-0.6747,-0.7134,-0.7483,-0.8242,-0.8886,-0.8781,-0.9172,-0.9359,-0.8862,-0.872,-0.8664,-0.8364,-0.8743,-0.9038,-0.9242,-0.9553,-0.9792,-0.9757,-0.9876,-0.9838,-0.9414,-0.9973,-1.0432,-1.075,-0.8718,-0.6931,-0.6032,-0.6542,-0.6759,-0.6404,-0.7197,-0.7506,-0.7171,-0.714,-0.6864,-0.6348,-0.6196,-0.6071,-0.597,-0.5729,-0.5562,-0.5361,-0.5361,-0.5695,-0.6142,-0.6366,-0.7138,-0.8345,-0.8562,-0.9442,-1.0773,-1.0773,-1.1214,-1.1987,-1.2738,-1.2974,-1.2694,-1.1541,-1.1148,-1.1057,-1.0757,-1.0694,-1.0694,-1.0596,-1.0596,-1.0694,-1.0596,-1.0404,-1.0301,-1.0096,-0.9899,-0.9604,-0.941,-0.9509,-0.9402,-0.8506,-0.9008,-0.9406,-0.851,-0.8909,-0.941,-0.9608,-0.9899,-1.0194,-1.0596,-1.0092,-0.9399,-0.8619,-0.9126,-0.9583,-0.9466,-0.9833,-0.9974,-0.9858,-1.0707,-1.1311,-1.1311,-1.1886,-1.258,-1.3586,-1.3586,-1.4044,-1.4963,-1.5064,-1.5117,-1.5117,-1.5858,-1.6188,-1.6195,-1.6836,-1.7109,-0.7102,-0.7547,-0.8374,-0.957,-0.9904,-0.99,-0.9798,-0.9656,-0.9473,-0.9302,-0.8877,-0.8624,-0.9029,-0.9321,-0.952,-0.9536,-1.0161,-1.0561,-1.0159,-1.0534,-1.0547,0.0,0.0,0.0,0.0,0.0,-1.159,-0.9375,-0.9575,-0.9304,-0.8355,-0.9865,-1.0159,-0.8967,-0.8853,-0.8138,-0.6834,-0.6732,-0.6538,-0.6253,-0.6054,-0.5908,-0.581,-0.5806,-0.6581,-0.7922,-0.7922,-0.9457,-1.2087,-1.2087,-1.2842,-1.4132,-1.4132,-1.4132,-1.4137,-1.4132,-1.4239,-1.4174,-1.3708,-1.3393,-1.316,-1.2813,-1.2727,-1.263,-1.2436,-1.2533,-1.263,-1.2436,-1.2339,-1.2339,-1.2339,-1.2145,-1.195,-1.1945,-1.195,-1.195,-1.1945,-1.1945,-1.1945,-1.1848,-1.1853,-1.1848,-1.1945,-1.2139,-1.2436,-1.263,-1.2727,-1.1955,-1.0015,-0.9723,-0.9723,-0.9723,-1.069,-1.1268,-1.1268,-1.2135,-1.2576,-1.2576,-1.2461,-1.2797,-1.3719,-1.3719,-1.4179,-1.51,-1.5369,-1.551,-1.5602,-1.7079,-1.7777,-1.7777,-1.8956,-1.9497,-0.7287,-0.8073,-0.9069,-0.9738,-1.0252,-1.0588,-1.0481,-1.0659,-1.0666,-1.036,-1.0209,-1.0019,-0.9852,-1.0875,-1.1778,-1.2253,-1.3204,0.0,-1.4574,-1.4494,0.0,-1.432,0.0,-1.4908,-1.4961,-1.4525,0.0,-1.4033,-1.2961,-1.2342,-1.2461,-1.3147,-1.3526,-1.332,-1.3278,-1.3118,-1.2722,-1.241,-1.2048,-1.1758,-1.1624,-1.1352,-1.1172,-1.1244,-1.1511,-1.1851,-1.2064,-1.2611,-1.327,-1.3485,-1.3809,-1.4132,-1.4132,-1.4132,-1.4239,-1.5102,-1.5429,-1.5459,-1.5769,-1.4725,-1.3287,-1.2867,-1.2727,-1.2727,-1.263,-1.263,-1.2727,-1.263,-1.2635,-1.2533,-1.2339,-1.2242,-1.2145,-1.195,-1.2042,-1.2145,-1.1945,-1.195,-1.195,-1.1755,-1.1658,-1.1755,-1.195,-1.2145,-1.2436,-1.263,-1.2727,-1.2538,-1.1955,-1.1955,-1.1955,-1.1955,-1.2145,-1.2339,-1.2339,-1.3256,-1.3802,-1.3802,-1.4502,-1.5029,-1.5223,-1.5223,-1.5691,-1.6714,-1.6793,-1.7287,-1.8187,-1.8548,-1.8864,-1.9047,-1.9405,-1.9497,-0.8663,-0.9411,-1.0335,-1.0895,-1.1259,-1.1473,-1.1152,-1.1263,-1.1219,-1.078,-1.0778,-1.0625,-1.0309,-1.1552,-1.2754,0.0,0.0,0.0,-1.5995,-1.6562,-1.682,0.0,-1.7578,0.0,-1.8071,-1.7821,-1.7889,-1.8502,-1.5611,-1.3899,-1.4246,-1.4563,-1.4785,-1.4903,-1.4907,-1.4907,-1.4907,-1.4614,-1.4308,-1.388,-1.3798,-1.3541,-1.3237,-1.3325,-1.3372,-1.348,-1.3593,-1.4024,-1.4669,-1.4781,-1.5209,-1.5636,-1.6156,-1.6362,-1.6467,-1.7634,-1.806,-1.8074,-1.8082,-1.7251,-1.5944,-1.4534,-1.4364,-1.474,-1.474,-1.5013,-1.538,-1.538,-1.538,-1.538,-1.5184,-1.5184,-1.5089,-1.4988,-1.5089,-1.5089,-1.4988,-1.4994,-1.4899,-1.4797,-1.4797,-1.4797,-1.4994,-1.5089,-1.5184,-1.538,-1.538,-1.538,-1.538,-1.3771,-1.2915,-1.3278,-1.3765,-1.4238,-1.4601,-1.567,-1.6264,-1.6264,-1.6835,-1.7124,-1.7124,-1.7124,-1.7404,-1.7971,-1.8056,-1.8411,-1.9131,-1.9761,-2.0124,-2.0305,-2.0854,-2.1042,-1.0174,-1.0891,-1.1779,-1.2517,-1.2611,-1.2321,-1.1869,-1.1754,-1.1515,-1.1065,0.0,-1.0668,-1.0554,-1.1713,-1.2882,-1.3218,0.0,-1.5923,-1.6438,-1.7642,-1.834,-1.8177,-2.0021,-2.1122,-2.0672,-2.1043,-2.1645,-2.2069,-1.7958,-1.5477,-1.5477,-1.5726,-1.5809,-1.5684,-1.5804,-1.5934,-1.5809,-1.5695,-1.5491,-1.5208,-1.4916,-1.4668,-1.4266,-1.4341,-1.4432,-1.4652,-1.4652,-1.5405,-1.6592,-1.6592,-1.7134,-1.8094,-1.9027,-1.9435,-1.9539,-2.0577,-2.0853,-2.0718,-2.0043,-1.9781,-1.9349,-1.694,-1.6763,-1.7512,-1.7512,-1.8149,-1.8788,-1.8788,-1.8788,-1.8788,-1.8788,-1.8788,-1.8788,-1.8788,-1.8788,-1.8788,-1.8788,-1.8788,-1.8696,-1.8696,-1.8696,-1.8696,-1.8696,-1.8788,-1.8788,-1.8788,-1.8788,-1.8788,-1.8788,-1.5664,-1.3855,-1.4677,-1.5651,-1.6504,-1.7316,-1.8295,-1.8788,-1.8788,-1.8788,-1.8788,-1.888,-1.888,-1.888,-1.9063,-1.9231,-1.9405,-1.9588,-2.0854,-2.1569,-2.1738,-2.2677,-2.3135,-1.0425,-1.1109,-1.2302,-1.3653,-1.344,-1.2856,-1.2864,-1.2279,0.0,0.0,-1.0805,-1.0632,-1.1087,-1.1918,-1.3336,-1.5645,-1.6305,-1.7423,-1.9803,-1.9888,-1.9847,0.0,-2.1082,-2.1663,-2.1797,-2.1943,-2.1992,-2.2104,-2.124,-2.0797,-2.0797,-2.077,-2.0436,-1.9674,-2.0923,-2.1294,-2.0423,-2.0791,-2.1,-2.0995,-2.0084,-1.959,-1.9466,-1.9524,-1.9612,-1.9612,-1.9612,-1.9826,-2.0048,-2.0048,-2.0158,-2.0364,-2.057,-2.0577,-2.0672,-2.0783,-2.0694,-2.0377,-1.9955,-1.9622,-1.9225,-1.8458,-1.8427,-1.8519,-1.8519,-1.8696,-1.8788,-1.8788,-1.8788,-1.8788,-1.8788,-1.8788,-1.8788,-1.8788,-1.8788,-1.8788,-1.8788,-1.8596,-1.8403,-1.8218,-1.8133,-1.8218,-1.8395,-1.8488,-1.8588,-1.8788,-1.8788,-1.8788,-1.8788,-1.8218,-1.784,-1.8018,-1.8126,-1.8319,-1.8495,-1.8688,-1.8788,-1.8788,-1.8788,-1.8872,-1.9047,-1.9047,-1.9497,-2.0593,-2.0683,-2.1141,-2.2157,-2.2432,-2.3028,-2.3963,-2.3387,-2.3474,-1.203,-1.2805,-1.3859,-1.4484,-1.4236,-1.3607,-1.2955,0.0,0.0,0.0,-1.1174,-1.1224,-1.143,-1.2277,0.0,-1.4927,-1.6312,-1.7961,-2.0127,-2.1195,-2.2291,-2.3706,-2.4563,-2.5237,-2.5603,-2.5635,-2.5399,-2.4687,-2.4687,-2.3953,-2.223,-2.2111,-2.2097,-2.195,-2.2341,-2.2466,-2.2327,-2.2215,-2.2105,-2.1925,-2.1325,-2.0984,-2.0812,-2.0862,-2.0885,-2.0885,-2.0885,-2.0885,-2.0885,-2.0885,-2.0885,-2.0987,-2.1497,-2.1709,-2.1802,-2.2417,-2.2369,-2.1884,-2.1508,-2.1131,-2.0754,-2.0386,-1.9985,-1.9613,-1.9613,-1.9894,-2.0357,-2.0357,-2.0357,-2.0357,-2.0357,-2.0357,-2.0357,-2.0357,-2.0619,-2.0962,-2.1302,-2.1284,-2.1176,-2.1007,-2.1007,-2.1096,-2.1185,-2.1176,-2.1275,-2.1382,-2.1382,-2.1382,-2.1382,-2.1382,-2.0935,-1.9695,-1.9613,-1.9795,-2.0266,-2.0357,-2.0439,-2.0881,-2.0881,-2.097,-2.1132,-2.1649,-2.2082,-2.2463,-2.3057,-2.3674,-2.4231,-2.4317,-2.4648,-2.5158,-2.4734,-2.4734,-1.3818,-1.4504,-1.5124,-1.5214,-1.4936,-1.4372,-1.3371,-1.3259,0.0,0.0,-1.1693,-1.1792,-1.1736,-1.2496,-1.3447,0.0,-1.5893,-1.7837,-2.0086,-2.1925,-2.3767,0.0,-2.724,0.0,-2.8865,-2.892,-2.8444,-2.7495,-2.7375,-2.6034,-2.2856,-2.2731,-2.2849,-2.3208,-2.3091,-2.3179,-2.3462,-2.2948,-2.2611,-2.2495,-2.2102,-2.1767,-2.1599,-2.1599,-2.1599,-2.1599,-2.1599,-2.1599,-2.1599,-2.1794,-2.1887,-2.1988,-2.3003,-2.3311,-2.3402,-2.423,-2.4234,-2.3813,-2.3327,-2.2999,-2.2588,-2.2269,-2.1526,-2.0799,-2.0799,-2.1436,-2.2167,-2.2167,-2.2167,-2.2167,-2.2167,-2.2167,-2.2167,-2.2167,-2.2608,-2.3135,-2.3714,-2.38,-2.38,-2.38,-2.38,-2.38,-2.38,-2.38,-2.3877,-2.4039,-2.4125,-2.42,-2.4361,-2.42,-2.3491,-2.1868,-2.1293,-2.1418,-2.2255,-2.2344,-2.2599,-2.3212,-2.3299,-2.3387,-2.3647,-2.4317,-2.4573,-2.4221,-2.5147,-2.5568,-2.5568,-2.5735,-2.5902,-2.608,-2.5902,-2.5913,-1.4932,-1.4981,-1.5089,-1.6072,-1.5471,-1.473,-1.4796,0.0,0.0,-1.234,-1.1995,-1.1912,-1.2198,-1.2246,-1.3244,0.0,0.0,-1.6882,-2.1165,-2.1668,-2.2661,-2.5164,0.0,0.0,-2.881,-2.892,-2.8801,-2.8683,-2.8683,-2.7607,-2.498,-2.4857,-2.4479,-2.3604,-2.4964,-2.5408,-2.4691,-2.5028,-2.541,-2.5549,-2.447,-2.3881,-2.3945,-2.3945,-2.3945,-2.3945,-2.3945,-2.3945,-2.3945,-2.4609,-2.4894,-2.4992,-2.5771,-2.6157,-2.6108,-2.572,-2.5292,-2.4935,-2.4426,-2.3978,-2.3677,-2.3637,-2.3115,-2.253,-2.253,-2.3038,-2.3627,-2.3627,-2.3627,-2.3627,-2.3627,-2.3627,-2.3627,-2.3627,-2.3627,-2.3714,-2.38,-2.38,-2.38,-2.38,-2.38,-2.38,-2.38,-2.38,-2.4029,-2.483,-2.4999,-2.5325,-2.6289,-2.5565,-2.5303,-2.6199,-2.4629,-2.3704,-2.4241,-2.4241,-2.4392,-2.4872,-2.4872,-2.4967,-2.5231,-2.5316,-2.5484,-2.5568,-2.5735,-2.5735,-2.5735,-2.583,-2.6246,-2.701,-2.6163,-2.6246,-1.5611,-1.6293,-1.6917,-1.7316,-1.7103,-1.6468,-1.5351,0.0,-1.4373,-1.2898,-1.2478,-1.252,-1.2988,-1.303,-1.3541,0.0,-1.5785,-1.6997,-1.9908,-2.1091,-2.2891,-2.6182,-2.7629,-2.9055,-3.0626,-3.1031,-3.082,-3.0109,-2.9275,-2.8564,-2.7718,-2.7486,-2.7478,-2.7692,-2.7591,-2.7633,-2.7567,-2.6938,-2.6576,-2.638,-2.5884,-2.5596,-2.5596,-2.5596,-2.5596,-2.5596,-2.5596,-2.5596,-2.5596,-2.5877,-2.6071,-2.6061,-2.635,-2.6456,-2.6406,-2.5869,-2.5418,-2.5048,-2.4536,-2.4183,-2.38,-2.38,-2.3897,-2.4003,-2.356,-2.3551,-2.38,-2.38,-2.38,-2.38,-2.38,-2.38,-2.3887,-2.4327,-2.4413,-2.4754,-2.5663,-2.583,-2.6058,-2.6591,-2.6744,-2.6826,-2.6885,-2.6966,-2.7047,-2.7359,-2.744,-2.7601,-2.8001,-2.7681,-2.7589,-2.8136,-2.6135,-2.5083,-2.5876,-2.5648,-2.5826,-2.6803,-2.6509,-2.6591,-2.7151,-2.774,-2.79,-2.7728,-2.8219,-2.8469,-2.8469,-2.8469,-2.8718,-2.9069,-2.8639,-2.8718,-1.6439,-1.7401,-1.8271,-1.8162,-1.7898,-1.7368,0.0,-1.577,-1.5215,-1.365,-1.3283,-1.3341,-1.3563,-1.3577,-1.3921,0.0,-1.576,-1.7144,-1.9485,-2.0872,-2.2991,-2.6381,0.0,-2.9361,-3.165,-3.2748,-3.281,-3.1652,-3.0694,-3.05,-3.0922,-3.0682,-3.0345,-3.0006,-2.901,-2.8653,-2.8901,-2.7738,-2.7065,-2.6859,-2.6613,-2.6456,-2.6456,-2.6456,-2.6638,-2.6904,-2.6638,-2.6638,-2.6904,-2.6829,-2.6829,-2.6839,-2.7125,-2.722,-2.7053,-2.6465,-2.5941,-2.5671,-2.5016,-2.4854,-2.4808,-2.4808,-2.5316,-2.583,-2.5294,-2.4808,-2.4413,-2.4413,-2.4563,-2.4808,-2.4808,-2.4967,-2.5294,-2.5902,-2.5997,-2.6246,-2.7464,-2.7718,-2.7867,-2.8627,-2.8785,-2.8851,-2.8995,-2.8995,-2.9073,-2.9332,-2.9409,-2.9487,-2.9795,-2.9564,-2.9564,-2.9948,-2.816,-2.7175,-2.7714,-2.7336,-2.7521,-2.8579,-2.8287,-2.8299,-2.8839,-2.9512,-2.9756,-2.9409,-2.9999,-3.0317,-3.0317,-3.0317,-3.0317,-3.0317,-3.0393,-3.0607,-1.7615,-1.8151,-1.8725,-1.8365,-1.7383,-1.6648,-1.7302,-1.6277,-1.5077,-1.4555,-1.4503,-1.4318,-1.3705,-1.3716,-1.4272,-1.5647,-1.6039,-1.7335,-2.054,-2.1298,-2.2493,0.0,-2.6142,-2.7947,-3.1356,-3.3656,-3.4368,-3.3306,-3.3409,-3.3849,-3.4422,-3.44,-3.2806,-2.9193,-2.8691,-2.8319,-2.8028,-2.7166,-2.6849,-2.7041,-2.6677,-2.6456,-2.6456,-2.6456,-2.6989,-2.787,-2.6894,-2.6989,-2.7881,-2.7662,-2.7589,-2.7683,-2.8466,-2.8757,-2.8637,-2.7676,-2.7315,-2.7173,-2.6234,-2.6467,-2.7174,-2.7174,-2.773,-2.8347,-2.8335,-2.7162,-2.5895,-2.5895,-2.6539,-2.7174,-2.7174,-2.7718,-2.8414,-2.8639,-2.8481,-2.8493,-2.8929,-2.8851,-2.8785,-2.8995,-2.8995,-2.8995,-2.8995,-2.8995,-2.9319,-3.0165,-3.0317,-3.0633,-3.173,-3.0947,-3.0784,-3.2023,-3.122,-3.0304,-2.9691,-2.9704,-2.9858,-3.0241,-3.0241,-3.0241,-3.0241,-3.0317,-3.0317,-3.0317,-3.0317,-3.0317,-3.0317,-3.0317,-3.0317,-3.0317,-3.067,-3.1415,-1.7627,-1.8134,-1.877,-1.8202,-1.8094,-1.7949,-1.7131,-1.6905,-1.6445,-1.4942,-1.4652,-1.456,-1.4387,-1.4398,-1.5088,-1.7213,0.0,0.0,-2.0749,-2.255,0.0,-2.603,-2.9653,-3.2753,-3.4544,-3.5684,-3.6013,-3.5262,-3.525,-3.5344,-3.5341,-3.5004,-3.428,-3.3066,-3.2601,-3.2085,-3.1409,-3.0852,-3.0371,-3.0171,-3.0011,-3.0022,-3.0022,-3.0022,-3.0112,-3.0371,-3.0112,-3.0112,-3.0461,-3.0395,-3.0305,-3.0395,-3.0765,-3.0554,-3.0091,-2.9721,-2.9248,-2.8715,-2.8241,-2.8231,-2.839,-2.839,-2.8615,-2.8773,-2.8773,-2.8243,-2.7637,-2.7775,-2.8016,-2.8255,-2.839,-2.8627,-2.8851,-2.8929,-2.8851,-2.902,-2.9743,-3.024,-3.0742,-3.1496,-3.2051,-3.2467,-3.2609,-3.2609,-3.2693,-3.3017,-3.3031,-3.3185,-3.3506,-3.3255,-3.3185,-3.3575,-3.3325,-3.282,-3.2119,-3.1267,-3.1402,-3.2961,-3.2177,-3.1829,-3.2277,-3.2277,-3.2087,-3.1629,-3.1629,-3.169,-3.1955,-3.1955,-3.2101,-3.2376,-3.2461,-3.2818,0.0,-1.8152,-1.8808,-1.8271,-1.827,-1.8289,-1.7555,-1.7454,-1.7051,-1.5611,-1.532,-1.5276,-1.5017,-1.5017,-1.5658,-1.7585,-1.8279,0.0,0.0,0.0,0.0,-2.7185,-3.138,-3.4255,-3.471,-3.6205,-3.682,-3.5968,-3.5895,-3.5884,-3.5849,-3.5318,-3.5054,-3.5046,-3.4222,-3.3458,-3.2703,-3.2256,-3.1901,-3.1577,-3.1577,-3.1577,-3.1577,-3.1577,-3.184,-3.2178,-3.1828,-3.2003,0.0,-3.2003,-3.1828,-3.1916,-3.1991,-3.1588,-3.0894,-3.0648,-3.0204,-2.9528,-2.9113,-2.9241,-2.9487,-2.9487,-2.9935,-3.0379,-3.0379,-2.9551,-2.8639,-2.8785,-2.902,-2.9344,-2.9499,-2.9935,-3.0379,-3.0441,-3.0641,-3.0939,-3.1656,-3.2092,-3.2579,-3.3255,-3.3822,-3.4163,-3.4312,-3.4312,-3.4312,-3.4312,-3.4312,-3.4312,-3.4312,-3.4312,-3.4312,-3.4312,-3.4312,-3.4245,-3.4041,-3.2975,-3.2904,-3.423,-3.3518,-3.3255,-3.363,-3.363,-3.3437,-3.3115,-3.3129,-3.3241,-3.3492,-3.3492,-3.3713,-3.407,-3.407,-3.4274,0.0,-1.8021,-1.8753,-1.8423,-1.8052,-1.7845,-1.8321,-1.7897,0.0,-1.6467,-1.6429,-1.6337,-1.5799,-1.5706,-1.6154,-1.747,-1.8614,0.0,0.0,-2.4518,-2.6416,-2.8961,-3.181,-3.3347,-3.278,-3.5624,-3.7009,-3.592,-3.5601,-3.5612,-3.6138,-3.5667,-3.5263,-3.5325,-3.3928,-3.2907,-3.2412,-3.2007,-3.184,-3.184,-3.184,-3.184,-3.184,-3.184,-3.2451,-3.3395,-3.2513,-3.2784,-3.3746,-3.287,-3.2525,-3.2525,-3.2513,-3.208,-3.1499,-3.1051,-3.0481,-2.9911,-2.9546,-2.9935,-3.0607,-3.0607,-3.1576,-3.2832,-3.2832,-3.1214,-2.9372,-2.9372,-2.9948,-3.0532,-3.0607,-3.1723,-3.2832,-3.2946,-3.3408,-3.3876,-3.423,-3.4163,-3.4163,-3.438,-3.4447,-3.4447,-3.4447,-3.4447,-3.4447,-3.4447,-3.4447,-3.4447,-3.4447,-3.4447,-3.4514,-3.4514,-3.4514,-3.478,-3.5464,-3.478,-3.438,-3.4447,-3.4447,-3.4365,-3.4365,-3.438,-3.4447,-3.4595,-3.4662,-3.4714,-3.4832,-3.4898,-3.5044,-3.5464,-3.5464,-3.5593,-1.6493,0.0,-1.7982,-1.7751,-1.7953,-1.8155,0.0,-1.7961,-1.7848,0.0,0.0,-1.7061,-1.8166,-1.7656,-1.8174,-2.1626,-2.2429,-2.3217,-2.5011,-2.7631,-3.0498,-3.3398,-3.477,-3.5581,-3.589,-3.7021,-3.7513,-3.6759,-3.6619,-3.6482,-3.6172,-3.5629,-3.5301,-3.5312,-3.5173,-3.4672,-3.3892,-3.3764,-3.3784,-3.3784,-3.3953,-3.405,-3.405,-3.4204,-3.4454,-3.4634,-3.4454,-3.4538,-3.4729,-3.4551,-3.4454,-3.4454,-3.462,-3.3907,-3.2975,-3.3661,-3.322,-3.2196,-3.282,-3.3213,-3.338,-3.338,-3.3616,-3.3905,-3.3905,-3.3296,-3.2623,-3.2764,-3.3003,-3.3171,-3.331,-3.3602,-3.3905,-3.3959,-3.4095,-3.4163,-3.4312,-3.4714,-3.5059,-3.5124,-3.5608,-3.6006,-3.6006,-3.6006,-3.6006,-3.6006,-3.6006,-3.6006,-3.6117,-3.6117,-3.618,-3.6336,-3.6336,-3.6476,-3.66,-3.519,-3.478,-3.5943,-3.5578,-3.529,-3.529,-3.5434,-3.5305,-3.4765,-3.5059,-3.527,-3.5255,-3.5514,-3.5706,-3.5785,-3.5785,-3.5849,-1.6336,-1.7446,-1.844,-1.8166,-1.8625,-1.9046,-1.8537,0.0,0.0,0.0,0.0,-1.7565,-1.8584,-1.9021,-2.007,0.0,-2.4465,-2.6277,-2.8589,-3.0496,-3.2455,-3.4672,-3.5391,-3.5861,-3.6188,-3.6737,-3.6946,-3.6619,-3.6358,-3.6318,-3.6449,-3.5902,-3.5843,-3.6307,-3.646,-3.6042,-3.5032,-3.5413,-3.5642,-3.5722,-3.591,-3.607,-3.607,-3.6149,-3.6215,-3.636,-3.636,-3.636,-3.6439,-3.6439,-3.6439,-3.6517,-3.6596,-3.5844,-3.4682,-3.5362,-3.4711,-3.3616,-3.4095,-3.4312,-3.4312,-3.4312,-3.4514,-3.478,-3.478,-3.4912,-3.4846,-3.4298,-3.4163,-3.4163,-3.4245,-3.4581,-3.478,-3.478,-3.5059,-3.5335,-3.5335,-3.5657,-3.5991,-3.5991,-3.6399,-3.6754,-3.6754,-3.6754,-3.6754,-3.6754,-3.6754,-3.6754,-3.68,-3.6862,-3.6862,-3.7015,-3.7015,-3.7015,-3.7015,-3.6322,-3.6119,-3.6677,-3.6399,-3.6243,-3.6243,-3.6321,-3.6243,-3.5946,-3.6228,-3.6368,-3.6368,-3.6569,-3.6631,-3.6631,-3.6784,-3.6845,-1.6712,-1.8216,-1.9487,-1.8728,-1.9374,-2.0051,-1.952,0.0,0.0,0.0,0.0,0.0,0.0,-2.0398,0.0,0.0,0.0,-2.932,-3.2429,-3.3095,-3.3662,-3.4735,-3.5249,-3.5566,-3.5566,-3.5976,-3.6241,-3.6326,-3.5902,-3.6029,-3.6851,-3.6477,-3.6596,-3.7434,-3.7587,-3.7204,-3.6201,-3.6894,-3.7281,-3.7281,-3.7434,-3.751,-3.751,-3.7587,-3.7648,-3.7861,-3.7861,0.0,-3.8101,-3.8101,-3.8101,-3.8101,-3.8101,-3.7317,-3.6199,-3.6341,-3.554,-3.4514,-3.4581,-3.4647,-3.4647,-3.4647,-3.5059,-3.5544,-3.5544,-3.6006,-3.6274,-3.5044,-3.4647,-3.4647,-3.4647,-3.5124,-3.5593,-3.5657,-3.6133,-3.6554,-3.6554,-3.6677,-3.6723,-3.6723,-3.6862,-3.7015,-3.7015,-3.706,-3.7105,-3.7105,-3.721,-3.727,-3.727,-3.727,-3.7329,-3.7329,-3.7345,-3.7345,-3.7345,-3.7738,-3.7838,-3.7389,-3.7329,-3.7329,-3.7329,-3.7345,-3.7373,-3.7519,-3.7669,-3.7743,-3.7743,-3.7801,-3.7743,-3.77,-3.7943,-3.8042,-1.793,-1.9811,-2.073,-1.8107,-1.8945,-2.018,0.0,0.0,0.0,0.0,0.0,0.0,0.0,-2.2797,-2.3689,0.0,0.0,-3.2188,-3.471,-3.5497,-3.5989,-3.6718,-3.6665,-3.6721,-3.6878,-3.6962,-3.7097,-3.7253,-3.7169,-3.719,-3.7423,-3.7337,-3.7357,-3.7525,-3.819,-3.8428,-3.8264,-3.7738,-3.7434,-3.7434,-3.7648,-3.7785,-3.7785,-3.7951,-3.8011,-3.8026,-3.8026,-3.8101,-3.8101,-3.8101,-3.8101,-3.8101,-3.8101,-3.7317,-3.6285,-3.6916,-3.6305,-3.5335,-3.5943,-3.6148,-3.6148,-3.6148,-3.6211,-3.6352,-3.6352,-3.6476,-3.66,-3.6383,-3.6274,-3.6211,-3.6321,-3.6383,-3.6523,-3.6739,-3.6816,-3.6938,-3.6938,-3.6938,-3.6938,-3.6938,-3.6999,-3.7015,-3.7015,-3.7358,-3.7663,-3.7663,-3.8092,-3.8486,-3.8596,-3.8596,-3.8652,-3.8865,-3.8865,-3.8865,-3.8865,-3.892,-3.8974,-3.8882,-3.8723,-3.8668,-3.8882,-3.8865,-3.8865,-3.8865,-3.892,-3.8936,-3.8936,-3.9065,-3.892,-3.8583,-3.8668,-3.8574,-1.7574,-1.9267,-2.0429,-1.9031,-2.1223,-2.3536,-2.279,0.0,0.0,0.0,0.0,0.0,0.0,0.0,-2.7426,-3.1439,0.0,-3.4127,-3.6081,-3.6432,-3.6707,-3.7286,-3.7281,-3.7281,-3.7357,-3.7357,-3.7434,-3.751,-3.751,-3.7738,-3.825,-3.8324,-3.8561,-3.9103,-3.9478,-3.9707,-3.9707,-3.9334,-3.9103,-3.9045,-3.916,-3.9233,-3.9233,-3.9376,-3.9391,-3.9391,0.0,-3.9391,-3.9391,-3.9391,-3.9463,-3.9561,-3.9143,-3.8476,-3.7661,-3.7308,-3.6794,-3.6336,-3.6677,-3.6754,-3.6754,-3.6754,-3.6754,-3.6754,-3.6754,-3.68,-3.6862,-3.6862,-3.68,-3.68,-3.6862,-3.6862,-3.6877,-3.6999,-3.7015,-3.706,-3.7358,-3.7551,-3.7653,-3.7953,-3.8084,-3.8214,-3.8214,-3.8423,-3.8574,-3.8574,-3.8778,-3.8995,-3.9049,-3.9065,-3.9119,-3.9206,-3.9206,-3.9206,-3.9206,-3.9454,-3.9506,-3.9206,-3.9119,-3.9119,-3.9206,-3.9206,-3.9206,-3.9206,-3.9206,-3.9259,-3.9295,-3.9385,-3.9315,-3.9156,-3.942,-3.942,-1.7591,-1.8917,-2.0335,-2.0656,0.0,-2.5527,-2.5903,0.0,0.0,0.0,0.0,0.0,0.0,-2.7749,0.0,-3.456,-3.517,-3.5638,-3.7172,-3.7252,-3.7448,-3.8043,-3.813,-3.813,-3.813,-3.813,-3.8204,-3.819,-3.819,-3.8561,-3.9305,-3.9376,-3.9692,-4.0455,-4.0524,-4.0524,-4.0593,-4.0715,-4.0646,-4.0347,-4.0455,-4.0524,-4.0593,-4.0593,-4.0608,-4.0608,-4.0608,-4.0569,-4.0346,-4.0346,-4.039,-4.0339,-3.9827,-3.9271,-3.8637,-3.7452,-3.7015,-3.7015,-3.7015,-3.7015,-3.7015,-3.7015,-3.7015,-3.7015,-3.7015,-3.6999,-3.706,-3.7225,-3.7285,-3.727,-3.7105,-3.7165,-3.7285,-3.727,-3.7389,-3.761,-3.8067,-3.8238,-3.8479,-3.8887,-3.9065,-3.9206,-3.9206,-3.9295,-3.9401,-3.9401,-3.9523,-3.9627,-3.9627,-3.9627,-3.9627,-3.9627,-3.9627,-3.9662,-3.9662,-4.0053,-4.0103,-3.9697,-3.9662,-3.961,-3.961,-3.9662,-3.9645,-3.9645,-3.9645,-3.9697,-3.9834,-3.9834,-3.9834,-3.98,-4.0086,-4.0203,-1.9225,-2.0304,-2.1339,-2.2926,0.0,0.0,-2.5575,0.0,0.0,0.0,0.0,0.0,0.0,-2.9958,-3.1917,-3.4053,-3.5429,-3.6745,-3.8188,-3.8727,-3.9245,-4.003,-3.991,-3.991,-4.0051,-4.0121,-4.0176,-4.0301,-4.0301,-4.0301,-4.0385,-4.0385,-4.0455,-4.0524,-4.0524,-4.0593,-4.0799,-4.1425,-4.1292,-4.0455,-4.0539,-4.0593,-4.0799,-4.0799,-4.0882,-4.1049,-4.1049,-4.066,-4.0037,-4.0037,-3.9663,-3.9152,-3.9105,-3.8684,-3.8013,-3.728,-3.7015,-3.7015,-3.7015,-3.7015,-3.7015,-3.7015,-3.7015,-3.7015,-3.7015,-3.7105,-3.7298,-3.7886,-3.8084,-3.8067,-3.7358,-3.7594,-3.8042,-3.8181,-3.8629,-3.9044,-3.9082,-3.9082,-3.9135,-3.9189,-3.9206,-3.9206,-3.9206,-3.9594,-3.9952,-3.9952,-4.0451,-4.0776,-4.0776,-4.0776,-4.0776,-4.0776,-4.0888,-4.0965,-4.1053,-4.11,-4.11,-4.1053,-4.1012,-4.0935,-4.0935,-4.1024,-4.1053,-4.1053,-4.1053,-4.1053,-4.1053,-4.1226,-4.1071,-4.0707,-4.0866,-4.0724,-1.8275,-2.0221,-2.22,-2.2824,0.0,0.0,0.0,0.0,0.0,0.0,0.0,0.0,0.0,0.0,-3.4192,-3.4866,-3.6165,-3.7247,-3.7781,-3.8396,-3.8852,-3.918,-3.9076,-3.9091,-3.9143,-3.9143,-3.921,-3.9277,-3.9277,-3.9277,-3.9277,-3.9277,-3.9277,-3.9426,-3.976,-4.0069,-4.0213,-4.0842,-4.0933,-4.0639,-4.1055,-4.1101,-4.0764,-4.0764,-4.0764,-4.0842,-4.0842,-4.0681,-4.0424,-4.0424,-4.0325,-4.0232,-3.9855,-3.9331,-3.8699,-3.848,-3.8383,-3.8383,-3.8383,-3.8383,-3.8383,-3.8383,-3.8383,-3.8383,-3.8383,-3.8423,-3.8479,-3.8701,-3.881,-3.881,-3.8535,-3.859,-3.8827,-3.8865,-3.9028,-3.9295,-3.9732,-3.9834,-3.9952,-4.0351,-4.0449,-4.0449,-4.0449,-4.0594,-4.0754,-4.0754,-4.0913,-4.1088,-4.1088,-4.1088,-4.1088,-4.1088,-4.1134,-4.118,-4.1209,-4.1209,-4.1209,-4.1209,-4.118,-4.1134,-4.1134,-4.1163,-4.1209,-4.1209,-4.1209,-4.1255,-4.1318,-4.138,-4.1363,-4.13,-4.1363,-4.1346,-1.8224,-2.0114,-2.2243,0.0,0.0,0.0,0.0,0.0,0.0,0.0,-3.3709,0.0,0.0,0.0,0.0,-3.5329,-3.6386,-3.7261,-3.7477,-3.7892,-3.8262,-3.8477,-3.8508,-3.8508,-3.8508,-3.8508,-3.8508,-3.8589,-3.8589,-3.8573,-3.8639,-3.8818,-3.9011,-3.9155,-3.9688,-4.0039,-4.0252,-4.0778,-4.0991,-4.0849,-4.1554,-4.1468,-4.0762,-4.0762,-4.0836,-4.0836,-4.0836,-4.0762,-4.0549,-4.0549,-4.0491,-4.0374,-4.0045,-3.962,-3.9206,-3.9206,-3.9206,-3.9206,-3.9242,-3.9242,-3.9295,-3.9279,-3.9279,-3.9279,-3.9279,-3.9279,-3.9332,-3.9558,-3.961,-3.961,-3.98,-3.9645,-3.9558,-3.9558,-3.9697,-3.9952,-4.0449,-4.0546,-4.0642,-4.11,-4.1209,-4.1209,-4.1209,-4.1209,-4.1209,-4.1209,-4.1209,-4.1209,-4.1209,-4.1209,-4.1209,-4.1255,-4.1346,-4.1346,-4.1346,-4.148,-4.1525,-4.1436,-4.1525,-4.148,-4.1255,-4.13,-4.1318,-4.1318,-4.1318,-4.1363,-4.1471,-4.1542,-4.1604,-4.1675,-4.178,-4.1892,-1.9586,-2.0147,-2.1289,0.0,0.0,0.0,0.0,0.0,0.0,0.0,0.0,-3.3376,-3.5259,-3.3928,0.0,-3.5111,-3.6006,-3.6722,-3.74,-3.7492,-3.7738,-3.8415,-3.8492,-3.8492,-3.8492,-3.8492,-3.8558,-3.8784,-3.88,-3.8834,-3.898,-3.9596,-3.9888,-3.9888,-4.0426,-4.082,-4.1009,-4.161,-4.16,-4.1118,-4.1728,-4.1647,-4.1009,-4.1009,-4.1066,-4.118,-4.118,-4.0823,-4.0233,-4.0233,-3.9818,-3.9206,-3.9206,-3.9206,-3.9206,-3.9206,-3.9206,-3.9259,-3.9385,-3.9437,-3.942,-3.9492,-3.9527,-3.9527,-3.9527,-3.9527,-3.9647,-4.0235,-4.04,-4.0546,-4.1053,-4.0689,-4.0235,-4.04,-4.0802,-4.1209,-4.1209,-4.1209,-4.1209,-4.1192,-4.1209,-4.1209,-4.1192,-4.1209,-4.1209,-4.1209,-4.1209,-4.1209,-4.1209,-4.1209,-4.1255,-4.1363,-4.1648,-4.1736,-4.1604,-4.2019,-4.2205,-4.1917,-4.2145,-4.2019,-4.1426,-4.1515,-4.1604,-4.1604,-4.1604,-4.1604,-4.1604,-4.1805,-4.1917,-4.1917,-4.2205,-4.2287,-1.911,-2.1342,0.0,0.0,0.0,0.0,0.0,0.0,0.0,0.0,-3.575,-3.516,-3.5854,-3.5766,0.0,-3.5725,-3.6399,-3.6939,-3.7157,-3.7126,-3.7188,-3.739,-3.7421,-3.7421,-3.7421,-3.7421,-3.7638,-3.8062,-3.8122,-3.8285,-3.8762,-3.8951,-3.9121,-3.9177,-3.9769,-4.0196,-4.0406,-4.1033,-4.1292,-4.1164,-4.1353,-4.1285,-4.0933,-4.0933,-4.0933,-4.1,-4.1117,-4.1047,-4.0842,-4.0888,-4.08,-4.0611,-4.0611,-4.0611,-4.0611,-4.0611,-4.0611,-4.0594,-4.0642,-4.0642,-4.0642,-4.0689,-4.0689,-4.0689,-4.0689,-4.0689,-4.0737,-4.0896,-4.096,-4.1007,-4.1272,-4.1346,-4.1283,-4.1007,-4.11,-4.1209,-4.1318,-4.1318,-4.1363,-4.1453,-4.1587,-4.1657,-4.1498,-4.1762,-4.1917,-4.1701,-4.1831,-4.1959,-4.1959,-4.1959,-4.1977,-4.2019,-4.2121,-4.2121,-4.2121,-4.2205,-4.2287,-4.2205,-4.2246,-4.2205,-4.2037,-4.2079,-4.2061,-4.2061,-4.2061,-4.2061,-4.2061,-4.2163,-4.2187,-4.2187,-4.2287,-4.2369,-2.0588,0.0,0.0,0.0,0.0,0.0,-3.4867,0.0,0.0,0.0,-3.6215,-3.5829,-3.64,-3.6322,-3.6199,-3.6337,-3.6739,-3.7015,-3.7015,-3.7015,-3.7015,-3.7015,-3.7015,-3.7015,-3.7015,-3.721,-3.7476,-3.7895,-3.8108,-3.843,-3.887,-3.9123,-3.9318,-3.9439,-4.0019,-4.0431,-4.0594,-4.0948,-4.1152,-4.1209,-4.1209,-4.1117,-4.0995,-4.0995,-4.0995,-4.0995,-4.1105,-4.1169,-4.1152,-4.1163,-4.1209,-4.1209,-4.1209,-4.1255,-4.1363,-4.1255,-4.1328,-4.1463,-4.1436,-4.148,-4.1569,-4.1613,-4.1657,-4.1657,-4.1657,-4.1657,-4.1657,-4.1657,-4.1657,-4.1657,-4.1719,-4.1866,-4.1909,-4.1569,-4.1569,-4.1657,-4.1719,-4.178,-4.1762,-4.1866,-4.1995,-4.2019,-4.1909,-4.2121,-4.2246,-4.2103,-4.2205,-4.2287,-4.2287,-4.2287,-4.2287,-4.2287,-4.2369,-4.2369,-4.2328,-4.2534,-4.2652,-4.2555,-4.2652,-4.2691,-4.2691,-4.2432,-4.2287,-4.2287,-4.2287,-4.2287,-4.2287,-4.2369,-4.2409,-4.2409,-4.2512,-4.2591,-2.2965,0.0,0.0,0.0,0.0,0.0,-3.6669,-3.7417,-3.7539,-3.748,0.0,-3.5827,-3.7008,-3.615,-3.5646,-3.6829,-3.7076,-3.7076,-3.7076,-3.706,-3.7121,-3.7076,-3.7121,-3.7165,-3.7105,-3.7637,-3.7994,-3.8254,-3.8761,-3.9139,-3.9348,-3.9935,-4.0285,-4.0285,-4.0896,-4.1209,-4.1209,-4.1209,-4.1237,-4.1283,-4.1283,-4.1328,-4.1311,-4.1237,-4.1209,-4.1209,-4.1255,-4.1255,-4.1255,-4.13,-4.13,-4.13,-4.13,-4.1453,-4.1648,-4.1391,-4.1552,-4.1941,-4.1866,-4.1952,-4.2145,-4.2246,-4.2287,-4.2287,-4.2287,-4.2287,-4.2287,-4.2287,-4.2287,-4.2287,-4.2287,-4.2328,-4.2287,-4.2019,-4.2145,-4.2287,-4.2287,-4.2287,-4.2287,-4.2287,-4.2328,-4.2328,-4.2287,-4.2328,-4.2351,-4.2351,-4.2351,-4.2351,-4.2351,-4.2369,-4.2391,-4.2391,-4.2552,-4.2591,-4.2432,-4.2976,-4.3232,-4.3087,-4.3249,-4.3338,-4.3355,-4.2711,-4.2351,-4.2351,-4.2351,-4.2351,-4.2369,-4.257,-4.2649,-4.2649,-4.2862,-4.2938,0.0,-2.4149,0.0,0.0,0.0,-3.6326,-3.8056,-3.8319,-3.7918,-3.7029,-3.7112,-3.7345,-3.7433,-3.716,-3.7037,-3.7345,-3.7421,-3.7421,-3.7421,-3.777,-3.787,-3.7464,-3.8173,-3.8535,-3.8084,-3.8574,-3.9119,-3.9715,-3.9868,-4.0169,-4.0754,-4.0896,-4.099,-4.099,-4.11,-4.1255,-4.138,-4.1363,-4.1569,-4.199,-4.199,-4.2139,-4.2444,-4.1604,-4.1255,-4.1363,-4.1604,-4.1719,-4.1744,-4.1977,-4.2061,-4.2061,-4.2061,-4.2103,-4.2145,-4.2061,-4.2145,-4.2187,-4.2205,-4.2205,-4.2246,-4.2287,-4.2287,-4.2287,-4.2287,-4.2287,-4.2287,-4.2287,-4.2287,-4.2287,-4.2287,-4.2409,-4.253,-4.2472,-4.2369,-4.2287,-4.2287,-4.2287,-4.2287,-4.2287,-4.245,-4.249,-4.2328,-4.2552,-4.2768,-4.2768,-4.2768,-4.2768,-4.2768,-4.2939,-4.3087,-4.3087,-4.3124,-4.3232,-4.3389,-4.3338,-4.3424,-4.3689,-4.366,-4.366,-4.3772,-4.3142,-4.2768,-4.2768,-4.2768,-4.2768,-4.2768,-4.2918,-4.2974,-4.2974,-4.3105,-4.3123,0.0,0.0,0.0,0.0,0.0,-3.7094,-3.8035,-3.8559,-3.86,-3.7669,-3.786,-3.8091,-3.7934,-3.7934,-3.7934,-3.7934,-3.7934,-3.7976,-3.8157,-3.839,-3.8541,-3.8446,-3.8995,-3.9193,-3.8908,-3.9404,-3.9902,-4.0285,-4.0546,-4.0849,-4.1192,-4.1255,-4.1318,-4.1318,-4.1436,-4.164,-4.1821,-4.1966,-4.2257,-4.2639,-4.2639,-4.2754,-4.2904,-4.2306,-4.2062,-4.2121,-4.2342,-4.244,-4.2501,-4.2637,-4.2693,-4.2693,-4.2693,-4.2732,-4.2808,-4.2732,-4.2808,-4.2976,-4.2846,-4.2884,-4.2976,-4.2976,-4.2976,-4.2976,-4.2976,-4.2976,-4.2976,-4.2976,-4.2976,-4.2976,-4.2976,-4.2995,-4.3069,-4.3195,-4.2884,-4.2591,-4.2591,-4.2591,-4.2591,-4.2591,-4.267,-4.2709,-4.2591,-4.2882,-4.3069,-4.292,-4.3142,-4.3232,-4.3105,-4.3389,-4.3575,-4.3575,-4.3656,-4.3735,-4.3881,-4.3862,-4.3955,-4.4165,-4.4125,-4.4125,-4.4165,-4.3717,-4.3437,-4.3371,-4.3437,-4.3471,-4.3471,-4.3523,-4.3575,-4.3575,-4.3458,-4.3442,0.0,0.0,0.0,0.0,-3.5856,0.0,-3.7505,-3.8438,-3.9073,-3.8492,-3.8423,-3.8448,-3.8408,-3.8391,-3.8391,-3.8488,-3.8488,-3.8623,-3.8962,-3.9069,-3.9229,-3.9475,-3.9681,-3.9749,-3.963,-4.0186,-4.0546,-4.0563,-4.096,-4.1255,-4.1346,-4.1408,-4.1542,-4.1613,-4.1874,-4.2175,-4.2426,-4.2675,-4.2903,-4.3194,-4.3265,-4.3318,-4.33,-4.3246,-4.3122,-4.2941,-4.3087,-4.3159,-4.3159,-4.3194,-4.3194,-4.3194,-4.3194,-4.3318,-4.344,-4.3283,-4.3406,-4.3679,-4.3542,-4.3594,-4.3744,-4.3758,-4.3758,-4.3758,-4.3758,-4.3758,-4.3758,-4.3758,-4.3758,-4.3758,-4.3758,-4.3679,-4.3679,-4.3881,-4.3523,-4.3105,-4.3105,-4.3105,-4.3105,-4.3105,-4.3105,-4.3105,-4.3105,-4.3266,-4.3371,-4.3142,-4.3474,-4.3693,-4.3493,-4.3786,-4.3986,-4.3986,-4.4087,-4.4204,-4.4233,-4.4392,-4.4519,-4.4617,-4.4591,-4.4591,-4.4599,-4.4392,-4.4204,-4.4125,-4.4087,-4.4098,-4.4098,-4.4117,-4.4146,-4.4117,-4.3912,-4.3836,0.0,0.0,0.0,0.0,-3.5127,-3.6047,0.0,0.0,-3.8723,0.0,-3.8504,-3.8711,-3.8448,-3.8391,-3.8488,-3.8778,-3.8816,-3.8978,-3.937,-3.9868,-4.0036,-3.9578,-4.0366,-4.0784,-4.0334,-4.0754,-4.1146,-4.1272,-4.1318,-4.1498,-4.1788,-4.1831,-4.2044,-4.2498,-4.2595,-4.2714,-4.2996,-4.3014,-4.3248,-4.3609,-4.3986,-4.4128,-4.4147,-4.4317,-4.3912,-4.3069,-4.3283,-4.3353,-4.3353,-4.356,-4.3612,-4.3612,-4.3612,-4.3646,-4.3646,-4.3646,-4.3646,-4.3712,-4.3804,-4.3849,-4.3881,-4.3998,-4.4058,-4.4058,-4.4058,-4.4058,-4.4058,-4.4058,-4.4058,-4.4058,-4.4058,-4.4028,-4.4028,-4.4039,-4.4009,-4.3949,-4.3949,-4.3949,-4.3949,-4.3949,-4.3949,-4.3949,-4.3949,-4.3967,-4.3979,-4.3949,-4.3998,-4.4028,-4.3998,-4.4233,-4.4438,-4.4438,-4.4438,-4.4519,-4.4758,-4.4617,-4.4643,-4.4995,-4.49,-4.4919,-4.5014,-4.4972,-4.4948,-4.4948,-4.4392,-4.4098,-4.4098,-4.4213,-4.4289,-4.4289,-4.4318,-4.4299,-2.0618,0.0,0.0,0.0,-3.4209,-3.56,-3.6344,-3.7665,-3.8657,-3.8231,-3.8483,-3.884,-3.9196,-3.9382,-3.9594,-3.9715,-3.9766,-3.9868,-4.0285,-4.0546,-4.0707,-4.0672,-4.1146,-4.1346,-4.11,-4.1373,-4.1613,-4.1675,-4.1941,-4.2192,-4.2356,-4.248,-4.2696,-4.294,-4.3051,-4.3212,-4.3505,-4.3703,-4.3986,-4.4374,-4.4541,-4.4659,-4.464,-4.4738,-4.4467,-4.3943,-4.4084,-4.4173,-4.4242,-4.425,-4.4298,-4.4365,-4.4365,-4.4365,-4.4365,-4.4365,-4.4365,-4.4393,-4.4448,-4.4457,-4.4457,-4.4538,-4.4538,-4.4538,-4.4538,-4.4538,-4.4538,-4.4538,-4.4538,-4.4538,-4.4538,-4.4465,-4.4419,-4.4617,-4.458,-4.4535,-4.4726,-4.4428,-4.4098,-4.4098,-4.4098,-4.4098,-4.4098,-4.4233,-4.4261,-4.4128,-4.4364,-4.4493,-4.4318,-4.4624,-4.4833,-4.4833,-4.4887,-4.4995,-4.5106,-4.5019,-4.5,-4.5192,-4.5148,-4.5148,-4.5213,-4.5213,-4.5213,-4.5213,-4.491,-4.4776,-4.4776,-4.4838,-4.4857,-4.4857,-4.4695,-4.4624,0.0,0.0,-2.6422,-2.9756,-3.2265,-3.4123,0.0,0.0,-3.7922,-3.771,-3.8408,-3.9164,-3.9665,-4.0007,-4.0323,-4.0655,-4.0689,-4.0802,-4.1283,-4.1346,-4.1436,-4.1719,-4.178,-4.178,-4.178,-4.1959,-4.211,-4.211,-4.2537,-4.2828,-4.2884,-4.3069,-4.323,-4.3334,-4.349,-4.3707,-4.3962,-4.4279,-4.4549,-4.4846,-4.487,-4.4895,-4.4895,-4.4938,-4.487,-4.4738,-4.4745,-4.4815,-4.4895,-4.4796,-4.4796,-4.4895,-4.4895,-4.4895,-4.4895,-4.4895,-4.4895,-4.4895,-4.4943,-4.4943,-4.4943,-4.4991,-4.4991,-4.4991,-4.4991,-4.4991,-4.4991,-4.4991,-4.4991,-4.4991,-4.4991,-4.4881,-4.4838,-4.5084,-4.5042,-4.5,-4.5256,-4.4819,-4.4401,-4.4401,-4.4401,-4.4401,-4.4401,-4.4553,-4.4624,-4.4447,-4.4739,-4.4924,-4.472,-4.4972,-4.5148,-4.5148,-4.5235,-4.5297,-4.5297,-4.5297,-4.5297,-4.5297,-4.5297,-4.5317,-4.5317,-4.5317,-4.5338,-4.5319,-4.5319,-4.5319,-4.5297,-4.5319,-4.5338,-4.5317,-4.5068,-4.4943,0.0,-2.0885,0.0,-2.6083,-2.8782,0.0,0.0,0.0,-3.6071,-3.6394,-3.8262,-3.9736,-3.9388,-3.9485,-4.0078,-4.1411,-4.1445,-4.1569,-4.2145,-4.2246,-4.2246,-4.2246,-4.2246,-4.2246,-4.2246,-4.2494,-4.2673,-4.2673,-4.2922,-4.3159,-4.3353,-4.3371,-4.3575,-4.403,-4.406,-4.4199,-4.4468,-4.4605,-4.4693,-4.4712,-4.4821,-4.4895,-4.4895,-4.5014,-4.5061,-4.508,-4.4943,-4.4895,-4.4895,-4.4895,-4.4895,-4.4895,-4.4895,-4.4895,-4.4895,-4.4895,-4.4895,-4.4919,-4.5057,-4.5103,-4.5125,-4.5254,-4.5275,-4.5275,-4.5275,-4.5275,-4.5275,-4.5275,-4.5275,-4.5275,-4.5275,-4.5256,-4.5275,-4.5297,-4.5297,-4.5297,-4.5297,-4.5275,-4.5235,-4.5235,-4.5235,-4.5235,-4.5235,-4.5256,-4.5256,-4.5235,-4.5256,-4.5256,-4.5256,-4.5275,-4.5297,-4.5297,-4.5297,-4.5297,-4.5297,-4.5297,-4.5297,-4.5297,-4.5297,-4.5317,-4.5398,-4.5379,-4.538,-4.54,-4.54,-4.5361,-4.5297,-4.5361,-4.54,-4.5379,-4.538,-4.5362,0.0,0.0,0.0,-2.4329,-2.7119,-2.9448,-3.0166,-3.2763,-3.5146,-3.5543,-3.6899,-3.8276,-3.9024,-3.9514,-3.997,-4.0458,-4.0471,-4.0529,-4.0749,-4.1217,-4.1582,-4.1761,-4.225,-4.2634,-4.279,-4.3014,-4.3159,-4.3159,-4.3542,-4.3772,-4.3855,-4.403,-4.417,-4.4335,-4.4383,-4.4477,-4.4745,-4.4796,-4.4919,-4.5103,-4.5148,-4.5148,-4.5148,-4.5192,-4.5235,-4.5297,-4.5192,-4.5148,-4.5148,-4.5061,-4.508,-4.5148,-4.5148,-4.5148,-4.5148,-4.5148,-4.5148,-4.517,-4.5213,-4.5213,-4.5254,-4.5297,-4.5297,-4.5297,-4.5297,-4.5297,-4.5297,-4.5297,-4.5338,-4.5338,-4.5317,-4.5339,-4.5361,-4.5361,-4.5361,-4.5361,-4.5361,-4.536,-4.5359,-4.5361,-4.5361,-4.5361,-4.5361,-4.5361,-4.5361,-4.5361,-4.5361,-4.5361,-4.5361,-4.536,-4.5359,-4.5359,-4.5317,-4.5317,-4.5359,-4.5359,-4.536,-4.5361,-4.5361,-4.538,-4.54,-4.54,-4.54,-4.54,-4.5438,-4.5438,-4.5361,-4.5381,-4.54,-4.54,-4.54,-4.54,-1.6706,0.0,0.0,0.0,0.0,-2.6758,-2.8438,-3.0776,-3.2871,-3.3988,-3.5263,-3.6566,-3.7769,-3.8295,-3.8867,-3.9924,-4.0047,-4.0047,-4.0218,-4.0705,-4.1123,-4.1378,-4.1886,-4.2267,-4.2459,-4.2938,-4.3221,-4.3221,-4.3831,-4.4229,-4.4229,-4.4411,-4.4515,-4.4515,-4.4515,-4.4605,-4.4821,-4.487,-4.5014,-4.5235,-4.5275,-4.5297,-4.5297,-4.5297,-4.5317,-4.5378,-4.5338,-4.5319,-4.5339,-4.5235,-4.5256,-4.5339,-4.5339,-4.5339,-4.5339,-4.5339,-4.5339,-4.5339,-4.5338,-4.5338,-4.5338,-4.5338,-4.5317,-4.5297,-4.5317,-4.5338,-4.5338,-4.5338,-4.5379,-4.538,-4.5339,-4.538,-4.54,-4.54,-4.54,-4.5419,-4.5419,-4.5419,-4.54,-4.54,-4.54,-4.54,-4.54,-4.54,-4.54,-4.54,-4.54,-4.54,-4.54,-4.54,-4.54,-4.54,-4.536,-4.536,-4.5419,-4.54,-4.54,-4.54,-4.54,-4.5419,-4.5438,-4.5438,-4.5438,-4.5476,-4.5513,-4.5513,-4.5476,-4.5476,-4.5476,-4.5438,-4.5476,-4.5476,0.0,0.0,0.0,0.0,0.0,0.0,-2.6445,-2.7937,-2.9192,-3.1628,-3.3386,-3.4715,-3.5584,-3.5747,-3.6779,-3.984,-4.0221,-4.0294,-4.075,-4.0854,-4.0936,-4.1138,-4.1188,-4.1206,-4.1237,-4.2229,-4.288,-4.288,-4.383,-4.4439,-4.4439,-4.4458,-4.4496,-4.4515,-4.4515,-4.4578,-4.4712,-4.4821,-4.4967,-4.5103,-4.5254,-4.5297,-4.5297,-4.5297,-4.5297,-4.5317,-4.5359,-4.54,-4.54,-4.54,-4.54,-4.54,-4.54,-4.54,-4.54,-4.54,-4.54,-4.54,-4.5399,-4.5398,-4.5398,-4.5398,-4.5359,-4.5317,-4.5379,-4.5398,-4.5398,-4.5398,-4.54,-4.54,-4.54,-4.54,-4.54,-4.54,-4.54,-4.5419,-4.5495,-4.5438,-4.54,-4.54,-4.54,-4.54,-4.54,-4.54,-4.54,-4.54,-4.54,-4.54,-4.54,-4.54,-4.54,-4.54,-4.54,-4.54,-4.54,-4.54,-4.54,-4.54,-4.54,-4.5438,-4.5495,-4.5495,-4.5531,-4.5586,-4.5603,-4.5603,-4.5603,-4.5586,-4.5568,-4.5495,-4.5568,-4.5586,-1.5963,0.0,0.0,0.0,0.0,0.0,-2.2992,-2.4735,-2.6872,-2.9434,-3.0754,-3.2118,-3.4126,-3.5018,-3.5708,-3.6541,-3.746,-3.8428,-3.9332,-3.9952,-4.0394,-4.0606,-4.1144,-4.1574,-4.1764,-4.2071,-4.2248,-4.2248,-4.2508,-4.2712,-4.2712,-4.3294,-4.395,-4.4613,-4.4659,-4.4764,-4.501,-4.5033,-4.5125,-4.5254,-4.5297,-4.5297,-4.5297,-4.5297,-4.5317,-4.5359,-4.5398,-4.5438,-4.5476,-4.5419,-4.54,-4.54,-4.54,-4.54,-4.54,-4.54,-4.54,-4.54,-4.54,-4.54,-4.54,-4.54,-4.54,-4.538,-4.54,-4.54,-4.54,-4.54,-4.5419,-4.5495,-4.5531,-4.5513,-4.5495,-4.5531,-4.5531,-4.555,-4.5568,-4.5568,-4.5531,-4.5531,-4.5531,-4.5531,-4.5531,-4.5531,-4.5531,-4.5531,-4.5531,-4.5531,-4.5531,-4.5495,-4.5457,-4.5457,-4.5419,-4.5419,-4.5476,-4.5457,-4.5495,-4.5531,-4.5531,-4.5568,-4.564,-4.5586,-4.5603,-4.5657,-4.5657,-4.5657,-4.5657,-4.5622,-4.5586,-4.5568,-4.5586,-4.5622,0.0,0.0,0.0,0.0,0.0,0.0,-2.285,-2.3767,-2.5016,-2.7631,-2.8796,-2.9884,-3.1695,-3.2696,-3.3518,-3.4296,-3.541,-3.6599,-3.7803,-3.873,-3.9314,-3.9504,-4.0259,-4.0836,-4.1017,-4.1381,-4.1594,-4.1625,-4.1964,-4.2172,-4.2172,-4.2643,-4.3335,-4.4203,-4.4241,-4.4511,-4.5084,-4.5103,-4.517,-4.5297,-4.5297,-4.5297,-4.5297,-4.5297,-4.5338,-4.5398,-4.5419,-4.5438,-4.5495,-4.5495,-4.5495,-4.5495,-4.5495,-4.5495,-4.5495,-4.5495,-4.5495,-4.5476,-4.5438,-4.5438,-4.5438,-4.5438,-4.5419,-4.54,-4.5438,-4.5438,-4.5438,-4.5438,-4.5495,-4.555,-4.5586,-4.5568,-4.555,-4.5586,-4.5586,-4.5586,-4.5586,-4.5586,-4.5586,-4.5586,-4.5586,-4.5586,-4.5586,-4.5586,-4.5586,-4.5586,-4.5586,-4.5586,-4.5586,-4.5568,-4.5531,-4.5531,-4.5513,-4.5495,-4.555,-4.5568,-4.5586,-4.564,-4.5637,-4.5654,-4.5706,-4.5671,-4.5654,-4.5706,-4.5706,-4.5706,-4.5706,-4.5654,-4.5654,-4.5654,-4.5654,-4.5671,0.0,-2.0156,0.0,0.0,-2.1402,0.0,-2.4192,-2.3951,-2.3654,-2.5928,-2.6916,-2.7657,-2.863,-2.9522,-3.0644,-3.2369,-3.3539,-3.483,-3.6547,-3.7499,-3.8064,-3.8193,-3.8893,-3.9411,-3.9584,-4.0302,-4.082,-4.095,-4.1688,-4.2162,-4.2257,-4.2257,-4.2617,-4.3455,-4.3497,-4.3961,-4.4973,-4.4973,-4.5074,-4.5297,-4.5297,-4.5297,-4.5297,-4.5317,-4.5338,-4.5418,-4.54,-4.5438,-4.5513,-4.5568,-4.5586,-4.5586,-4.5586,-4.5586,-4.5586,-4.5586,-4.5586,-4.5586,-4.5531,-4.5513,-4.5513,-4.5513,-4.5476,-4.5438,-4.5495,-4.5513,-4.5513,-4.5513,-4.5568,-4.5586,-4.5586,-4.5586,-4.5586,-4.5586,-4.5586,-4.5586,-4.5586,-4.5622,-4.5603,-4.5603,-4.5622,-4.5586,-4.5586,-4.5586,-4.5586,-4.5586,-4.5622,-4.5603,-4.5603,-4.5603,-4.5603,-4.5603,-4.5603,-4.5603,-4.5603,-4.5673,-4.5709,-4.5709,-4.5703,-4.5715,-4.5715,-4.5715,-4.5715,-4.5715,-4.5715,-4.5715,-4.5715,-4.5696,-4.57,-4.57,-4.57,-4.5715,-2.0749,-2.1806,-2.3254,-2.2281,-2.3125,0.0,-2.2025,-2.2347,-2.3046,-2.3239,-2.3319,-2.384,-2.5527,-2.7055,-2.8156,-2.8499,-3.0457,-3.3183,-3.6755,-3.7416,-3.7551,-3.7572,-3.7724,-3.8123,-3.8826,-3.9053,-3.9413,-4.0079,-4.0287,-4.0666,-4.131,-4.1348,-4.1791,-4.2775,-4.2813,-4.3259,-4.4204,-4.4204,-4.4588,-4.5297,-4.5297,-4.5297,-4.5297,-4.5378,-4.5398,-4.5399,-4.5458,-4.5495,-4.5513,-4.5568,-4.5586,-4.5586,-4.5586,-4.5586,-4.5586,-4.5586,-4.5586,-4.5586,-4.5586,-4.5586,-4.5586,-4.5586,-4.5568,-4.5568,-4.5568,-4.5586,-4.5586,-4.5586,-4.5586,-4.5586,-4.5586,-4.5586,-4.5586,-4.5586,-4.5586,-4.5586,-4.5586,-4.564,-4.5693,-4.5693,-4.564,-4.5586,-4.5586,-4.5586,-4.5586,-4.5586,-4.564,-4.5693,-4.5693,-4.5693,-4.5673,-4.5684,-4.569,-4.569,-4.5684,-4.5684,-4.57,-4.57,-4.57,-4.5715,-4.5781,-4.5731,-4.5715,-4.5781,-4.5781,-4.5776,-4.5786,-4.5731,-4.57,-4.57,-4.57,-4.5731,-2.2993,-2.3396,-2.4411,-2.4479,-2.4461,0.0,0.0,-2.3667,-2.3547,-2.4246,-2.3651,-2.355,-2.5374,-2.6028,-2.6591,-2.7409,-2.8979,-3.0975,-3.3458,-3.485,-3.559,-3.5514,-3.6234,-3.6955,-3.7451,-3.7887,-3.8345,-3.8765,-3.9222,-3.9621,-4.002,-4.0458,-4.1127,-4.2026,-4.2065,-4.2485,-4.3386,-4.3806,-4.4227,-4.4666,-4.5086,-4.5317,-4.5338,-4.5379,-4.5419,-4.5438,-4.5495,-4.5513,-4.555,-4.5586,-4.5586,-4.5586,-4.5586,-4.5586,-4.5586,-4.5586,-4.5586,-4.5586,-4.5586,-4.5586,-4.5586,-4.5586,-4.5586,-4.5586,-4.5586,-4.5586,-4.5586,-4.5586,-4.5586,-4.5586,-4.5586,-4.5586,-4.5586,-4.5586,-4.5586,-4.5586,-4.5586,-4.5657,-4.5693,-4.5693,-4.5654,-4.5654,-4.5657,-4.564,-4.564,-4.564,-4.5693,-4.5709,-4.5687,-4.5687,-4.5703,-4.57,-4.5703,-4.5703,-4.57,-4.5731,-4.575,-4.575,-4.5761,-4.5757,-4.5791,-4.5776,-4.5776,-4.5791,-4.5791,-4.5805,-4.58,-4.5771,-4.5742,-4.5742,-4.5742,-4.5776,-2.539,-2.5256,-2.5755,-2.6714,-2.5906,-2.5205,0.0,0.0,0.0,-2.5461,-2.4529,-2.3972,-2.5397,-2.5227,-2.5272,-2.6524,-2.7682,-2.8618,-2.9153,-3.1047,-3.2526,-3.2897,-3.4281,-3.5287,-3.5587,-3.6252,-3.6955,-3.7655,-3.7903,-3.8323,-3.8973,-3.968,-4.0425,-4.1246,-4.1284,-4.1705,-4.2585,-4.3254,-4.3752,-4.4097,-4.4786,-4.5227,-4.5457,-4.5457,-4.5494,-4.5563,-4.558,-4.5599,-4.5637,-4.5637,-4.562,-4.5586,-4.5586,-4.5586,-4.5586,-4.5586,-4.5586,-4.5586,-4.5586,-4.5586,-4.5586,-4.5586,-4.5586,-4.5586,-4.5586,-4.5586,-4.5586,-4.5586,-4.5586,-4.5586,-4.5586,-4.5586,-4.5603,-4.5622,-4.5622,-4.5622,-4.562,-4.5673,-4.5726,-4.5726,-4.5719,-4.5715,-4.5706,-4.569,-4.569,-4.569,-4.5706,-4.5722,-4.5715,-4.5715,-4.5715,-4.5731,-4.5715,-4.5715,-4.5731,-4.5781,-4.5795,-4.5795,-4.5805,-4.58,-4.58,-4.58,-4.58,-4.5838,-4.5838,-4.5838,-4.5858,-4.5858,-4.5838,-4.58,-4.58,-4.58,-2.7121,-2.7755,-2.8407,-2.6512,-2.7978,-2.8877,-2.4998,0.0,-2.5156,-2.3385,0.0,-2.265,-2.2961,0.0,0.0,-2.3269,-2.5141,-2.646,-2.586,-2.6632,-2.807,-3.0309,-3.1378,-3.2237,-3.302,-3.3191,-3.4486,-3.7483,-3.5744,-3.5859,-3.8839,-3.9088,-3.9546,-4.0425,-4.0494,-4.0929,-4.1812,-4.2024,-4.2896,-4.436,-4.4457,-4.4909,-4.566,-4.5742,-4.5796,-4.5859,-4.5844,-4.5835,-4.5786,-4.5786,-4.5715,-4.5586,-4.5586,-4.5586,-4.5586,-4.5586,-4.5586,-4.5586,-4.5586,-4.5586,-4.5586,-4.5586,-4.5586,-4.5586,-4.5586,-4.5586,-4.5586,-4.5586,-4.5586,-4.5586,-4.5586,-4.5586,-4.5603,-4.5657,-4.5693,-4.569,-4.5684,-4.575,-4.58,-4.58,-4.5791,-4.5771,-4.5715,-4.57,-4.57,-4.57,-4.575,-4.58,-4.58,-4.5781,-4.5795,-4.5786,-4.5776,-4.5795,-4.5786,-4.58,-4.58,-4.58,-4.58,-4.58,-4.58,-4.58,-4.5858,-4.5969,-4.5988,-4.6007,-4.6065,-4.6065,-4.5969,-4.58,-4.58,-4.58,-2.7583,-2.8065,-2.8757,-2.7831,-2.8282,-2.843,-2.6472,-2.576,-2.5367,-2.4889,0.0,0.0,0.0,0.0,0.0,0.0,-2.3853,-2.4113,-2.3739,-2.4017,-2.5367,-2.8396,-2.9052,-2.9784,-3.1121,-3.125,-3.1824,-3.3242,-3.2856,-3.3612,-3.6013,-3.7562,-3.8783,-3.9692,-4.0235,-4.0688,-4.1054,-4.1624,-4.2246,-4.296,-4.3463,-4.391,-4.433,-4.4809,-4.5079,-4.5179,-4.5686,-4.5878,-4.5871,-4.5871,-4.5815,-4.5764,-4.5764,-4.5688,-4.5603,-4.5684,-4.5668,-4.5586,-4.5586,-4.5586,-4.5622,-4.564,-4.5657,-4.5657,-4.5671,-4.5654,-4.5657,-4.5671,-4.5654,-4.5657,-4.5671,-4.5651,-4.5671,-4.5687,-4.5703,-4.5703,-4.57,-4.5765,-4.58,-4.58,-4.5805,-4.58,-4.5757,-4.5761,-4.5765,-4.5765,-4.5781,-4.5795,-4.5805,-4.5805,-4.5805,-4.58,-4.5786,-4.5824,-4.5896,-4.593,-4.593,-4.5969,-4.5969,-4.5969,-4.5969,-4.5969,-4.6007,-4.6065,-4.6061,-4.6066,-4.6105,-4.6105,-4.6066,-4.5969,-4.5958,-4.5969,-2.8789,-2.9007,-2.9488,-2.865,-2.8218,-2.7821,-2.7154,-2.6421,-2.5918,-2.6039,-2.5466,0.0,0.0,0.0,0.0,0.0,0.0,-2.2929,-2.2659,-2.2479,-2.3447,-2.6324,-2.7077,-2.8033,-2.9715,-2.904,-2.8977,-3.0144,-2.9966,-3.1072,-3.3974,-3.5878,-3.7618,-3.9243,-3.9959,-4.0397,-4.0648,-4.1318,-4.1773,-4.2024,-4.2656,-4.3089,-4.3413,-4.4238,-4.4647,-4.4751,-4.5635,-4.5987,-4.5949,-4.5949,-4.593,-4.591,-4.593,-4.584,-4.5692,-4.5789,-4.578,-4.5677,-4.5677,-4.5665,-4.5651,-4.5719,-4.5703,-4.5709,-4.57,-4.5703,-4.5706,-4.57,-4.5703,-4.5706,-4.57,-4.57,-4.5715,-4.5715,-4.5715,-4.5731,-4.5731,-4.5781,-4.5849,-4.5849,-4.5863,-4.5877,-4.5877,-4.5844,-4.581,-4.581,-4.581,-4.581,-4.5838,-4.5838,-4.5838,-4.5838,-4.5858,-4.591,-4.5988,-4.6016,-4.6053,-4.6092,-4.6092,-4.6092,-4.6092,-4.6092,-4.6106,-4.6123,-4.6133,-4.615,-4.6152,-4.6152,-4.6152,-4.6143,-4.6123,-4.6111,-3.1533,-3.1615,-3.1447,-2.8316,-2.8112,-2.8063,-2.5805,-2.6479,-2.7166,-2.5573,-2.6479,-2.7109,-2.5535,0.0,0.0,0.0,0.0,0.0,0.0,-2.2029,-2.2163,-2.3828,-2.5516,-2.7194,-2.888,-2.6102,-2.5894,-2.999,-2.7311,-2.8035,-3.3897,-3.4263,-3.5856,-3.9185,-3.9444,-3.9948,-4.0788,-4.0946,-4.1455,-4.2291,-4.231,-4.2773,-4.3626,-4.4484,-4.4924,-4.5047,-4.5906,-4.6211,-4.6098,-4.6098,-4.6033,-4.591,-4.6049,-4.6005,-4.5889,-4.5899,-4.5899,-4.5889,-4.5889,-4.5847,-4.578,-4.5802,-4.5757,-4.5709,-4.57,-4.57,-4.57,-4.57,-4.57,-4.57,-4.57,-4.57,-4.5715,-4.5781,-4.58,-4.5795,-4.58,-4.5896,-4.5974,-4.5974,-4.6046,-4.6085,-4.6085,-4.5916,-4.58,-4.58,-4.58,-4.5838,-4.5988,-4.5988,-4.5988,-4.5988,-4.6046,-4.6065,-4.6007,-4.6047,-4.6091,-4.6091,-4.6091,-4.6091,-4.6091,-4.6091,-4.6134,-4.6201,-4.6215,-4.6236,-4.6287,-4.6287,-4.6293,-4.6285,-4.6161,-4.6101,-3.2158,-3.2631,-3.2627,-2.9785,-2.9361,-2.8973,-2.6498,-2.6816,-2.7172,-2.5543,-2.6517,-2.7186,-2.5516,0.0,0.0,0.0,0.0,0.0,0.0,-2.1646,-2.1922,-2.3045,-2.4667,0.0,-2.4894,-2.485,-2.5207,-2.6072,-2.6188,-2.7605,-3.0782,-3.3093,-3.5398,-3.7773,-3.9023,-4.006,-4.0921,-4.102,-4.1201,-4.1512,-4.1504,-4.1661,-4.1976,-4.2861,-4.3567,-4.4192,-4.5051,-4.5746,-4.624,-4.624,-4.6211,-4.6176,-4.6211,-4.6211,-4.615,-4.6076,-4.5978,-4.5899,-4.5899,-4.5897,-4.5863,-4.5917,-4.5917,-4.5912,-4.5951,-4.5918,-4.5907,-4.5907,-4.5901,-4.587,-4.5795,-4.5829,-4.5907,-4.5921,-4.5921,-4.594,-4.5993,-4.6027,-4.608,-4.6066,-4.6075,-4.6095,-4.6095,-4.6027,-4.6007,-4.5996,-4.6007,-4.6007,-4.6065,-4.608,-4.6075,-4.6075,-4.6092,-4.6104,-4.6123,-4.6183,-4.6237,-4.6237,-4.6237,-4.6223,-4.623,-4.623,-4.6247,-4.6261,-4.628,-4.6284,-4.6295,-4.6306,-4.6303,-4.6309,-4.6243,-4.6228,-3.3006,-3.3391,-3.3337,-3.0991,-3.0506,-2.9932,-2.7388,-2.7693,-2.8057,-2.6496,-2.6979,-2.7579,-2.7189,0.0,0.0,0.0,0.0,0.0,0.0,-2.1557,-2.1949,-2.1927,0.0,0.0,0.0,-2.3578,-2.3813,-2.4517,-2.4798,-2.6229,0.0,-3.1744,-3.4338,-3.7047,-3.8526,-3.9838,-4.0994,-4.1061,-4.1091,-4.1096,-4.1105,-4.1097,-4.1127,-4.1995,-4.2717,-4.3294,-4.4484,-4.5324,-4.5851,-4.6163,-4.63,-4.63,-4.63,-4.63,-4.6296,-4.6206,-4.6131,-4.6049,-4.6049,-4.601,-4.599,-4.6045,-4.6036,-4.6014,-4.6076,-4.6065,-4.605,-4.605,-4.6048,-4.6023,-4.5937,-4.5977,-4.6046,-4.6046,-4.6035,-4.605,-4.6088,-4.6113,-4.6138,-4.6134,-4.6144,-4.6172,-4.617,-4.6176,-4.6146,-4.6111,-4.6108,-4.6111,-4.6137,-4.6139,-4.6138,-4.6138,-4.6153,-4.6183,-4.6231,-4.628,-4.6308,-4.6306,-4.6305,-4.6301,-4.629,-4.6303,-4.6306,-4.6295,-4.6295,-4.6295,-4.6295,-4.6306,-4.63,-4.63,-4.63,-4.63]}]]